<?xml version="1.0" encoding="UTF-8" standalone="no" ?>
<gpx xmlns="http://www.topografix.com/GPX/1/1" xmlns:xsi="http://www.w3.org/2001/XMLSchema-instance" xsi:schemaLocation="http://www.topografix.com/GPX/1/1 http://www.topografix.com/GPX/1/1/gpx.xsd" version="1.1" creator="VisuGPX - https://www.visugpx.com">
  <metadata>
    <name>Sortie du 22 Juillet 2012 - Fontaines</name>
    <desc><![CDATA[Super tracé et excellente sortie - Merci Olivier pour cette rando]]></desc>
  </metadata>
  <trk>
    <name><![CDATA[runtastic_20120722_0656_VTT]]></name>
    <trkseg>
      <trkpt lat="46.84943" lon="4.77044">
        <ele>194</ele>
        <time>2012-07-22T06:56:05.000Z</time>
      </trkpt>
      <trkpt lat="46.8495" lon="4.77043">
        <ele>194</ele>
        <time>2012-07-22T06:56:22.000Z</time>
      </trkpt>
      <trkpt lat="46.84952" lon="4.77043">
        <ele>194</ele>
        <time>2012-07-22T06:56:24.000Z</time>
      </trkpt>
      <trkpt lat="46.8495" lon="4.77043">
        <ele>194</ele>
        <time>2012-07-22T06:56:30.000Z</time>
      </trkpt>
      <trkpt lat="46.84942" lon="4.77045">
        <ele>194</ele>
        <time>2012-07-22T06:56:36.000Z</time>
      </trkpt>
      <trkpt lat="46.8494" lon="4.77045">
        <ele>194</ele>
        <time>2012-07-22T06:56:38.000Z</time>
      </trkpt>
      <trkpt lat="46.84938" lon="4.77045">
        <ele>194</ele>
        <time>2012-07-22T06:56:42.000Z</time>
      </trkpt>
      <trkpt lat="46.8494" lon="4.77046">
        <ele>194</ele>
        <time>2012-07-22T06:56:44.000Z</time>
      </trkpt>
      <trkpt lat="46.84944" lon="4.77041">
        <ele>194</ele>
        <time>2012-07-22T06:56:46.000Z</time>
      </trkpt>
      <trkpt lat="46.8495" lon="4.77031">
        <ele>194</ele>
        <time>2012-07-22T06:56:50.000Z</time>
      </trkpt>
      <trkpt lat="46.84965" lon="4.77016">
        <ele>194</ele>
        <time>2012-07-22T06:56:58.000Z</time>
      </trkpt>
      <trkpt lat="46.84978" lon="4.76996">
        <ele>194</ele>
        <time>2012-07-22T06:57:06.000Z</time>
      </trkpt>
      <trkpt lat="46.8498" lon="4.76984">
        <ele>194</ele>
        <time>2012-07-22T06:57:08.000Z</time>
      </trkpt>
      <trkpt lat="46.84985" lon="4.76934">
        <ele>195</ele>
        <time>2012-07-22T06:57:18.000Z</time>
      </trkpt>
      <trkpt lat="46.84984" lon="4.76887">
        <ele>195</ele>
        <time>2012-07-22T06:57:26.000Z</time>
      </trkpt>
      <trkpt lat="46.8498" lon="4.76868">
        <ele>195</ele>
        <time>2012-07-22T06:57:30.000Z</time>
      </trkpt>
      <trkpt lat="46.84979" lon="4.76811">
        <ele>195</ele>
        <time>2012-07-22T06:57:39.000Z</time>
      </trkpt>
      <trkpt lat="46.84981" lon="4.768">
        <ele>194</ele>
        <time>2012-07-22T06:57:41.000Z</time>
      </trkpt>
      <trkpt lat="46.84981" lon="4.7677">
        <ele>194</ele>
        <time>2012-07-22T06:57:46.000Z</time>
      </trkpt>
      <trkpt lat="46.84978" lon="4.76746">
        <ele>193</ele>
        <time>2012-07-22T06:57:50.000Z</time>
      </trkpt>
      <trkpt lat="46.84973" lon="4.76675">
        <ele>193</ele>
        <time>2012-07-22T06:58:00.000Z</time>
      </trkpt>
      <trkpt lat="46.84974" lon="4.7666">
        <ele>193</ele>
        <time>2012-07-22T06:58:03.000Z</time>
      </trkpt>
      <trkpt lat="46.84973" lon="4.76639">
        <ele>193</ele>
        <time>2012-07-22T06:58:08.000Z</time>
      </trkpt>
      <trkpt lat="46.84972" lon="4.76585">
        <ele>194</ele>
        <time>2012-07-22T06:58:16.000Z</time>
      </trkpt>
      <trkpt lat="46.84969" lon="4.76584">
        <ele>194</ele>
        <time>2012-07-22T06:58:18.000Z</time>
      </trkpt>
      <trkpt lat="46.84962" lon="4.76579">
        <ele>194</ele>
        <time>2012-07-22T06:58:21.000Z</time>
      </trkpt>
      <trkpt lat="46.84956" lon="4.76567">
        <ele>195</ele>
        <time>2012-07-22T06:58:23.000Z</time>
      </trkpt>
      <trkpt lat="46.84942" lon="4.76549">
        <ele>195</ele>
        <time>2012-07-22T06:58:28.000Z</time>
      </trkpt>
      <trkpt lat="46.84932" lon="4.76546">
        <ele>195</ele>
        <time>2012-07-22T06:58:31.000Z</time>
      </trkpt>
      <trkpt lat="46.84927" lon="4.76546">
        <ele>195</ele>
        <time>2012-07-22T06:58:34.000Z</time>
      </trkpt>
      <trkpt lat="46.84917" lon="4.76543">
        <ele>195</ele>
        <time>2012-07-22T06:58:36.000Z</time>
      </trkpt>
      <trkpt lat="46.84908" lon="4.76537">
        <ele>195</ele>
        <time>2012-07-22T06:58:38.000Z</time>
      </trkpt>
      <trkpt lat="46.84857" lon="4.76518">
        <ele>195</ele>
        <time>2012-07-22T06:58:47.000Z</time>
      </trkpt>
      <trkpt lat="46.84844" lon="4.76516">
        <ele>195</ele>
        <time>2012-07-22T06:58:50.000Z</time>
      </trkpt>
      <trkpt lat="46.8483" lon="4.76509">
        <ele>195</ele>
        <time>2012-07-22T06:58:52.000Z</time>
      </trkpt>
      <trkpt lat="46.84814" lon="4.76509">
        <ele>196</ele>
        <time>2012-07-22T06:58:55.000Z</time>
      </trkpt>
      <trkpt lat="46.84806" lon="4.76507">
        <ele>196</ele>
        <time>2012-07-22T06:58:57.000Z</time>
      </trkpt>
      <trkpt lat="46.84799" lon="4.76501">
        <ele>196</ele>
        <time>2012-07-22T06:58:59.000Z</time>
      </trkpt>
      <trkpt lat="46.84792" lon="4.76493">
        <ele>197</ele>
        <time>2012-07-22T06:59:02.000Z</time>
      </trkpt>
      <trkpt lat="46.84769" lon="4.76468">
        <ele>198</ele>
        <time>2012-07-22T06:59:10.000Z</time>
      </trkpt>
      <trkpt lat="46.84758" lon="4.76462">
        <ele>198</ele>
        <time>2012-07-22T06:59:12.000Z</time>
      </trkpt>
      <trkpt lat="46.84745" lon="4.76459">
        <ele>198</ele>
        <time>2012-07-22T06:59:15.000Z</time>
      </trkpt>
      <trkpt lat="46.84736" lon="4.76459">
        <ele>198</ele>
        <time>2012-07-22T06:59:18.000Z</time>
      </trkpt>
      <trkpt lat="46.84709" lon="4.76452">
        <ele>198</ele>
        <time>2012-07-22T06:59:23.000Z</time>
      </trkpt>
      <trkpt lat="46.84687" lon="4.76443">
        <ele>198</ele>
        <time>2012-07-22T06:59:26.000Z</time>
      </trkpt>
      <trkpt lat="46.84664" lon="4.76429">
        <ele>198</ele>
        <time>2012-07-22T06:59:34.000Z</time>
      </trkpt>
      <trkpt lat="46.84658" lon="4.76413">
        <ele>198</ele>
        <time>2012-07-22T06:59:36.000Z</time>
      </trkpt>
      <trkpt lat="46.84644" lon="4.76349">
        <ele>199</ele>
        <time>2012-07-22T06:59:48.000Z</time>
      </trkpt>
      <trkpt lat="46.84644" lon="4.76333">
        <ele>199</ele>
        <time>2012-07-22T06:59:51.000Z</time>
      </trkpt>
      <trkpt lat="46.84642" lon="4.76279">
        <ele>199</ele>
        <time>2012-07-22T07:00:02.000Z</time>
      </trkpt>
      <trkpt lat="46.84643" lon="4.76254">
        <ele>199</ele>
        <time>2012-07-22T07:00:04.000Z</time>
      </trkpt>
      <trkpt lat="46.84648" lon="4.76243">
        <ele>199</ele>
        <time>2012-07-22T07:00:06.000Z</time>
      </trkpt>
      <trkpt lat="46.84649" lon="4.76234">
        <ele>199</ele>
        <time>2012-07-22T07:00:10.000Z</time>
      </trkpt>
      <trkpt lat="46.84653" lon="4.76226">
        <ele>199</ele>
        <time>2012-07-22T07:00:12.000Z</time>
      </trkpt>
      <trkpt lat="46.84656" lon="4.76217">
        <ele>199</ele>
        <time>2012-07-22T07:00:14.000Z</time>
      </trkpt>
      <trkpt lat="46.84678" lon="4.76158">
        <ele>199</ele>
        <time>2012-07-22T07:00:28.000Z</time>
      </trkpt>
      <trkpt lat="46.847" lon="4.76096">
        <ele>199</ele>
        <time>2012-07-22T07:00:39.000Z</time>
      </trkpt>
      <trkpt lat="46.84704" lon="4.76087">
        <ele>199</ele>
        <time>2012-07-22T07:00:42.000Z</time>
      </trkpt>
      <trkpt lat="46.84715" lon="4.76054">
        <ele>199</ele>
        <time>2012-07-22T07:00:48.000Z</time>
      </trkpt>
      <trkpt lat="46.84719" lon="4.76038">
        <ele>198</ele>
        <time>2012-07-22T07:00:51.000Z</time>
      </trkpt>
      <trkpt lat="46.84732" lon="4.75974">
        <ele>199</ele>
        <time>2012-07-22T07:01:04.000Z</time>
      </trkpt>
      <trkpt lat="46.84734" lon="4.75951">
        <ele>199</ele>
        <time>2012-07-22T07:01:09.000Z</time>
      </trkpt>
      <trkpt lat="46.84735" lon="4.75941">
        <ele>200</ele>
        <time>2012-07-22T07:01:11.000Z</time>
      </trkpt>
      <trkpt lat="46.8474" lon="4.75906">
        <ele>201</ele>
        <time>2012-07-22T07:01:18.000Z</time>
      </trkpt>
      <trkpt lat="46.8474" lon="4.75898">
        <ele>201</ele>
        <time>2012-07-22T07:01:20.000Z</time>
      </trkpt>
      <trkpt lat="46.84741" lon="4.75879">
        <ele>202</ele>
        <time>2012-07-22T07:01:26.000Z</time>
      </trkpt>
      <trkpt lat="46.84745" lon="4.75867">
        <ele>202</ele>
        <time>2012-07-22T07:01:28.000Z</time>
      </trkpt>
      <trkpt lat="46.84745" lon="4.75855">
        <ele>202</ele>
        <time>2012-07-22T07:01:31.000Z</time>
      </trkpt>
      <trkpt lat="46.84745" lon="4.75825">
        <ele>203</ele>
        <time>2012-07-22T07:01:36.000Z</time>
      </trkpt>
      <trkpt lat="46.84742" lon="4.75807">
        <ele>204</ele>
        <time>2012-07-22T07:01:40.000Z</time>
      </trkpt>
      <trkpt lat="46.84735" lon="4.75799">
        <ele>205</ele>
        <time>2012-07-22T07:01:43.000Z</time>
      </trkpt>
      <trkpt lat="46.8473" lon="4.75797">
        <ele>205</ele>
        <time>2012-07-22T07:01:46.000Z</time>
      </trkpt>
      <trkpt lat="46.84721" lon="4.75798">
        <ele>206</ele>
        <time>2012-07-22T07:01:48.000Z</time>
      </trkpt>
      <trkpt lat="46.84711" lon="4.75796">
        <ele>206</ele>
        <time>2012-07-22T07:01:51.000Z</time>
      </trkpt>
      <trkpt lat="46.84705" lon="4.75794">
        <ele>206</ele>
        <time>2012-07-22T07:01:54.000Z</time>
      </trkpt>
      <trkpt lat="46.84674" lon="4.75779">
        <ele>206</ele>
        <time>2012-07-22T07:02:02.000Z</time>
      </trkpt>
      <trkpt lat="46.84662" lon="4.75768">
        <ele>207</ele>
        <time>2012-07-22T07:02:04.000Z</time>
      </trkpt>
      <trkpt lat="46.84618" lon="4.75721">
        <ele>207</ele>
        <time>2012-07-22T07:02:15.000Z</time>
      </trkpt>
      <trkpt lat="46.846" lon="4.75708">
        <ele>207</ele>
        <time>2012-07-22T07:02:20.000Z</time>
      </trkpt>
      <trkpt lat="46.8459" lon="4.75702">
        <ele>206</ele>
        <time>2012-07-22T07:02:23.000Z</time>
      </trkpt>
      <trkpt lat="46.84546" lon="4.75679">
        <ele>206</ele>
        <time>2012-07-22T07:02:34.000Z</time>
      </trkpt>
      <trkpt lat="46.84532" lon="4.7567">
        <ele>205</ele>
        <time>2012-07-22T07:02:38.000Z</time>
      </trkpt>
      <trkpt lat="46.84515" lon="4.75662">
        <ele>205</ele>
        <time>2012-07-22T07:02:40.000Z</time>
      </trkpt>
      <trkpt lat="46.84495" lon="4.75649">
        <ele>205</ele>
        <time>2012-07-22T07:02:44.000Z</time>
      </trkpt>
      <trkpt lat="46.84481" lon="4.75644">
        <ele>206</ele>
        <time>2012-07-22T07:02:47.000Z</time>
      </trkpt>
      <trkpt lat="46.8447" lon="4.75641">
        <ele>206</ele>
        <time>2012-07-22T07:02:50.000Z</time>
      </trkpt>
      <trkpt lat="46.84458" lon="4.75634">
        <ele>206</ele>
        <time>2012-07-22T07:02:52.000Z</time>
      </trkpt>
      <trkpt lat="46.84457" lon="4.75626">
        <ele>206</ele>
        <time>2012-07-22T07:02:54.000Z</time>
      </trkpt>
      <trkpt lat="46.84457" lon="4.75614">
        <ele>206</ele>
        <time>2012-07-22T07:02:56.000Z</time>
      </trkpt>
      <trkpt lat="46.84457" lon="4.75599">
        <ele>207</ele>
        <time>2012-07-22T07:02:59.000Z</time>
      </trkpt>
      <trkpt lat="46.8446" lon="4.75589">
        <ele>207</ele>
        <time>2012-07-22T07:03:02.000Z</time>
      </trkpt>
      <trkpt lat="46.84467" lon="4.75573">
        <ele>207</ele>
        <time>2012-07-22T07:03:04.000Z</time>
      </trkpt>
      <trkpt lat="46.84475" lon="4.75548">
        <ele>208</ele>
        <time>2012-07-22T07:03:10.000Z</time>
      </trkpt>
      <trkpt lat="46.84477" lon="4.75534">
        <ele>208</ele>
        <time>2012-07-22T07:03:12.000Z</time>
      </trkpt>
      <trkpt lat="46.84476" lon="4.75509">
        <ele>209</ele>
        <time>2012-07-22T07:03:17.000Z</time>
      </trkpt>
      <trkpt lat="46.84474" lon="4.75499">
        <ele>209</ele>
        <time>2012-07-22T07:03:19.000Z</time>
      </trkpt>
      <trkpt lat="46.84467" lon="4.75482">
        <ele>210</ele>
        <time>2012-07-22T07:03:23.000Z</time>
      </trkpt>
      <trkpt lat="46.8446" lon="4.75469">
        <ele>210</ele>
        <time>2012-07-22T07:03:26.000Z</time>
      </trkpt>
      <trkpt lat="46.84429" lon="4.75405">
        <ele>210</ele>
        <time>2012-07-22T07:03:39.000Z</time>
      </trkpt>
      <trkpt lat="46.84428" lon="4.75397">
        <ele>210</ele>
        <time>2012-07-22T07:03:42.000Z</time>
      </trkpt>
      <trkpt lat="46.84431" lon="4.75382">
        <ele>211</ele>
        <time>2012-07-22T07:03:45.000Z</time>
      </trkpt>
      <trkpt lat="46.84423" lon="4.75372">
        <ele>211</ele>
        <time>2012-07-22T07:03:47.000Z</time>
      </trkpt>
      <trkpt lat="46.84421" lon="4.75364">
        <ele>211</ele>
        <time>2012-07-22T07:03:50.000Z</time>
      </trkpt>
      <trkpt lat="46.84406" lon="4.75334">
        <ele>212</ele>
        <time>2012-07-22T07:03:58.000Z</time>
      </trkpt>
      <trkpt lat="46.8439" lon="4.75285">
        <ele>213</ele>
        <time>2012-07-22T07:04:08.000Z</time>
      </trkpt>
      <trkpt lat="46.84389" lon="4.75275">
        <ele>213</ele>
        <time>2012-07-22T07:04:10.000Z</time>
      </trkpt>
      <trkpt lat="46.8439" lon="4.75263">
        <ele>213</ele>
        <time>2012-07-22T07:04:14.000Z</time>
      </trkpt>
      <trkpt lat="46.84391" lon="4.75252">
        <ele>214</ele>
        <time>2012-07-22T07:04:16.000Z</time>
      </trkpt>
      <trkpt lat="46.844" lon="4.75221">
        <ele>215</ele>
        <time>2012-07-22T07:04:24.000Z</time>
      </trkpt>
      <trkpt lat="46.84404" lon="4.75187">
        <ele>215</ele>
        <time>2012-07-22T07:04:32.000Z</time>
      </trkpt>
      <trkpt lat="46.84404" lon="4.75177">
        <ele>215</ele>
        <time>2012-07-22T07:04:35.000Z</time>
      </trkpt>
      <trkpt lat="46.84404" lon="4.75145">
        <ele>216</ele>
        <time>2012-07-22T07:04:43.000Z</time>
      </trkpt>
      <trkpt lat="46.84404" lon="4.75137">
        <ele>216</ele>
        <time>2012-07-22T07:04:45.000Z</time>
      </trkpt>
      <trkpt lat="46.84391" lon="4.75072">
        <ele>216</ele>
        <time>2012-07-22T07:04:59.000Z</time>
      </trkpt>
      <trkpt lat="46.84384" lon="4.75061">
        <ele>216</ele>
        <time>2012-07-22T07:05:02.000Z</time>
      </trkpt>
      <trkpt lat="46.84378" lon="4.75048">
        <ele>216</ele>
        <time>2012-07-22T07:05:05.000Z</time>
      </trkpt>
      <trkpt lat="46.84375" lon="4.75035">
        <ele>217</ele>
        <time>2012-07-22T07:05:07.000Z</time>
      </trkpt>
      <trkpt lat="46.84375" lon="4.75026">
        <ele>217</ele>
        <time>2012-07-22T07:05:10.000Z</time>
      </trkpt>
      <trkpt lat="46.84376" lon="4.75014">
        <ele>217</ele>
        <time>2012-07-22T07:05:12.000Z</time>
      </trkpt>
      <trkpt lat="46.84378" lon="4.74971">
        <ele>218</ele>
        <time>2012-07-22T07:05:22.000Z</time>
      </trkpt>
      <trkpt lat="46.84375" lon="4.74965">
        <ele>218</ele>
        <time>2012-07-22T07:05:24.000Z</time>
      </trkpt>
      <trkpt lat="46.84368" lon="4.74959">
        <ele>218</ele>
        <time>2012-07-22T07:05:27.000Z</time>
      </trkpt>
      <trkpt lat="46.84362" lon="4.74955">
        <ele>219</ele>
        <time>2012-07-22T07:05:30.000Z</time>
      </trkpt>
      <trkpt lat="46.84317" lon="4.74909">
        <ele>219</ele>
        <time>2012-07-22T07:05:43.000Z</time>
      </trkpt>
      <trkpt lat="46.84303" lon="4.7489">
        <ele>219</ele>
        <time>2012-07-22T07:05:48.000Z</time>
      </trkpt>
      <trkpt lat="46.84298" lon="4.7488">
        <ele>219</ele>
        <time>2012-07-22T07:05:50.000Z</time>
      </trkpt>
      <trkpt lat="46.84293" lon="4.74865">
        <ele>220</ele>
        <time>2012-07-22T07:05:53.000Z</time>
      </trkpt>
      <trkpt lat="46.8429" lon="4.74849">
        <ele>220</ele>
        <time>2012-07-22T07:05:56.000Z</time>
      </trkpt>
      <trkpt lat="46.84291" lon="4.74834">
        <ele>220</ele>
        <time>2012-07-22T07:05:59.000Z</time>
      </trkpt>
      <trkpt lat="46.84293" lon="4.7482">
        <ele>221</ele>
        <time>2012-07-22T07:06:02.000Z</time>
      </trkpt>
      <trkpt lat="46.84293" lon="4.74794">
        <ele>222</ele>
        <time>2012-07-22T07:06:08.000Z</time>
      </trkpt>
      <trkpt lat="46.84289" lon="4.74786">
        <ele>222</ele>
        <time>2012-07-22T07:06:10.000Z</time>
      </trkpt>
      <trkpt lat="46.84284" lon="4.74779">
        <ele>223</ele>
        <time>2012-07-22T07:06:12.000Z</time>
      </trkpt>
      <trkpt lat="46.84253" lon="4.74729">
        <ele>222</ele>
        <time>2012-07-22T07:06:26.000Z</time>
      </trkpt>
      <trkpt lat="46.84245" lon="4.74716">
        <ele>223</ele>
        <time>2012-07-22T07:06:28.000Z</time>
      </trkpt>
      <trkpt lat="46.8423" lon="4.74695">
        <ele>223</ele>
        <time>2012-07-22T07:06:34.000Z</time>
      </trkpt>
      <trkpt lat="46.84219" lon="4.74685">
        <ele>223</ele>
        <time>2012-07-22T07:06:36.000Z</time>
      </trkpt>
      <trkpt lat="46.84211" lon="4.74679">
        <ele>224</ele>
        <time>2012-07-22T07:06:38.000Z</time>
      </trkpt>
      <trkpt lat="46.84163" lon="4.74644">
        <ele>224</ele>
        <time>2012-07-22T07:06:54.000Z</time>
      </trkpt>
      <trkpt lat="46.84145" lon="4.74627">
        <ele>224</ele>
        <time>2012-07-22T07:07:00.000Z</time>
      </trkpt>
      <trkpt lat="46.8413" lon="4.74617">
        <ele>224</ele>
        <time>2012-07-22T07:07:06.000Z</time>
      </trkpt>
      <trkpt lat="46.84121" lon="4.74611">
        <ele>225</ele>
        <time>2012-07-22T07:07:10.000Z</time>
      </trkpt>
      <trkpt lat="46.84111" lon="4.74603">
        <ele>225</ele>
        <time>2012-07-22T07:07:12.000Z</time>
      </trkpt>
      <trkpt lat="46.84086" lon="4.74582">
        <ele>226</ele>
        <time>2012-07-22T07:07:20.000Z</time>
      </trkpt>
      <trkpt lat="46.84061" lon="4.7456">
        <ele>227</ele>
        <time>2012-07-22T07:07:28.000Z</time>
      </trkpt>
      <trkpt lat="46.84048" lon="4.74546">
        <ele>228</ele>
        <time>2012-07-22T07:07:34.000Z</time>
      </trkpt>
      <trkpt lat="46.84034" lon="4.74533">
        <ele>229</ele>
        <time>2012-07-22T07:07:38.000Z</time>
      </trkpt>
      <trkpt lat="46.84015" lon="4.74518">
        <ele>230</ele>
        <time>2012-07-22T07:07:45.000Z</time>
      </trkpt>
      <trkpt lat="46.8401" lon="4.74516">
        <ele>230</ele>
        <time>2012-07-22T07:07:47.000Z</time>
      </trkpt>
      <trkpt lat="46.84006" lon="4.74513">
        <ele>230</ele>
        <time>2012-07-22T07:07:50.000Z</time>
      </trkpt>
      <trkpt lat="46.83995" lon="4.74507">
        <ele>231</ele>
        <time>2012-07-22T07:07:54.000Z</time>
      </trkpt>
      <trkpt lat="46.83973" lon="4.74491">
        <ele>231</ele>
        <time>2012-07-22T07:08:03.000Z</time>
      </trkpt>
      <trkpt lat="46.83968" lon="4.74481">
        <ele>232</ele>
        <time>2012-07-22T07:08:07.000Z</time>
      </trkpt>
      <trkpt lat="46.8396" lon="4.74462">
        <ele>233</ele>
        <time>2012-07-22T07:08:11.000Z</time>
      </trkpt>
      <trkpt lat="46.83958" lon="4.74452">
        <ele>234</ele>
        <time>2012-07-22T07:08:14.000Z</time>
      </trkpt>
      <trkpt lat="46.83953" lon="4.7443">
        <ele>235</ele>
        <time>2012-07-22T07:08:18.000Z</time>
      </trkpt>
      <trkpt lat="46.83951" lon="4.74424">
        <ele>236</ele>
        <time>2012-07-22T07:08:20.000Z</time>
      </trkpt>
      <trkpt lat="46.83947" lon="4.7442">
        <ele>236</ele>
        <time>2012-07-22T07:08:22.000Z</time>
      </trkpt>
      <trkpt lat="46.83943" lon="4.74415">
        <ele>237</ele>
        <time>2012-07-22T07:08:25.000Z</time>
      </trkpt>
      <trkpt lat="46.83934" lon="4.74409">
        <ele>238</ele>
        <time>2012-07-22T07:08:31.000Z</time>
      </trkpt>
      <trkpt lat="46.83927" lon="4.74405">
        <ele>238</ele>
        <time>2012-07-22T07:08:33.000Z</time>
      </trkpt>
      <trkpt lat="46.83923" lon="4.74402">
        <ele>238</ele>
        <time>2012-07-22T07:08:36.000Z</time>
      </trkpt>
      <trkpt lat="46.8392" lon="4.74402">
        <ele>239</ele>
        <time>2012-07-22T07:08:38.000Z</time>
      </trkpt>
      <trkpt lat="46.83915" lon="4.74404">
        <ele>239</ele>
        <time>2012-07-22T07:08:42.000Z</time>
      </trkpt>
      <trkpt lat="46.83909" lon="4.74405">
        <ele>239</ele>
        <time>2012-07-22T07:08:44.000Z</time>
      </trkpt>
      <trkpt lat="46.83902" lon="4.74401">
        <ele>239</ele>
        <time>2012-07-22T07:08:47.000Z</time>
      </trkpt>
      <trkpt lat="46.83892" lon="4.74395">
        <ele>239</ele>
        <time>2012-07-22T07:08:50.000Z</time>
      </trkpt>
      <trkpt lat="46.83875" lon="4.74388">
        <ele>239</ele>
        <time>2012-07-22T07:08:55.000Z</time>
      </trkpt>
      <trkpt lat="46.83868" lon="4.74386">
        <ele>239</ele>
        <time>2012-07-22T07:08:58.000Z</time>
      </trkpt>
      <trkpt lat="46.83859" lon="4.74383">
        <ele>240</ele>
        <time>2012-07-22T07:09:00.000Z</time>
      </trkpt>
      <trkpt lat="46.83816" lon="4.74363">
        <ele>241</ele>
        <time>2012-07-22T07:09:14.000Z</time>
      </trkpt>
      <trkpt lat="46.83778" lon="4.74346">
        <ele>242</ele>
        <time>2012-07-22T07:09:24.000Z</time>
      </trkpt>
      <trkpt lat="46.83767" lon="4.74343">
        <ele>242</ele>
        <time>2012-07-22T07:09:27.000Z</time>
      </trkpt>
      <trkpt lat="46.83743" lon="4.74332">
        <ele>242</ele>
        <time>2012-07-22T07:09:34.000Z</time>
      </trkpt>
      <trkpt lat="46.83737" lon="4.74326">
        <ele>242</ele>
        <time>2012-07-22T07:09:36.000Z</time>
      </trkpt>
      <trkpt lat="46.83729" lon="4.7432">
        <ele>242</ele>
        <time>2012-07-22T07:09:39.000Z</time>
      </trkpt>
      <trkpt lat="46.83714" lon="4.74301">
        <ele>242</ele>
        <time>2012-07-22T07:09:44.000Z</time>
      </trkpt>
      <trkpt lat="46.8369" lon="4.74272">
        <ele>243</ele>
        <time>2012-07-22T07:09:54.000Z</time>
      </trkpt>
      <trkpt lat="46.83685" lon="4.74261">
        <ele>243</ele>
        <time>2012-07-22T07:09:56.000Z</time>
      </trkpt>
      <trkpt lat="46.83686" lon="4.74253">
        <ele>243</ele>
        <time>2012-07-22T07:09:58.000Z</time>
      </trkpt>
      <trkpt lat="46.83692" lon="4.74241">
        <ele>243</ele>
        <time>2012-07-22T07:10:01.000Z</time>
      </trkpt>
      <trkpt lat="46.83698" lon="4.74228">
        <ele>244</ele>
        <time>2012-07-22T07:10:04.000Z</time>
      </trkpt>
      <trkpt lat="46.83712" lon="4.74194">
        <ele>245</ele>
        <time>2012-07-22T07:10:12.000Z</time>
      </trkpt>
      <trkpt lat="46.83721" lon="4.74179">
        <ele>245</ele>
        <time>2012-07-22T07:10:18.000Z</time>
      </trkpt>
      <trkpt lat="46.83732" lon="4.74184">
        <ele>245</ele>
        <time>2012-07-22T07:10:20.000Z</time>
      </trkpt>
      <trkpt lat="46.83741" lon="4.74187">
        <ele>246</ele>
        <time>2012-07-22T07:10:22.000Z</time>
      </trkpt>
      <trkpt lat="46.83749" lon="4.74189">
        <ele>246</ele>
        <time>2012-07-22T07:10:24.000Z</time>
      </trkpt>
      <trkpt lat="46.83762" lon="4.74188">
        <ele>246</ele>
        <time>2012-07-22T07:10:27.000Z</time>
      </trkpt>
      <trkpt lat="46.83771" lon="4.74185">
        <ele>246</ele>
        <time>2012-07-22T07:10:30.000Z</time>
      </trkpt>
      <trkpt lat="46.8382" lon="4.7417">
        <ele>246</ele>
        <time>2012-07-22T07:10:40.000Z</time>
      </trkpt>
      <trkpt lat="46.83831" lon="4.7417">
        <ele>246</ele>
        <time>2012-07-22T07:10:43.000Z</time>
      </trkpt>
      <trkpt lat="46.83839" lon="4.74172">
        <ele>246</ele>
        <time>2012-07-22T07:10:45.000Z</time>
      </trkpt>
      <trkpt lat="46.83846" lon="4.74175">
        <ele>246</ele>
        <time>2012-07-22T07:10:47.000Z</time>
      </trkpt>
      <trkpt lat="46.83891" lon="4.74193">
        <ele>247</ele>
        <time>2012-07-22T07:10:58.000Z</time>
      </trkpt>
      <trkpt lat="46.83901" lon="4.74195">
        <ele>247</ele>
        <time>2012-07-22T07:11:01.000Z</time>
      </trkpt>
      <trkpt lat="46.83939" lon="4.74198">
        <ele>247</ele>
        <time>2012-07-22T07:11:12.000Z</time>
      </trkpt>
      <trkpt lat="46.83947" lon="4.74197">
        <ele>247</ele>
        <time>2012-07-22T07:11:14.000Z</time>
      </trkpt>
      <trkpt lat="46.83957" lon="4.74191">
        <ele>247</ele>
        <time>2012-07-22T07:11:17.000Z</time>
      </trkpt>
      <trkpt lat="46.83966" lon="4.74181">
        <ele>248</ele>
        <time>2012-07-22T07:11:20.000Z</time>
      </trkpt>
      <trkpt lat="46.83979" lon="4.74164">
        <ele>248</ele>
        <time>2012-07-22T07:11:26.000Z</time>
      </trkpt>
      <trkpt lat="46.83985" lon="4.74152">
        <ele>248</ele>
        <time>2012-07-22T07:11:28.000Z</time>
      </trkpt>
      <trkpt lat="46.83988" lon="4.74145">
        <ele>249</ele>
        <time>2012-07-22T07:11:30.000Z</time>
      </trkpt>
      <trkpt lat="46.83997" lon="4.74116">
        <ele>250</ele>
        <time>2012-07-22T07:11:38.000Z</time>
      </trkpt>
      <trkpt lat="46.84002" lon="4.74105">
        <ele>250</ele>
        <time>2012-07-22T07:11:40.000Z</time>
      </trkpt>
      <trkpt lat="46.84014" lon="4.74086">
        <ele>250</ele>
        <time>2012-07-22T07:11:46.000Z</time>
      </trkpt>
      <trkpt lat="46.84021" lon="4.74079">
        <ele>251</ele>
        <time>2012-07-22T07:11:48.000Z</time>
      </trkpt>
      <trkpt lat="46.8406" lon="4.7404">
        <ele>251</ele>
        <time>2012-07-22T07:11:59.000Z</time>
      </trkpt>
      <trkpt lat="46.84098" lon="4.74002">
        <ele>252</ele>
        <time>2012-07-22T07:12:14.000Z</time>
      </trkpt>
      <trkpt lat="46.84113" lon="4.73983">
        <ele>252</ele>
        <time>2012-07-22T07:12:18.000Z</time>
      </trkpt>
      <trkpt lat="46.84118" lon="4.73974">
        <ele>252</ele>
        <time>2012-07-22T07:12:20.000Z</time>
      </trkpt>
      <trkpt lat="46.84127" lon="4.7395">
        <ele>252</ele>
        <time>2012-07-22T07:12:27.000Z</time>
      </trkpt>
      <trkpt lat="46.84129" lon="4.73931">
        <ele>253</ele>
        <time>2012-07-22T07:12:29.000Z</time>
      </trkpt>
      <trkpt lat="46.8414" lon="4.7389">
        <ele>254</ele>
        <time>2012-07-22T07:12:38.000Z</time>
      </trkpt>
      <trkpt lat="46.84145" lon="4.73876">
        <ele>254</ele>
        <time>2012-07-22T07:12:40.000Z</time>
      </trkpt>
      <trkpt lat="46.84149" lon="4.73867">
        <ele>255</ele>
        <time>2012-07-22T07:12:42.000Z</time>
      </trkpt>
      <trkpt lat="46.84161" lon="4.73842">
        <ele>256</ele>
        <time>2012-07-22T07:12:49.000Z</time>
      </trkpt>
      <trkpt lat="46.84162" lon="4.73836">
        <ele>256</ele>
        <time>2012-07-22T07:12:51.000Z</time>
      </trkpt>
      <trkpt lat="46.84162" lon="4.73831">
        <ele>256</ele>
        <time>2012-07-22T07:12:54.000Z</time>
      </trkpt>
      <trkpt lat="46.84158" lon="4.73826">
        <ele>257</ele>
        <time>2012-07-22T07:12:56.000Z</time>
      </trkpt>
      <trkpt lat="46.84153" lon="4.73821">
        <ele>257</ele>
        <time>2012-07-22T07:12:59.000Z</time>
      </trkpt>
      <trkpt lat="46.84114" lon="4.73781">
        <ele>257</ele>
        <time>2012-07-22T07:13:10.000Z</time>
      </trkpt>
      <trkpt lat="46.84108" lon="4.73773">
        <ele>256</ele>
        <time>2012-07-22T07:13:13.000Z</time>
      </trkpt>
      <trkpt lat="46.84099" lon="4.73746">
        <ele>256</ele>
        <time>2012-07-22T07:13:18.000Z</time>
      </trkpt>
      <trkpt lat="46.84095" lon="4.73726">
        <ele>256</ele>
        <time>2012-07-22T07:13:20.000Z</time>
      </trkpt>
      <trkpt lat="46.8409" lon="4.73696">
        <ele>257</ele>
        <time>2012-07-22T07:13:27.000Z</time>
      </trkpt>
      <trkpt lat="46.84092" lon="4.73689">
        <ele>257</ele>
        <time>2012-07-22T07:13:30.000Z</time>
      </trkpt>
      <trkpt lat="46.841" lon="4.73669">
        <ele>258</ele>
        <time>2012-07-22T07:13:35.000Z</time>
      </trkpt>
      <trkpt lat="46.84106" lon="4.73657">
        <ele>259</ele>
        <time>2012-07-22T07:13:40.000Z</time>
      </trkpt>
      <trkpt lat="46.8411" lon="4.73653">
        <ele>259</ele>
        <time>2012-07-22T07:13:42.000Z</time>
      </trkpt>
      <trkpt lat="46.84125" lon="4.73637">
        <ele>260</ele>
        <time>2012-07-22T07:13:48.000Z</time>
      </trkpt>
      <trkpt lat="46.8413" lon="4.7363">
        <ele>260</ele>
        <time>2012-07-22T07:13:50.000Z</time>
      </trkpt>
      <trkpt lat="46.84137" lon="4.73621">
        <ele>261</ele>
        <time>2012-07-22T07:13:53.000Z</time>
      </trkpt>
      <trkpt lat="46.84144" lon="4.73614">
        <ele>261</ele>
        <time>2012-07-22T07:13:56.000Z</time>
      </trkpt>
      <trkpt lat="46.84148" lon="4.7361">
        <ele>262</ele>
        <time>2012-07-22T07:13:58.000Z</time>
      </trkpt>
      <trkpt lat="46.84154" lon="4.73608">
        <ele>262</ele>
        <time>2012-07-22T07:14:00.000Z</time>
      </trkpt>
      <trkpt lat="46.84159" lon="4.73608">
        <ele>263</ele>
        <time>2012-07-22T07:14:03.000Z</time>
      </trkpt>
      <trkpt lat="46.84166" lon="4.73609">
        <ele>263</ele>
        <time>2012-07-22T07:14:05.000Z</time>
      </trkpt>
      <trkpt lat="46.84169" lon="4.73611">
        <ele>264</ele>
        <time>2012-07-22T07:14:07.000Z</time>
      </trkpt>
      <trkpt lat="46.84174" lon="4.73611">
        <ele>264</ele>
        <time>2012-07-22T07:14:10.000Z</time>
      </trkpt>
      <trkpt lat="46.8418" lon="4.7361">
        <ele>265</ele>
        <time>2012-07-22T07:14:12.000Z</time>
      </trkpt>
      <trkpt lat="46.84185" lon="4.73608">
        <ele>265</ele>
        <time>2012-07-22T07:14:15.000Z</time>
      </trkpt>
      <trkpt lat="46.84194" lon="4.73607">
        <ele>266</ele>
        <time>2012-07-22T07:14:17.000Z</time>
      </trkpt>
      <trkpt lat="46.8421" lon="4.73606">
        <ele>267</ele>
        <time>2012-07-22T07:14:22.000Z</time>
      </trkpt>
      <trkpt lat="46.84216" lon="4.73606">
        <ele>268</ele>
        <time>2012-07-22T07:14:24.000Z</time>
      </trkpt>
      <trkpt lat="46.84223" lon="4.73606">
        <ele>269</ele>
        <time>2012-07-22T07:14:27.000Z</time>
      </trkpt>
      <trkpt lat="46.84227" lon="4.73606">
        <ele>270</ele>
        <time>2012-07-22T07:14:30.000Z</time>
      </trkpt>
      <trkpt lat="46.84232" lon="4.73604">
        <ele>270</ele>
        <time>2012-07-22T07:14:32.000Z</time>
      </trkpt>
      <trkpt lat="46.84234" lon="4.73602">
        <ele>271</ele>
        <time>2012-07-22T07:14:35.000Z</time>
      </trkpt>
      <trkpt lat="46.84235" lon="4.73595">
        <ele>271</ele>
        <time>2012-07-22T07:14:37.000Z</time>
      </trkpt>
      <trkpt lat="46.84235" lon="4.73588">
        <ele>272</ele>
        <time>2012-07-22T07:14:41.000Z</time>
      </trkpt>
      <trkpt lat="46.84234" lon="4.73584">
        <ele>273</ele>
        <time>2012-07-22T07:14:43.000Z</time>
      </trkpt>
      <trkpt lat="46.84232" lon="4.73582">
        <ele>273</ele>
        <time>2012-07-22T07:14:48.000Z</time>
      </trkpt>
      <trkpt lat="46.8423" lon="4.73579">
        <ele>274</ele>
        <time>2012-07-22T07:14:51.000Z</time>
      </trkpt>
      <trkpt lat="46.84229" lon="4.73579">
        <ele>274</ele>
        <time>2012-07-22T07:14:55.000Z</time>
      </trkpt>
      <trkpt lat="46.84229" lon="4.7358">
        <ele>274</ele>
        <time>2012-07-22T07:14:58.000Z</time>
      </trkpt>
      <trkpt lat="46.8423" lon="4.73584">
        <ele>274</ele>
        <time>2012-07-22T07:15:16.000Z</time>
      </trkpt>
      <trkpt lat="46.8423" lon="4.73582">
        <ele>274</ele>
        <time>2012-07-22T07:15:19.000Z</time>
      </trkpt>
      <trkpt lat="46.8423" lon="4.73582">
        <ele>274</ele>
        <time>2012-07-22T07:15:39.000Z</time>
      </trkpt>
      <trkpt lat="46.84229" lon="4.73584">
        <ele>273</ele>
        <time>2012-07-22T07:15:40.000Z</time>
      </trkpt>
      <trkpt lat="46.8423" lon="4.73582">
        <ele>273</ele>
        <time>2012-07-22T07:15:42.000Z</time>
      </trkpt>
      <trkpt lat="46.84231" lon="4.73582">
        <ele>273</ele>
        <time>2012-07-22T07:15:44.000Z</time>
      </trkpt>
      <trkpt lat="46.84231" lon="4.73582">
        <ele>273</ele>
        <time>2012-07-22T07:16:05.000Z</time>
      </trkpt>
      <trkpt lat="46.84229" lon="4.73584">
        <ele>273</ele>
        <time>2012-07-22T07:16:07.000Z</time>
      </trkpt>
      <trkpt lat="46.84228" lon="4.73582">
        <ele>273</ele>
        <time>2012-07-22T07:16:10.000Z</time>
      </trkpt>
      <trkpt lat="46.8423" lon="4.73577">
        <ele>273</ele>
        <time>2012-07-22T07:16:13.000Z</time>
      </trkpt>
      <trkpt lat="46.84233" lon="4.73574">
        <ele>274</ele>
        <time>2012-07-22T07:16:15.000Z</time>
      </trkpt>
      <trkpt lat="46.8424" lon="4.73566">
        <ele>275</ele>
        <time>2012-07-22T07:16:20.000Z</time>
      </trkpt>
      <trkpt lat="46.84241" lon="4.73568">
        <ele>275</ele>
        <time>2012-07-22T07:16:24.000Z</time>
      </trkpt>
      <trkpt lat="46.84242" lon="4.73567">
        <ele>276</ele>
        <time>2012-07-22T07:16:26.000Z</time>
      </trkpt>
      <trkpt lat="46.84244" lon="4.73566">
        <ele>276</ele>
        <time>2012-07-22T07:16:29.000Z</time>
      </trkpt>
      <trkpt lat="46.84245" lon="4.73565">
        <ele>277</ele>
        <time>2012-07-22T07:16:31.000Z</time>
      </trkpt>
      <trkpt lat="46.84251" lon="4.73558">
        <ele>278</ele>
        <time>2012-07-22T07:16:38.000Z</time>
      </trkpt>
      <trkpt lat="46.84255" lon="4.73551">
        <ele>278</ele>
        <time>2012-07-22T07:16:41.000Z</time>
      </trkpt>
      <trkpt lat="46.84258" lon="4.73544">
        <ele>279</ele>
        <time>2012-07-22T07:16:44.000Z</time>
      </trkpt>
      <trkpt lat="46.84264" lon="4.7353">
        <ele>280</ele>
        <time>2012-07-22T07:16:50.000Z</time>
      </trkpt>
      <trkpt lat="46.84266" lon="4.7352">
        <ele>280</ele>
        <time>2012-07-22T07:16:52.000Z</time>
      </trkpt>
      <trkpt lat="46.84266" lon="4.73518">
        <ele>281</ele>
        <time>2012-07-22T07:16:54.000Z</time>
      </trkpt>
      <trkpt lat="46.84265" lon="4.73517">
        <ele>281</ele>
        <time>2012-07-22T07:16:56.000Z</time>
      </trkpt>
      <trkpt lat="46.84265" lon="4.73514">
        <ele>282</ele>
        <time>2012-07-22T07:16:58.000Z</time>
      </trkpt>
      <trkpt lat="46.84267" lon="4.7351">
        <ele>282</ele>
        <time>2012-07-22T07:17:01.000Z</time>
      </trkpt>
      <trkpt lat="46.8427" lon="4.73503">
        <ele>282</ele>
        <time>2012-07-22T07:17:04.000Z</time>
      </trkpt>
      <trkpt lat="46.84273" lon="4.73495">
        <ele>283</ele>
        <time>2012-07-22T07:17:07.000Z</time>
      </trkpt>
      <trkpt lat="46.84277" lon="4.7349">
        <ele>283</ele>
        <time>2012-07-22T07:17:10.000Z</time>
      </trkpt>
      <trkpt lat="46.84282" lon="4.73481">
        <ele>284</ele>
        <time>2012-07-22T07:17:12.000Z</time>
      </trkpt>
      <trkpt lat="46.84293" lon="4.73465">
        <ele>285</ele>
        <time>2012-07-22T07:17:22.000Z</time>
      </trkpt>
      <trkpt lat="46.84305" lon="4.73444">
        <ele>286</ele>
        <time>2012-07-22T07:17:32.000Z</time>
      </trkpt>
      <trkpt lat="46.84317" lon="4.73416">
        <ele>287</ele>
        <time>2012-07-22T07:17:39.000Z</time>
      </trkpt>
      <trkpt lat="46.8432" lon="4.73407">
        <ele>288</ele>
        <time>2012-07-22T07:17:42.000Z</time>
      </trkpt>
      <trkpt lat="46.84322" lon="4.73389">
        <ele>289</ele>
        <time>2012-07-22T07:17:44.000Z</time>
      </trkpt>
      <trkpt lat="46.84323" lon="4.73378">
        <ele>290</ele>
        <time>2012-07-22T07:17:46.000Z</time>
      </trkpt>
      <trkpt lat="46.84322" lon="4.73372">
        <ele>291</ele>
        <time>2012-07-22T07:17:49.000Z</time>
      </trkpt>
      <trkpt lat="46.84318" lon="4.73365">
        <ele>292</ele>
        <time>2012-07-22T07:17:51.000Z</time>
      </trkpt>
      <trkpt lat="46.84316" lon="4.73363">
        <ele>293</ele>
        <time>2012-07-22T07:17:53.000Z</time>
      </trkpt>
      <trkpt lat="46.84312" lon="4.73357">
        <ele>294</ele>
        <time>2012-07-22T07:17:59.000Z</time>
      </trkpt>
      <trkpt lat="46.84311" lon="4.73354">
        <ele>294</ele>
        <time>2012-07-22T07:18:02.000Z</time>
      </trkpt>
      <trkpt lat="46.8431" lon="4.73346">
        <ele>294</ele>
        <time>2012-07-22T07:18:04.000Z</time>
      </trkpt>
      <trkpt lat="46.84309" lon="4.73341">
        <ele>295</ele>
        <time>2012-07-22T07:18:06.000Z</time>
      </trkpt>
      <trkpt lat="46.84309" lon="4.73331">
        <ele>295</ele>
        <time>2012-07-22T07:18:10.000Z</time>
      </trkpt>
      <trkpt lat="46.84309" lon="4.73327">
        <ele>296</ele>
        <time>2012-07-22T07:18:12.000Z</time>
      </trkpt>
      <trkpt lat="46.84306" lon="4.73316">
        <ele>297</ele>
        <time>2012-07-22T07:18:14.000Z</time>
      </trkpt>
      <trkpt lat="46.84301" lon="4.73305">
        <ele>298</ele>
        <time>2012-07-22T07:18:20.000Z</time>
      </trkpt>
      <trkpt lat="46.84296" lon="4.73301">
        <ele>298</ele>
        <time>2012-07-22T07:18:22.000Z</time>
      </trkpt>
      <trkpt lat="46.84291" lon="4.73296">
        <ele>299</ele>
        <time>2012-07-22T07:18:26.000Z</time>
      </trkpt>
      <trkpt lat="46.84281" lon="4.73285">
        <ele>300</ele>
        <time>2012-07-22T07:18:31.000Z</time>
      </trkpt>
      <trkpt lat="46.84267" lon="4.73277">
        <ele>300</ele>
        <time>2012-07-22T07:18:36.000Z</time>
      </trkpt>
      <trkpt lat="46.84264" lon="4.73273">
        <ele>301</ele>
        <time>2012-07-22T07:18:39.000Z</time>
      </trkpt>
      <trkpt lat="46.84264" lon="4.73271">
        <ele>301</ele>
        <time>2012-07-22T07:18:42.000Z</time>
      </trkpt>
      <trkpt lat="46.84265" lon="4.73267">
        <ele>301</ele>
        <time>2012-07-22T07:18:44.000Z</time>
      </trkpt>
      <trkpt lat="46.8427" lon="4.73261">
        <ele>301</ele>
        <time>2012-07-22T07:18:47.000Z</time>
      </trkpt>
      <trkpt lat="46.84272" lon="4.73259">
        <ele>302</ele>
        <time>2012-07-22T07:18:50.000Z</time>
      </trkpt>
      <trkpt lat="46.84275" lon="4.73255">
        <ele>302</ele>
        <time>2012-07-22T07:18:52.000Z</time>
      </trkpt>
      <trkpt lat="46.84279" lon="4.73249">
        <ele>303</ele>
        <time>2012-07-22T07:18:55.000Z</time>
      </trkpt>
      <trkpt lat="46.84285" lon="4.73241">
        <ele>304</ele>
        <time>2012-07-22T07:19:00.000Z</time>
      </trkpt>
      <trkpt lat="46.84289" lon="4.73232">
        <ele>304</ele>
        <time>2012-07-22T07:19:04.000Z</time>
      </trkpt>
      <trkpt lat="46.84295" lon="4.73219">
        <ele>305</ele>
        <time>2012-07-22T07:19:10.000Z</time>
      </trkpt>
      <trkpt lat="46.84304" lon="4.73207">
        <ele>305</ele>
        <time>2012-07-22T07:19:16.000Z</time>
      </trkpt>
      <trkpt lat="46.84309" lon="4.732">
        <ele>306</ele>
        <time>2012-07-22T07:19:18.000Z</time>
      </trkpt>
      <trkpt lat="46.84317" lon="4.73188">
        <ele>307</ele>
        <time>2012-07-22T07:19:22.000Z</time>
      </trkpt>
      <trkpt lat="46.84332" lon="4.73166">
        <ele>308</ele>
        <time>2012-07-22T07:19:35.000Z</time>
      </trkpt>
      <trkpt lat="46.84334" lon="4.73161">
        <ele>308</ele>
        <time>2012-07-22T07:19:38.000Z</time>
      </trkpt>
      <trkpt lat="46.84337" lon="4.73152">
        <ele>309</ele>
        <time>2012-07-22T07:19:40.000Z</time>
      </trkpt>
      <trkpt lat="46.84341" lon="4.73145">
        <ele>309</ele>
        <time>2012-07-22T07:19:42.000Z</time>
      </trkpt>
      <trkpt lat="46.84344" lon="4.73139">
        <ele>309</ele>
        <time>2012-07-22T07:19:44.000Z</time>
      </trkpt>
      <trkpt lat="46.84347" lon="4.73136">
        <ele>310</ele>
        <time>2012-07-22T07:19:46.000Z</time>
      </trkpt>
      <trkpt lat="46.84351" lon="4.73132">
        <ele>310</ele>
        <time>2012-07-22T07:19:50.000Z</time>
      </trkpt>
      <trkpt lat="46.84355" lon="4.73124">
        <ele>310</ele>
        <time>2012-07-22T07:19:52.000Z</time>
      </trkpt>
      <trkpt lat="46.84358" lon="4.73118">
        <ele>310</ele>
        <time>2012-07-22T07:19:54.000Z</time>
      </trkpt>
      <trkpt lat="46.84362" lon="4.73112">
        <ele>310</ele>
        <time>2012-07-22T07:19:56.000Z</time>
      </trkpt>
      <trkpt lat="46.84364" lon="4.73109">
        <ele>310</ele>
        <time>2012-07-22T07:19:59.000Z</time>
      </trkpt>
      <trkpt lat="46.84367" lon="4.73102">
        <ele>311</ele>
        <time>2012-07-22T07:20:02.000Z</time>
      </trkpt>
      <trkpt lat="46.84378" lon="4.7308">
        <ele>312</ele>
        <time>2012-07-22T07:20:13.000Z</time>
      </trkpt>
      <trkpt lat="46.84388" lon="4.73059">
        <ele>313</ele>
        <time>2012-07-22T07:20:23.000Z</time>
      </trkpt>
      <trkpt lat="46.84393" lon="4.73049">
        <ele>314</ele>
        <time>2012-07-22T07:20:28.000Z</time>
      </trkpt>
      <trkpt lat="46.84399" lon="4.73042">
        <ele>314</ele>
        <time>2012-07-22T07:20:31.000Z</time>
      </trkpt>
      <trkpt lat="46.84406" lon="4.73031">
        <ele>315</ele>
        <time>2012-07-22T07:20:36.000Z</time>
      </trkpt>
      <trkpt lat="46.8441" lon="4.73027">
        <ele>315</ele>
        <time>2012-07-22T07:20:38.000Z</time>
      </trkpt>
      <trkpt lat="46.84412" lon="4.73028">
        <ele>316</ele>
        <time>2012-07-22T07:20:41.000Z</time>
      </trkpt>
      <trkpt lat="46.84415" lon="4.73025">
        <ele>316</ele>
        <time>2012-07-22T07:20:44.000Z</time>
      </trkpt>
      <trkpt lat="46.84418" lon="4.7302">
        <ele>316</ele>
        <time>2012-07-22T07:20:47.000Z</time>
      </trkpt>
      <trkpt lat="46.84421" lon="4.73016">
        <ele>317</ele>
        <time>2012-07-22T07:20:50.000Z</time>
      </trkpt>
      <trkpt lat="46.84433" lon="4.72994">
        <ele>318</ele>
        <time>2012-07-22T07:21:00.000Z</time>
      </trkpt>
      <trkpt lat="46.84438" lon="4.72989">
        <ele>318</ele>
        <time>2012-07-22T07:21:02.000Z</time>
      </trkpt>
      <trkpt lat="46.84452" lon="4.72965">
        <ele>318</ele>
        <time>2012-07-22T07:21:11.000Z</time>
      </trkpt>
      <trkpt lat="46.84453" lon="4.72962">
        <ele>319</ele>
        <time>2012-07-22T07:21:14.000Z</time>
      </trkpt>
      <trkpt lat="46.84456" lon="4.72957">
        <ele>319</ele>
        <time>2012-07-22T07:21:18.000Z</time>
      </trkpt>
      <trkpt lat="46.8446" lon="4.72953">
        <ele>319</ele>
        <time>2012-07-22T07:21:22.000Z</time>
      </trkpt>
      <trkpt lat="46.84463" lon="4.72947">
        <ele>319</ele>
        <time>2012-07-22T07:21:24.000Z</time>
      </trkpt>
      <trkpt lat="46.84467" lon="4.72934">
        <ele>319</ele>
        <time>2012-07-22T07:21:26.000Z</time>
      </trkpt>
      <trkpt lat="46.84469" lon="4.72931">
        <ele>319</ele>
        <time>2012-07-22T07:21:29.000Z</time>
      </trkpt>
      <trkpt lat="46.84475" lon="4.72923">
        <ele>320</ele>
        <time>2012-07-22T07:21:31.000Z</time>
      </trkpt>
      <trkpt lat="46.84494" lon="4.72896">
        <ele>321</ele>
        <time>2012-07-22T07:21:38.000Z</time>
      </trkpt>
      <trkpt lat="46.84502" lon="4.72888">
        <ele>322</ele>
        <time>2012-07-22T07:21:42.000Z</time>
      </trkpt>
      <trkpt lat="46.84508" lon="4.72885">
        <ele>323</ele>
        <time>2012-07-22T07:21:44.000Z</time>
      </trkpt>
      <trkpt lat="46.84516" lon="4.72883">
        <ele>323</ele>
        <time>2012-07-22T07:21:46.000Z</time>
      </trkpt>
      <trkpt lat="46.84521" lon="4.72882">
        <ele>324</ele>
        <time>2012-07-22T07:21:49.000Z</time>
      </trkpt>
      <trkpt lat="46.84539" lon="4.72874">
        <ele>324</ele>
        <time>2012-07-22T07:21:57.000Z</time>
      </trkpt>
      <trkpt lat="46.84546" lon="4.72871">
        <ele>325</ele>
        <time>2012-07-22T07:22:00.000Z</time>
      </trkpt>
      <trkpt lat="46.84549" lon="4.72872">
        <ele>325</ele>
        <time>2012-07-22T07:22:02.000Z</time>
      </trkpt>
      <trkpt lat="46.84556" lon="4.72871">
        <ele>325</ele>
        <time>2012-07-22T07:22:04.000Z</time>
      </trkpt>
      <trkpt lat="46.8456" lon="4.72869">
        <ele>325</ele>
        <time>2012-07-22T07:22:07.000Z</time>
      </trkpt>
      <trkpt lat="46.84569" lon="4.72862">
        <ele>325</ele>
        <time>2012-07-22T07:22:09.000Z</time>
      </trkpt>
      <trkpt lat="46.84574" lon="4.72859">
        <ele>325</ele>
        <time>2012-07-22T07:22:11.000Z</time>
      </trkpt>
      <trkpt lat="46.84582" lon="4.72854">
        <ele>326</ele>
        <time>2012-07-22T07:22:17.000Z</time>
      </trkpt>
      <trkpt lat="46.84585" lon="4.72853">
        <ele>326</ele>
        <time>2012-07-22T07:22:19.000Z</time>
      </trkpt>
      <trkpt lat="46.84587" lon="4.72852">
        <ele>326</ele>
        <time>2012-07-22T07:22:21.000Z</time>
      </trkpt>
      <trkpt lat="46.8459" lon="4.72847">
        <ele>326</ele>
        <time>2012-07-22T07:22:24.000Z</time>
      </trkpt>
      <trkpt lat="46.84593" lon="4.72844">
        <ele>327</ele>
        <time>2012-07-22T07:22:26.000Z</time>
      </trkpt>
      <trkpt lat="46.84604" lon="4.72832">
        <ele>328</ele>
        <time>2012-07-22T07:22:32.000Z</time>
      </trkpt>
      <trkpt lat="46.8461" lon="4.72828">
        <ele>328</ele>
        <time>2012-07-22T07:22:34.000Z</time>
      </trkpt>
      <trkpt lat="46.84615" lon="4.72827">
        <ele>329</ele>
        <time>2012-07-22T07:22:36.000Z</time>
      </trkpt>
      <trkpt lat="46.84624" lon="4.72824">
        <ele>330</ele>
        <time>2012-07-22T07:22:42.000Z</time>
      </trkpt>
      <trkpt lat="46.8463" lon="4.72821">
        <ele>330</ele>
        <time>2012-07-22T07:22:44.000Z</time>
      </trkpt>
      <trkpt lat="46.84634" lon="4.72819">
        <ele>331</ele>
        <time>2012-07-22T07:22:47.000Z</time>
      </trkpt>
      <trkpt lat="46.84639" lon="4.72817">
        <ele>331</ele>
        <time>2012-07-22T07:22:50.000Z</time>
      </trkpt>
      <trkpt lat="46.84649" lon="4.72814">
        <ele>332</ele>
        <time>2012-07-22T07:22:54.000Z</time>
      </trkpt>
      <trkpt lat="46.84651" lon="4.72812">
        <ele>332</ele>
        <time>2012-07-22T07:22:56.000Z</time>
      </trkpt>
      <trkpt lat="46.8466" lon="4.72809">
        <ele>332</ele>
        <time>2012-07-22T07:23:02.000Z</time>
      </trkpt>
      <trkpt lat="46.84665" lon="4.72808">
        <ele>333</ele>
        <time>2012-07-22T07:23:04.000Z</time>
      </trkpt>
      <trkpt lat="46.84669" lon="4.72808">
        <ele>333</ele>
        <time>2012-07-22T07:23:07.000Z</time>
      </trkpt>
      <trkpt lat="46.84685" lon="4.72804">
        <ele>333</ele>
        <time>2012-07-22T07:23:11.000Z</time>
      </trkpt>
      <trkpt lat="46.84702" lon="4.72803">
        <ele>333</ele>
        <time>2012-07-22T07:23:18.000Z</time>
      </trkpt>
      <trkpt lat="46.84705" lon="4.72805">
        <ele>333</ele>
        <time>2012-07-22T07:23:21.000Z</time>
      </trkpt>
      <trkpt lat="46.84709" lon="4.72805">
        <ele>333</ele>
        <time>2012-07-22T07:23:23.000Z</time>
      </trkpt>
      <trkpt lat="46.84716" lon="4.72807">
        <ele>333</ele>
        <time>2012-07-22T07:23:28.000Z</time>
      </trkpt>
      <trkpt lat="46.84719" lon="4.72808">
        <ele>333</ele>
        <time>2012-07-22T07:23:32.000Z</time>
      </trkpt>
      <trkpt lat="46.84721" lon="4.72805">
        <ele>333</ele>
        <time>2012-07-22T07:23:36.000Z</time>
      </trkpt>
      <trkpt lat="46.84721" lon="4.72803">
        <ele>333</ele>
        <time>2012-07-22T07:23:39.000Z</time>
      </trkpt>
      <trkpt lat="46.84721" lon="4.72802">
        <ele>333</ele>
        <time>2012-07-22T07:23:42.000Z</time>
      </trkpt>
      <trkpt lat="46.84725" lon="4.72796">
        <ele>333</ele>
        <time>2012-07-22T07:23:59.000Z</time>
      </trkpt>
      <trkpt lat="46.84725" lon="4.72796">
        <ele>333</ele>
        <time>2012-07-22T07:24:19.000Z</time>
      </trkpt>
      <trkpt lat="46.84729" lon="4.72794">
        <ele>333</ele>
        <time>2012-07-22T07:24:29.000Z</time>
      </trkpt>
      <trkpt lat="46.84734" lon="4.72793">
        <ele>333</ele>
        <time>2012-07-22T07:24:31.000Z</time>
      </trkpt>
      <trkpt lat="46.84748" lon="4.72791">
        <ele>332</ele>
        <time>2012-07-22T07:24:36.000Z</time>
      </trkpt>
      <trkpt lat="46.84777" lon="4.72744">
        <ele>331</ele>
        <time>2012-07-22T07:24:42.000Z</time>
      </trkpt>
      <trkpt lat="46.84786" lon="4.72715">
        <ele>330</ele>
        <time>2012-07-22T07:24:44.000Z</time>
      </trkpt>
      <trkpt lat="46.84793" lon="4.72696">
        <ele>329</ele>
        <time>2012-07-22T07:24:46.000Z</time>
      </trkpt>
      <trkpt lat="46.84798" lon="4.7268">
        <ele>328</ele>
        <time>2012-07-22T07:24:48.000Z</time>
      </trkpt>
      <trkpt lat="46.8481" lon="4.72651">
        <ele>326</ele>
        <time>2012-07-22T07:24:51.000Z</time>
      </trkpt>
      <trkpt lat="46.84829" lon="4.72592">
        <ele>326</ele>
        <time>2012-07-22T07:24:58.000Z</time>
      </trkpt>
      <trkpt lat="46.84843" lon="4.72552">
        <ele>325</ele>
        <time>2012-07-22T07:25:04.000Z</time>
      </trkpt>
      <trkpt lat="46.84864" lon="4.7248">
        <ele>325</ele>
        <time>2012-07-22T07:25:11.000Z</time>
      </trkpt>
      <trkpt lat="46.84864" lon="4.72462">
        <ele>325</ele>
        <time>2012-07-22T07:25:14.000Z</time>
      </trkpt>
      <trkpt lat="46.8486" lon="4.72458">
        <ele>325</ele>
        <time>2012-07-22T07:25:16.000Z</time>
      </trkpt>
      <trkpt lat="46.84856" lon="4.72438">
        <ele>325</ele>
        <time>2012-07-22T07:25:19.000Z</time>
      </trkpt>
      <trkpt lat="46.84864" lon="4.72393">
        <ele>325</ele>
        <time>2012-07-22T07:25:22.000Z</time>
      </trkpt>
      <trkpt lat="46.84863" lon="4.72378">
        <ele>326</ele>
        <time>2012-07-22T07:25:25.000Z</time>
      </trkpt>
      <trkpt lat="46.84865" lon="4.72357">
        <ele>326</ele>
        <time>2012-07-22T07:25:28.000Z</time>
      </trkpt>
      <trkpt lat="46.84862" lon="4.72334">
        <ele>326</ele>
        <time>2012-07-22T07:25:31.000Z</time>
      </trkpt>
      <trkpt lat="46.84863" lon="4.72308">
        <ele>327</ele>
        <time>2012-07-22T07:25:34.000Z</time>
      </trkpt>
      <trkpt lat="46.84862" lon="4.72286">
        <ele>327</ele>
        <time>2012-07-22T07:25:37.000Z</time>
      </trkpt>
      <trkpt lat="46.84863" lon="4.72265">
        <ele>327</ele>
        <time>2012-07-22T07:25:39.000Z</time>
      </trkpt>
      <trkpt lat="46.84861" lon="4.72241">
        <ele>327</ele>
        <time>2012-07-22T07:25:42.000Z</time>
      </trkpt>
      <trkpt lat="46.8485" lon="4.72228">
        <ele>328</ele>
        <time>2012-07-22T07:25:45.000Z</time>
      </trkpt>
      <trkpt lat="46.84845" lon="4.72218">
        <ele>328</ele>
        <time>2012-07-22T07:25:48.000Z</time>
      </trkpt>
      <trkpt lat="46.84835" lon="4.72194">
        <ele>329</ele>
        <time>2012-07-22T07:25:54.000Z</time>
      </trkpt>
      <trkpt lat="46.84832" lon="4.72181">
        <ele>329</ele>
        <time>2012-07-22T07:25:57.000Z</time>
      </trkpt>
      <trkpt lat="46.8483" lon="4.72174">
        <ele>330</ele>
        <time>2012-07-22T07:25:59.000Z</time>
      </trkpt>
      <trkpt lat="46.84821" lon="4.72152">
        <ele>331</ele>
        <time>2012-07-22T07:26:04.000Z</time>
      </trkpt>
      <trkpt lat="46.84803" lon="4.72116">
        <ele>332</ele>
        <time>2012-07-22T07:26:13.000Z</time>
      </trkpt>
      <trkpt lat="46.84788" lon="4.72094">
        <ele>332</ele>
        <time>2012-07-22T07:26:19.000Z</time>
      </trkpt>
      <trkpt lat="46.84782" lon="4.72087">
        <ele>333</ele>
        <time>2012-07-22T07:26:21.000Z</time>
      </trkpt>
      <trkpt lat="46.84769" lon="4.72075">
        <ele>333</ele>
        <time>2012-07-22T07:26:25.000Z</time>
      </trkpt>
      <trkpt lat="46.84729" lon="4.72028">
        <ele>332</ele>
        <time>2012-07-22T07:26:34.000Z</time>
      </trkpt>
      <trkpt lat="46.84703" lon="4.71989">
        <ele>331</ele>
        <time>2012-07-22T07:26:40.000Z</time>
      </trkpt>
      <trkpt lat="46.84691" lon="4.71968">
        <ele>329</ele>
        <time>2012-07-22T07:26:42.000Z</time>
      </trkpt>
      <trkpt lat="46.84678" lon="4.71947">
        <ele>328</ele>
        <time>2012-07-22T07:26:46.000Z</time>
      </trkpt>
      <trkpt lat="46.8466" lon="4.71926">
        <ele>327</ele>
        <time>2012-07-22T07:26:48.000Z</time>
      </trkpt>
      <trkpt lat="46.84645" lon="4.71915">
        <ele>325</ele>
        <time>2012-07-22T07:26:50.000Z</time>
      </trkpt>
      <trkpt lat="46.84631" lon="4.71905">
        <ele>324</ele>
        <time>2012-07-22T07:26:53.000Z</time>
      </trkpt>
      <trkpt lat="46.84606" lon="4.7189">
        <ele>322</ele>
        <time>2012-07-22T07:26:55.000Z</time>
      </trkpt>
      <trkpt lat="46.84589" lon="4.71879">
        <ele>320</ele>
        <time>2012-07-22T07:26:58.000Z</time>
      </trkpt>
      <trkpt lat="46.8456" lon="4.71868">
        <ele>318</ele>
        <time>2012-07-22T07:27:00.000Z</time>
      </trkpt>
      <trkpt lat="46.84539" lon="4.71864">
        <ele>315</ele>
        <time>2012-07-22T07:27:03.000Z</time>
      </trkpt>
      <trkpt lat="46.84512" lon="4.71858">
        <ele>312</ele>
        <time>2012-07-22T07:27:06.000Z</time>
      </trkpt>
      <trkpt lat="46.84494" lon="4.71854">
        <ele>309</ele>
        <time>2012-07-22T07:27:08.000Z</time>
      </trkpt>
      <trkpt lat="46.84488" lon="4.71853">
        <ele>306</ele>
        <time>2012-07-22T07:27:11.000Z</time>
      </trkpt>
      <trkpt lat="46.84484" lon="4.7185">
        <ele>304</ele>
        <time>2012-07-22T07:27:13.000Z</time>
      </trkpt>
      <trkpt lat="46.84481" lon="4.71849">
        <ele>302</ele>
        <time>2012-07-22T07:27:16.000Z</time>
      </trkpt>
      <trkpt lat="46.84479" lon="4.71846">
        <ele>301</ele>
        <time>2012-07-22T07:27:18.000Z</time>
      </trkpt>
      <trkpt lat="46.84476" lon="4.71842">
        <ele>301</ele>
        <time>2012-07-22T07:27:20.000Z</time>
      </trkpt>
      <trkpt lat="46.84474" lon="4.71839">
        <ele>300</ele>
        <time>2012-07-22T07:27:23.000Z</time>
      </trkpt>
      <trkpt lat="46.84472" lon="4.71835">
        <ele>300</ele>
        <time>2012-07-22T07:27:26.000Z</time>
      </trkpt>
      <trkpt lat="46.84472" lon="4.71827">
        <ele>300</ele>
        <time>2012-07-22T07:27:28.000Z</time>
      </trkpt>
      <trkpt lat="46.84471" lon="4.71778">
        <ele>301</ele>
        <time>2012-07-22T07:27:39.000Z</time>
      </trkpt>
      <trkpt lat="46.84471" lon="4.7177">
        <ele>301</ele>
        <time>2012-07-22T07:27:42.000Z</time>
      </trkpt>
      <trkpt lat="46.8447" lon="4.7175">
        <ele>302</ele>
        <time>2012-07-22T07:27:47.000Z</time>
      </trkpt>
      <trkpt lat="46.84471" lon="4.71743">
        <ele>302</ele>
        <time>2012-07-22T07:27:49.000Z</time>
      </trkpt>
      <trkpt lat="46.84472" lon="4.71732">
        <ele>303</ele>
        <time>2012-07-22T07:27:52.000Z</time>
      </trkpt>
      <trkpt lat="46.84473" lon="4.71722">
        <ele>304</ele>
        <time>2012-07-22T07:27:55.000Z</time>
      </trkpt>
      <trkpt lat="46.84475" lon="4.71707">
        <ele>305</ele>
        <time>2012-07-22T07:28:00.000Z</time>
      </trkpt>
      <trkpt lat="46.84476" lon="4.71697">
        <ele>306</ele>
        <time>2012-07-22T07:28:04.000Z</time>
      </trkpt>
      <trkpt lat="46.84476" lon="4.71687">
        <ele>307</ele>
        <time>2012-07-22T07:28:06.000Z</time>
      </trkpt>
      <trkpt lat="46.84476" lon="4.71673">
        <ele>308</ele>
        <time>2012-07-22T07:28:11.000Z</time>
      </trkpt>
      <trkpt lat="46.84475" lon="4.71667">
        <ele>309</ele>
        <time>2012-07-22T07:28:13.000Z</time>
      </trkpt>
      <trkpt lat="46.84475" lon="4.71653">
        <ele>309</ele>
        <time>2012-07-22T07:28:17.000Z</time>
      </trkpt>
      <trkpt lat="46.84476" lon="4.71646">
        <ele>310</ele>
        <time>2012-07-22T07:28:19.000Z</time>
      </trkpt>
      <trkpt lat="46.84475" lon="4.71631">
        <ele>310</ele>
        <time>2012-07-22T07:28:24.000Z</time>
      </trkpt>
      <trkpt lat="46.84468" lon="4.71557">
        <ele>310</ele>
        <time>2012-07-22T07:28:46.000Z</time>
      </trkpt>
      <trkpt lat="46.84468" lon="4.71541">
        <ele>311</ele>
        <time>2012-07-22T07:28:49.000Z</time>
      </trkpt>
      <trkpt lat="46.84465" lon="4.71529">
        <ele>311</ele>
        <time>2012-07-22T07:28:52.000Z</time>
      </trkpt>
      <trkpt lat="46.84458" lon="4.71523">
        <ele>310</ele>
        <time>2012-07-22T07:28:55.000Z</time>
      </trkpt>
      <trkpt lat="46.8445" lon="4.71517">
        <ele>310</ele>
        <time>2012-07-22T07:28:58.000Z</time>
      </trkpt>
      <trkpt lat="46.84431" lon="4.71497">
        <ele>309</ele>
        <time>2012-07-22T07:29:04.000Z</time>
      </trkpt>
      <trkpt lat="46.84429" lon="4.71492">
        <ele>308</ele>
        <time>2012-07-22T07:29:06.000Z</time>
      </trkpt>
      <trkpt lat="46.8443" lon="4.71486">
        <ele>308</ele>
        <time>2012-07-22T07:29:10.000Z</time>
      </trkpt>
      <trkpt lat="46.84431" lon="4.71482">
        <ele>307</ele>
        <time>2012-07-22T07:29:12.000Z</time>
      </trkpt>
      <trkpt lat="46.84432" lon="4.7148">
        <ele>306</ele>
        <time>2012-07-22T07:29:15.000Z</time>
      </trkpt>
      <trkpt lat="46.84435" lon="4.71479">
        <ele>306</ele>
        <time>2012-07-22T07:29:17.000Z</time>
      </trkpt>
      <trkpt lat="46.84439" lon="4.71479">
        <ele>306</ele>
        <time>2012-07-22T07:29:20.000Z</time>
      </trkpt>
      <trkpt lat="46.84441" lon="4.7148">
        <ele>306</ele>
        <time>2012-07-22T07:29:22.000Z</time>
      </trkpt>
      <trkpt lat="46.84444" lon="4.71481">
        <ele>306</ele>
        <time>2012-07-22T07:29:24.000Z</time>
      </trkpt>
      <trkpt lat="46.84447" lon="4.71479">
        <ele>306</ele>
        <time>2012-07-22T07:29:26.000Z</time>
      </trkpt>
      <trkpt lat="46.84449" lon="4.71478">
        <ele>307</ele>
        <time>2012-07-22T07:29:28.000Z</time>
      </trkpt>
      <trkpt lat="46.84456" lon="4.71475">
        <ele>307</ele>
        <time>2012-07-22T07:29:34.000Z</time>
      </trkpt>
      <trkpt lat="46.84468" lon="4.71473">
        <ele>307</ele>
        <time>2012-07-22T07:29:43.000Z</time>
      </trkpt>
      <trkpt lat="46.84472" lon="4.71473">
        <ele>308</ele>
        <time>2012-07-22T07:29:46.000Z</time>
      </trkpt>
      <trkpt lat="46.84484" lon="4.71475">
        <ele>309</ele>
        <time>2012-07-22T07:29:54.000Z</time>
      </trkpt>
      <trkpt lat="46.84488" lon="4.71474">
        <ele>309</ele>
        <time>2012-07-22T07:29:56.000Z</time>
      </trkpt>
      <trkpt lat="46.84493" lon="4.71475">
        <ele>310</ele>
        <time>2012-07-22T07:29:58.000Z</time>
      </trkpt>
      <trkpt lat="46.84496" lon="4.71476">
        <ele>310</ele>
        <time>2012-07-22T07:30:01.000Z</time>
      </trkpt>
      <trkpt lat="46.84499" lon="4.71476">
        <ele>311</ele>
        <time>2012-07-22T07:30:04.000Z</time>
      </trkpt>
      <trkpt lat="46.84506" lon="4.71477">
        <ele>311</ele>
        <time>2012-07-22T07:30:09.000Z</time>
      </trkpt>
      <trkpt lat="46.8451" lon="4.7148">
        <ele>312</ele>
        <time>2012-07-22T07:30:12.000Z</time>
      </trkpt>
      <trkpt lat="46.84514" lon="4.71479">
        <ele>313</ele>
        <time>2012-07-22T07:30:14.000Z</time>
      </trkpt>
      <trkpt lat="46.84517" lon="4.71478">
        <ele>313</ele>
        <time>2012-07-22T07:30:17.000Z</time>
      </trkpt>
      <trkpt lat="46.84521" lon="4.71479">
        <ele>314</ele>
        <time>2012-07-22T07:30:20.000Z</time>
      </trkpt>
      <trkpt lat="46.84524" lon="4.71482">
        <ele>314</ele>
        <time>2012-07-22T07:30:23.000Z</time>
      </trkpt>
      <trkpt lat="46.84528" lon="4.71484">
        <ele>315</ele>
        <time>2012-07-22T07:30:26.000Z</time>
      </trkpt>
      <trkpt lat="46.84531" lon="4.71485">
        <ele>315</ele>
        <time>2012-07-22T07:30:28.000Z</time>
      </trkpt>
      <trkpt lat="46.84535" lon="4.71486">
        <ele>316</ele>
        <time>2012-07-22T07:30:30.000Z</time>
      </trkpt>
      <trkpt lat="46.84539" lon="4.71486">
        <ele>317</ele>
        <time>2012-07-22T07:30:32.000Z</time>
      </trkpt>
      <trkpt lat="46.84544" lon="4.71488">
        <ele>318</ele>
        <time>2012-07-22T07:30:35.000Z</time>
      </trkpt>
      <trkpt lat="46.84553" lon="4.71491">
        <ele>319</ele>
        <time>2012-07-22T07:30:40.000Z</time>
      </trkpt>
      <trkpt lat="46.84558" lon="4.71493">
        <ele>320</ele>
        <time>2012-07-22T07:30:43.000Z</time>
      </trkpt>
      <trkpt lat="46.84563" lon="4.71495">
        <ele>321</ele>
        <time>2012-07-22T07:30:46.000Z</time>
      </trkpt>
      <trkpt lat="46.84566" lon="4.71495">
        <ele>321</ele>
        <time>2012-07-22T07:30:48.000Z</time>
      </trkpt>
      <trkpt lat="46.8457" lon="4.71496">
        <ele>322</ele>
        <time>2012-07-22T07:30:51.000Z</time>
      </trkpt>
      <trkpt lat="46.84573" lon="4.71497">
        <ele>323</ele>
        <time>2012-07-22T07:30:53.000Z</time>
      </trkpt>
      <trkpt lat="46.84579" lon="4.71499">
        <ele>324</ele>
        <time>2012-07-22T07:30:55.000Z</time>
      </trkpt>
      <trkpt lat="46.84582" lon="4.71501">
        <ele>324</ele>
        <time>2012-07-22T07:30:58.000Z</time>
      </trkpt>
      <trkpt lat="46.84588" lon="4.71504">
        <ele>325</ele>
        <time>2012-07-22T07:31:00.000Z</time>
      </trkpt>
      <trkpt lat="46.84591" lon="4.71507">
        <ele>326</ele>
        <time>2012-07-22T07:31:03.000Z</time>
      </trkpt>
      <trkpt lat="46.84597" lon="4.71509">
        <ele>327</ele>
        <time>2012-07-22T07:31:05.000Z</time>
      </trkpt>
      <trkpt lat="46.84601" lon="4.7151">
        <ele>327</ele>
        <time>2012-07-22T07:31:08.000Z</time>
      </trkpt>
      <trkpt lat="46.84604" lon="4.7151">
        <ele>328</ele>
        <time>2012-07-22T07:31:10.000Z</time>
      </trkpt>
      <trkpt lat="46.8461" lon="4.71509">
        <ele>329</ele>
        <time>2012-07-22T07:31:13.000Z</time>
      </trkpt>
      <trkpt lat="46.84618" lon="4.71509">
        <ele>330</ele>
        <time>2012-07-22T07:31:17.000Z</time>
      </trkpt>
      <trkpt lat="46.84622" lon="4.7151">
        <ele>330</ele>
        <time>2012-07-22T07:31:20.000Z</time>
      </trkpt>
      <trkpt lat="46.84628" lon="4.7151">
        <ele>331</ele>
        <time>2012-07-22T07:31:23.000Z</time>
      </trkpt>
      <trkpt lat="46.84632" lon="4.7151">
        <ele>332</ele>
        <time>2012-07-22T07:31:26.000Z</time>
      </trkpt>
      <trkpt lat="46.84636" lon="4.71509">
        <ele>332</ele>
        <time>2012-07-22T07:31:28.000Z</time>
      </trkpt>
      <trkpt lat="46.84641" lon="4.71507">
        <ele>333</ele>
        <time>2012-07-22T07:31:31.000Z</time>
      </trkpt>
      <trkpt lat="46.84644" lon="4.71507">
        <ele>333</ele>
        <time>2012-07-22T07:31:33.000Z</time>
      </trkpt>
      <trkpt lat="46.84647" lon="4.71507">
        <ele>334</ele>
        <time>2012-07-22T07:31:36.000Z</time>
      </trkpt>
      <trkpt lat="46.84651" lon="4.71506">
        <ele>334</ele>
        <time>2012-07-22T07:31:38.000Z</time>
      </trkpt>
      <trkpt lat="46.84655" lon="4.71505">
        <ele>335</ele>
        <time>2012-07-22T07:31:40.000Z</time>
      </trkpt>
      <trkpt lat="46.84661" lon="4.71504">
        <ele>335</ele>
        <time>2012-07-22T07:31:43.000Z</time>
      </trkpt>
      <trkpt lat="46.84665" lon="4.71504">
        <ele>336</ele>
        <time>2012-07-22T07:31:45.000Z</time>
      </trkpt>
      <trkpt lat="46.8467" lon="4.71504">
        <ele>336</ele>
        <time>2012-07-22T07:31:47.000Z</time>
      </trkpt>
      <trkpt lat="46.84676" lon="4.71505">
        <ele>337</ele>
        <time>2012-07-22T07:31:50.000Z</time>
      </trkpt>
      <trkpt lat="46.84682" lon="4.71507">
        <ele>338</ele>
        <time>2012-07-22T07:31:52.000Z</time>
      </trkpt>
      <trkpt lat="46.8469" lon="4.71514">
        <ele>339</ele>
        <time>2012-07-22T07:31:54.000Z</time>
      </trkpt>
      <trkpt lat="46.84695" lon="4.71521">
        <ele>340</ele>
        <time>2012-07-22T07:31:57.000Z</time>
      </trkpt>
      <trkpt lat="46.84699" lon="4.71526">
        <ele>341</ele>
        <time>2012-07-22T07:31:59.000Z</time>
      </trkpt>
      <trkpt lat="46.84701" lon="4.71526">
        <ele>341</ele>
        <time>2012-07-22T07:32:01.000Z</time>
      </trkpt>
      <trkpt lat="46.84705" lon="4.71526">
        <ele>342</ele>
        <time>2012-07-22T07:32:04.000Z</time>
      </trkpt>
      <trkpt lat="46.84711" lon="4.71528">
        <ele>343</ele>
        <time>2012-07-22T07:32:07.000Z</time>
      </trkpt>
      <trkpt lat="46.84715" lon="4.71528">
        <ele>343</ele>
        <time>2012-07-22T07:32:10.000Z</time>
      </trkpt>
      <trkpt lat="46.84718" lon="4.71528">
        <ele>344</ele>
        <time>2012-07-22T07:32:12.000Z</time>
      </trkpt>
      <trkpt lat="46.84726" lon="4.71525">
        <ele>345</ele>
        <time>2012-07-22T07:32:18.000Z</time>
      </trkpt>
      <trkpt lat="46.84729" lon="4.71525">
        <ele>345</ele>
        <time>2012-07-22T07:32:20.000Z</time>
      </trkpt>
      <trkpt lat="46.84732" lon="4.71527">
        <ele>346</ele>
        <time>2012-07-22T07:32:23.000Z</time>
      </trkpt>
      <trkpt lat="46.84739" lon="4.71531">
        <ele>347</ele>
        <time>2012-07-22T07:32:27.000Z</time>
      </trkpt>
      <trkpt lat="46.84745" lon="4.71532">
        <ele>347</ele>
        <time>2012-07-22T07:32:30.000Z</time>
      </trkpt>
      <trkpt lat="46.8475" lon="4.71533">
        <ele>348</ele>
        <time>2012-07-22T07:32:32.000Z</time>
      </trkpt>
      <trkpt lat="46.84753" lon="4.71537">
        <ele>348</ele>
        <time>2012-07-22T07:32:35.000Z</time>
      </trkpt>
      <trkpt lat="46.84758" lon="4.71541">
        <ele>349</ele>
        <time>2012-07-22T07:32:37.000Z</time>
      </trkpt>
      <trkpt lat="46.84764" lon="4.71545">
        <ele>350</ele>
        <time>2012-07-22T07:32:39.000Z</time>
      </trkpt>
      <trkpt lat="46.84773" lon="4.71551">
        <ele>350</ele>
        <time>2012-07-22T07:32:44.000Z</time>
      </trkpt>
      <trkpt lat="46.84777" lon="4.71553">
        <ele>351</ele>
        <time>2012-07-22T07:32:48.000Z</time>
      </trkpt>
      <trkpt lat="46.84782" lon="4.71556">
        <ele>351</ele>
        <time>2012-07-22T07:32:50.000Z</time>
      </trkpt>
      <trkpt lat="46.84785" lon="4.71558">
        <ele>352</ele>
        <time>2012-07-22T07:32:53.000Z</time>
      </trkpt>
      <trkpt lat="46.84792" lon="4.71565">
        <ele>353</ele>
        <time>2012-07-22T07:32:58.000Z</time>
      </trkpt>
      <trkpt lat="46.84805" lon="4.71584">
        <ele>353</ele>
        <time>2012-07-22T07:33:03.000Z</time>
      </trkpt>
      <trkpt lat="46.84808" lon="4.71593">
        <ele>354</ele>
        <time>2012-07-22T07:33:06.000Z</time>
      </trkpt>
      <trkpt lat="46.84832" lon="4.71631">
        <ele>354</ele>
        <time>2012-07-22T07:33:16.000Z</time>
      </trkpt>
      <trkpt lat="46.84844" lon="4.71638">
        <ele>354</ele>
        <time>2012-07-22T07:33:18.000Z</time>
      </trkpt>
      <trkpt lat="46.84866" lon="4.71656">
        <ele>354</ele>
        <time>2012-07-22T07:33:24.000Z</time>
      </trkpt>
      <trkpt lat="46.84869" lon="4.71665">
        <ele>354</ele>
        <time>2012-07-22T07:33:26.000Z</time>
      </trkpt>
      <trkpt lat="46.84874" lon="4.71674">
        <ele>354</ele>
        <time>2012-07-22T07:33:28.000Z</time>
      </trkpt>
      <trkpt lat="46.84883" lon="4.71685">
        <ele>354</ele>
        <time>2012-07-22T07:33:31.000Z</time>
      </trkpt>
      <trkpt lat="46.8489" lon="4.71694">
        <ele>353</ele>
        <time>2012-07-22T07:33:36.000Z</time>
      </trkpt>
      <trkpt lat="46.84894" lon="4.71702">
        <ele>353</ele>
        <time>2012-07-22T07:33:46.000Z</time>
      </trkpt>
      <trkpt lat="46.84897" lon="4.71709">
        <ele>353</ele>
        <time>2012-07-22T07:33:50.000Z</time>
      </trkpt>
      <trkpt lat="46.84901" lon="4.71716">
        <ele>353</ele>
        <time>2012-07-22T07:33:56.000Z</time>
      </trkpt>
      <trkpt lat="46.84903" lon="4.71721">
        <ele>352</ele>
        <time>2012-07-22T07:33:58.000Z</time>
      </trkpt>
      <trkpt lat="46.84905" lon="4.71729">
        <ele>352</ele>
        <time>2012-07-22T07:34:01.000Z</time>
      </trkpt>
      <trkpt lat="46.84911" lon="4.71744">
        <ele>351</ele>
        <time>2012-07-22T07:34:06.000Z</time>
      </trkpt>
      <trkpt lat="46.84918" lon="4.71757">
        <ele>350</ele>
        <time>2012-07-22T07:34:11.000Z</time>
      </trkpt>
      <trkpt lat="46.84925" lon="4.71765">
        <ele>350</ele>
        <time>2012-07-22T07:34:14.000Z</time>
      </trkpt>
      <trkpt lat="46.84927" lon="4.71767">
        <ele>350</ele>
        <time>2012-07-22T07:34:16.000Z</time>
      </trkpt>
      <trkpt lat="46.8493" lon="4.71766">
        <ele>349</ele>
        <time>2012-07-22T07:34:18.000Z</time>
      </trkpt>
      <trkpt lat="46.84932" lon="4.71767">
        <ele>349</ele>
        <time>2012-07-22T07:34:22.000Z</time>
      </trkpt>
      <trkpt lat="46.84932" lon="4.71766">
        <ele>349</ele>
        <time>2012-07-22T07:34:25.000Z</time>
      </trkpt>
      <trkpt lat="46.84929" lon="4.71765">
        <ele>349</ele>
        <time>2012-07-22T07:34:27.000Z</time>
      </trkpt>
      <trkpt lat="46.84925" lon="4.71765">
        <ele>349</ele>
        <time>2012-07-22T07:34:30.000Z</time>
      </trkpt>
      <trkpt lat="46.84923" lon="4.71765">
        <ele>349</ele>
        <time>2012-07-22T07:34:33.000Z</time>
      </trkpt>
      <trkpt lat="46.84928" lon="4.71761">
        <ele>349</ele>
        <time>2012-07-22T07:34:35.000Z</time>
      </trkpt>
      <trkpt lat="46.84932" lon="4.71759">
        <ele>350</ele>
        <time>2012-07-22T07:34:44.000Z</time>
      </trkpt>
      <trkpt lat="46.84932" lon="4.7176">
        <ele>350</ele>
        <time>2012-07-22T07:34:47.000Z</time>
      </trkpt>
      <trkpt lat="46.84938" lon="4.71773">
        <ele>350</ele>
        <time>2012-07-22T07:35:03.000Z</time>
      </trkpt>
      <trkpt lat="46.84948" lon="4.71783">
        <ele>349</ele>
        <time>2012-07-22T07:35:07.000Z</time>
      </trkpt>
      <trkpt lat="46.84954" lon="4.71802">
        <ele>348</ele>
        <time>2012-07-22T07:35:10.000Z</time>
      </trkpt>
      <trkpt lat="46.84952" lon="4.71813">
        <ele>347</ele>
        <time>2012-07-22T07:35:12.000Z</time>
      </trkpt>
      <trkpt lat="46.84948" lon="4.71832">
        <ele>346</ele>
        <time>2012-07-22T07:35:15.000Z</time>
      </trkpt>
      <trkpt lat="46.84954" lon="4.71844">
        <ele>345</ele>
        <time>2012-07-22T07:35:17.000Z</time>
      </trkpt>
      <trkpt lat="46.84963" lon="4.71852">
        <ele>343</ele>
        <time>2012-07-22T07:35:19.000Z</time>
      </trkpt>
      <trkpt lat="46.8497" lon="4.71862">
        <ele>342</ele>
        <time>2012-07-22T07:35:21.000Z</time>
      </trkpt>
      <trkpt lat="46.84978" lon="4.71875">
        <ele>340</ele>
        <time>2012-07-22T07:35:25.000Z</time>
      </trkpt>
      <trkpt lat="46.84988" lon="4.71892">
        <ele>338</ele>
        <time>2012-07-22T07:35:27.000Z</time>
      </trkpt>
      <trkpt lat="46.84993" lon="4.71902">
        <ele>337</ele>
        <time>2012-07-22T07:35:30.000Z</time>
      </trkpt>
      <trkpt lat="46.85003" lon="4.71915">
        <ele>334</ele>
        <time>2012-07-22T07:35:32.000Z</time>
      </trkpt>
      <trkpt lat="46.85014" lon="4.71929">
        <ele>332</ele>
        <time>2012-07-22T07:35:35.000Z</time>
      </trkpt>
      <trkpt lat="46.85023" lon="4.71938">
        <ele>330</ele>
        <time>2012-07-22T07:35:38.000Z</time>
      </trkpt>
      <trkpt lat="46.85032" lon="4.71947">
        <ele>327</ele>
        <time>2012-07-22T07:35:40.000Z</time>
      </trkpt>
      <trkpt lat="46.85036" lon="4.71944">
        <ele>325</ele>
        <time>2012-07-22T07:35:43.000Z</time>
      </trkpt>
      <trkpt lat="46.8504" lon="4.71934">
        <ele>324</ele>
        <time>2012-07-22T07:35:46.000Z</time>
      </trkpt>
      <trkpt lat="46.85045" lon="4.71917">
        <ele>323</ele>
        <time>2012-07-22T07:35:48.000Z</time>
      </trkpt>
      <trkpt lat="46.85052" lon="4.71905">
        <ele>323</ele>
        <time>2012-07-22T07:35:51.000Z</time>
      </trkpt>
      <trkpt lat="46.85063" lon="4.71888">
        <ele>324</ele>
        <time>2012-07-22T07:35:53.000Z</time>
      </trkpt>
      <trkpt lat="46.85072" lon="4.71886">
        <ele>324</ele>
        <time>2012-07-22T07:35:55.000Z</time>
      </trkpt>
      <trkpt lat="46.85082" lon="4.71889">
        <ele>324</ele>
        <time>2012-07-22T07:35:58.000Z</time>
      </trkpt>
      <trkpt lat="46.85099" lon="4.71901">
        <ele>323</ele>
        <time>2012-07-22T07:36:00.000Z</time>
      </trkpt>
      <trkpt lat="46.85106" lon="4.71915">
        <ele>321</ele>
        <time>2012-07-22T07:36:03.000Z</time>
      </trkpt>
      <trkpt lat="46.85104" lon="4.71916">
        <ele>319</ele>
        <time>2012-07-22T07:36:06.000Z</time>
      </trkpt>
      <trkpt lat="46.85105" lon="4.71908">
        <ele>318</ele>
        <time>2012-07-22T07:36:10.000Z</time>
      </trkpt>
      <trkpt lat="46.85109" lon="4.71902">
        <ele>317</ele>
        <time>2012-07-22T07:36:13.000Z</time>
      </trkpt>
      <trkpt lat="46.85115" lon="4.71897">
        <ele>316</ele>
        <time>2012-07-22T07:36:16.000Z</time>
      </trkpt>
      <trkpt lat="46.85118" lon="4.71891">
        <ele>316</ele>
        <time>2012-07-22T07:36:19.000Z</time>
      </trkpt>
      <trkpt lat="46.8512" lon="4.71888">
        <ele>317</ele>
        <time>2012-07-22T07:36:22.000Z</time>
      </trkpt>
      <trkpt lat="46.85131" lon="4.71873">
        <ele>317</ele>
        <time>2012-07-22T07:36:38.000Z</time>
      </trkpt>
      <trkpt lat="46.85134" lon="4.71873">
        <ele>317</ele>
        <time>2012-07-22T07:36:41.000Z</time>
      </trkpt>
      <trkpt lat="46.85138" lon="4.71871">
        <ele>317</ele>
        <time>2012-07-22T07:36:43.000Z</time>
      </trkpt>
      <trkpt lat="46.85138" lon="4.71871">
        <ele>316</ele>
        <time>2012-07-22T07:36:46.000Z</time>
      </trkpt>
      <trkpt lat="46.85139" lon="4.71869">
        <ele>316</ele>
        <time>2012-07-22T07:36:48.000Z</time>
      </trkpt>
      <trkpt lat="46.8514" lon="4.71868">
        <ele>316</ele>
        <time>2012-07-22T07:36:50.000Z</time>
      </trkpt>
      <trkpt lat="46.85142" lon="4.71865">
        <ele>316</ele>
        <time>2012-07-22T07:36:58.000Z</time>
      </trkpt>
      <trkpt lat="46.85143" lon="4.7186">
        <ele>316</ele>
        <time>2012-07-22T07:37:03.000Z</time>
      </trkpt>
      <trkpt lat="46.85144" lon="4.71857">
        <ele>316</ele>
        <time>2012-07-22T07:37:06.000Z</time>
      </trkpt>
      <trkpt lat="46.85144" lon="4.71854">
        <ele>316</ele>
        <time>2012-07-22T07:37:08.000Z</time>
      </trkpt>
      <trkpt lat="46.85144" lon="4.71855">
        <ele>316</ele>
        <time>2012-07-22T07:37:15.000Z</time>
      </trkpt>
      <trkpt lat="46.85144" lon="4.71856">
        <ele>316</ele>
        <time>2012-07-22T07:37:18.000Z</time>
      </trkpt>
      <trkpt lat="46.85147" lon="4.71849">
        <ele>316</ele>
        <time>2012-07-22T07:37:23.000Z</time>
      </trkpt>
      <trkpt lat="46.85163" lon="4.71821">
        <ele>315</ele>
        <time>2012-07-22T07:37:50.000Z</time>
      </trkpt>
      <trkpt lat="46.85166" lon="4.71818">
        <ele>315</ele>
        <time>2012-07-22T07:37:52.000Z</time>
      </trkpt>
      <trkpt lat="46.85168" lon="4.71817">
        <ele>315</ele>
        <time>2012-07-22T07:37:54.000Z</time>
      </trkpt>
      <trkpt lat="46.85169" lon="4.71815">
        <ele>314</ele>
        <time>2012-07-22T07:37:56.000Z</time>
      </trkpt>
      <trkpt lat="46.8517" lon="4.71812">
        <ele>314</ele>
        <time>2012-07-22T07:37:59.000Z</time>
      </trkpt>
      <trkpt lat="46.85172" lon="4.7181">
        <ele>314</ele>
        <time>2012-07-22T07:38:02.000Z</time>
      </trkpt>
      <trkpt lat="46.85173" lon="4.71806">
        <ele>314</ele>
        <time>2012-07-22T07:38:04.000Z</time>
      </trkpt>
      <trkpt lat="46.85174" lon="4.71802">
        <ele>314</ele>
        <time>2012-07-22T07:38:07.000Z</time>
      </trkpt>
      <trkpt lat="46.85174" lon="4.718">
        <ele>314</ele>
        <time>2012-07-22T07:38:10.000Z</time>
      </trkpt>
      <trkpt lat="46.85173" lon="4.71796">
        <ele>314</ele>
        <time>2012-07-22T07:38:12.000Z</time>
      </trkpt>
      <trkpt lat="46.85173" lon="4.7179">
        <ele>314</ele>
        <time>2012-07-22T07:38:18.000Z</time>
      </trkpt>
      <trkpt lat="46.85174" lon="4.71785">
        <ele>315</ele>
        <time>2012-07-22T07:38:22.000Z</time>
      </trkpt>
      <trkpt lat="46.85175" lon="4.71781">
        <ele>315</ele>
        <time>2012-07-22T07:38:25.000Z</time>
      </trkpt>
      <trkpt lat="46.8518" lon="4.71761">
        <ele>315</ele>
        <time>2012-07-22T07:38:36.000Z</time>
      </trkpt>
      <trkpt lat="46.85179" lon="4.71757">
        <ele>315</ele>
        <time>2012-07-22T07:38:38.000Z</time>
      </trkpt>
      <trkpt lat="46.85179" lon="4.71753">
        <ele>315</ele>
        <time>2012-07-22T07:38:40.000Z</time>
      </trkpt>
      <trkpt lat="46.85178" lon="4.71749">
        <ele>315</ele>
        <time>2012-07-22T07:38:43.000Z</time>
      </trkpt>
      <trkpt lat="46.85178" lon="4.71748">
        <ele>316</ele>
        <time>2012-07-22T07:38:46.000Z</time>
      </trkpt>
      <trkpt lat="46.85177" lon="4.71746">
        <ele>316</ele>
        <time>2012-07-22T07:38:48.000Z</time>
      </trkpt>
      <trkpt lat="46.85174" lon="4.71744">
        <ele>316</ele>
        <time>2012-07-22T07:38:51.000Z</time>
      </trkpt>
      <trkpt lat="46.85172" lon="4.71741">
        <ele>317</ele>
        <time>2012-07-22T07:38:54.000Z</time>
      </trkpt>
      <trkpt lat="46.85168" lon="4.71736">
        <ele>318</ele>
        <time>2012-07-22T07:38:56.000Z</time>
      </trkpt>
      <trkpt lat="46.85167" lon="4.71732">
        <ele>319</ele>
        <time>2012-07-22T07:39:02.000Z</time>
      </trkpt>
      <trkpt lat="46.85165" lon="4.7173">
        <ele>320</ele>
        <time>2012-07-22T07:39:04.000Z</time>
      </trkpt>
      <trkpt lat="46.85162" lon="4.71727">
        <ele>321</ele>
        <time>2012-07-22T07:39:10.000Z</time>
      </trkpt>
      <trkpt lat="46.85161" lon="4.71722">
        <ele>322</ele>
        <time>2012-07-22T07:39:15.000Z</time>
      </trkpt>
      <trkpt lat="46.85162" lon="4.7172">
        <ele>322</ele>
        <time>2012-07-22T07:39:18.000Z</time>
      </trkpt>
      <trkpt lat="46.85161" lon="4.71717">
        <ele>322</ele>
        <time>2012-07-22T07:39:20.000Z</time>
      </trkpt>
      <trkpt lat="46.85158" lon="4.71709">
        <ele>323</ele>
        <time>2012-07-22T07:39:26.000Z</time>
      </trkpt>
      <trkpt lat="46.85156" lon="4.71707">
        <ele>323</ele>
        <time>2012-07-22T07:39:29.000Z</time>
      </trkpt>
      <trkpt lat="46.85153" lon="4.71704">
        <ele>324</ele>
        <time>2012-07-22T07:39:31.000Z</time>
      </trkpt>
      <trkpt lat="46.85153" lon="4.71701">
        <ele>324</ele>
        <time>2012-07-22T07:39:33.000Z</time>
      </trkpt>
      <trkpt lat="46.85154" lon="4.71695">
        <ele>325</ele>
        <time>2012-07-22T07:39:36.000Z</time>
      </trkpt>
      <trkpt lat="46.8516" lon="4.71684">
        <ele>325</ele>
        <time>2012-07-22T07:39:38.000Z</time>
      </trkpt>
      <trkpt lat="46.8516" lon="4.71677">
        <ele>325</ele>
        <time>2012-07-22T07:39:41.000Z</time>
      </trkpt>
      <trkpt lat="46.85159" lon="4.71672">
        <ele>325</ele>
        <time>2012-07-22T07:39:43.000Z</time>
      </trkpt>
      <trkpt lat="46.85158" lon="4.71668">
        <ele>325</ele>
        <time>2012-07-22T07:39:46.000Z</time>
      </trkpt>
      <trkpt lat="46.85156" lon="4.71661">
        <ele>326</ele>
        <time>2012-07-22T07:39:48.000Z</time>
      </trkpt>
      <trkpt lat="46.85155" lon="4.7165">
        <ele>327</ele>
        <time>2012-07-22T07:39:54.000Z</time>
      </trkpt>
      <trkpt lat="46.85155" lon="4.71643">
        <ele>327</ele>
        <time>2012-07-22T07:39:57.000Z</time>
      </trkpt>
      <trkpt lat="46.85154" lon="4.71636">
        <ele>327</ele>
        <time>2012-07-22T07:40:00.000Z</time>
      </trkpt>
      <trkpt lat="46.85151" lon="4.71629">
        <ele>328</ele>
        <time>2012-07-22T07:40:02.000Z</time>
      </trkpt>
      <trkpt lat="46.85147" lon="4.7162">
        <ele>329</ele>
        <time>2012-07-22T07:40:06.000Z</time>
      </trkpt>
      <trkpt lat="46.85143" lon="4.71603">
        <ele>330</ele>
        <time>2012-07-22T07:40:11.000Z</time>
      </trkpt>
      <trkpt lat="46.85143" lon="4.71598">
        <ele>330</ele>
        <time>2012-07-22T07:40:14.000Z</time>
      </trkpt>
      <trkpt lat="46.8514" lon="4.71585">
        <ele>331</ele>
        <time>2012-07-22T07:40:17.000Z</time>
      </trkpt>
      <trkpt lat="46.85138" lon="4.71572">
        <ele>332</ele>
        <time>2012-07-22T07:40:19.000Z</time>
      </trkpt>
      <trkpt lat="46.85132" lon="4.71548">
        <ele>332</ele>
        <time>2012-07-22T07:40:26.000Z</time>
      </trkpt>
      <trkpt lat="46.8513" lon="4.71541">
        <ele>333</ele>
        <time>2012-07-22T07:40:29.000Z</time>
      </trkpt>
      <trkpt lat="46.85127" lon="4.71536">
        <ele>333</ele>
        <time>2012-07-22T07:40:32.000Z</time>
      </trkpt>
      <trkpt lat="46.85123" lon="4.71516">
        <ele>333</ele>
        <time>2012-07-22T07:40:36.000Z</time>
      </trkpt>
      <trkpt lat="46.85124" lon="4.71505">
        <ele>333</ele>
        <time>2012-07-22T07:40:39.000Z</time>
      </trkpt>
      <trkpt lat="46.85121" lon="4.71475">
        <ele>332</ele>
        <time>2012-07-22T07:40:47.000Z</time>
      </trkpt>
      <trkpt lat="46.85117" lon="4.71469">
        <ele>332</ele>
        <time>2012-07-22T07:40:49.000Z</time>
      </trkpt>
      <trkpt lat="46.85116" lon="4.7146">
        <ele>332</ele>
        <time>2012-07-22T07:40:52.000Z</time>
      </trkpt>
      <trkpt lat="46.85116" lon="4.71453">
        <ele>331</ele>
        <time>2012-07-22T07:40:54.000Z</time>
      </trkpt>
      <trkpt lat="46.85118" lon="4.71441">
        <ele>331</ele>
        <time>2012-07-22T07:40:57.000Z</time>
      </trkpt>
      <trkpt lat="46.85119" lon="4.71435">
        <ele>330</ele>
        <time>2012-07-22T07:40:59.000Z</time>
      </trkpt>
      <trkpt lat="46.85118" lon="4.71422">
        <ele>329</ele>
        <time>2012-07-22T07:41:02.000Z</time>
      </trkpt>
      <trkpt lat="46.85118" lon="4.71416">
        <ele>328</ele>
        <time>2012-07-22T07:41:04.000Z</time>
      </trkpt>
      <trkpt lat="46.85115" lon="4.71409">
        <ele>328</ele>
        <time>2012-07-22T07:41:06.000Z</time>
      </trkpt>
      <trkpt lat="46.85112" lon="4.71403">
        <ele>327</ele>
        <time>2012-07-22T07:41:08.000Z</time>
      </trkpt>
      <trkpt lat="46.85099" lon="4.71379">
        <ele>328</ele>
        <time>2012-07-22T07:41:16.000Z</time>
      </trkpt>
      <trkpt lat="46.85095" lon="4.71368">
        <ele>328</ele>
        <time>2012-07-22T07:41:19.000Z</time>
      </trkpt>
      <trkpt lat="46.8509" lon="4.71358">
        <ele>328</ele>
        <time>2012-07-22T07:41:22.000Z</time>
      </trkpt>
      <trkpt lat="46.85088" lon="4.71353">
        <ele>329</ele>
        <time>2012-07-22T07:41:24.000Z</time>
      </trkpt>
      <trkpt lat="46.85084" lon="4.71341">
        <ele>329</ele>
        <time>2012-07-22T07:41:29.000Z</time>
      </trkpt>
      <trkpt lat="46.85081" lon="4.71321">
        <ele>328</ele>
        <time>2012-07-22T07:41:35.000Z</time>
      </trkpt>
      <trkpt lat="46.85077" lon="4.71314">
        <ele>328</ele>
        <time>2012-07-22T07:41:37.000Z</time>
      </trkpt>
      <trkpt lat="46.85073" lon="4.71302">
        <ele>327</ele>
        <time>2012-07-22T07:41:40.000Z</time>
      </trkpt>
      <trkpt lat="46.85072" lon="4.71293">
        <ele>326</ele>
        <time>2012-07-22T07:41:43.000Z</time>
      </trkpt>
      <trkpt lat="46.85072" lon="4.71287">
        <ele>325</ele>
        <time>2012-07-22T07:41:45.000Z</time>
      </trkpt>
      <trkpt lat="46.85066" lon="4.71277">
        <ele>324</ele>
        <time>2012-07-22T07:41:48.000Z</time>
      </trkpt>
      <trkpt lat="46.85064" lon="4.71268">
        <ele>323</ele>
        <time>2012-07-22T07:41:51.000Z</time>
      </trkpt>
      <trkpt lat="46.85064" lon="4.71259">
        <ele>323</ele>
        <time>2012-07-22T07:41:54.000Z</time>
      </trkpt>
      <trkpt lat="46.85059" lon="4.71249">
        <ele>322</ele>
        <time>2012-07-22T07:41:57.000Z</time>
      </trkpt>
      <trkpt lat="46.85046" lon="4.71239">
        <ele>322</ele>
        <time>2012-07-22T07:42:00.000Z</time>
      </trkpt>
      <trkpt lat="46.85042" lon="4.71234">
        <ele>322</ele>
        <time>2012-07-22T07:42:02.000Z</time>
      </trkpt>
      <trkpt lat="46.85033" lon="4.71225">
        <ele>323</ele>
        <time>2012-07-22T07:42:04.000Z</time>
      </trkpt>
      <trkpt lat="46.8503" lon="4.71219">
        <ele>324</ele>
        <time>2012-07-22T07:42:06.000Z</time>
      </trkpt>
      <trkpt lat="46.85025" lon="4.71213">
        <ele>325</ele>
        <time>2012-07-22T07:42:09.000Z</time>
      </trkpt>
      <trkpt lat="46.85019" lon="4.71207">
        <ele>326</ele>
        <time>2012-07-22T07:42:12.000Z</time>
      </trkpt>
      <trkpt lat="46.85009" lon="4.712">
        <ele>327</ele>
        <time>2012-07-22T07:42:14.000Z</time>
      </trkpt>
      <trkpt lat="46.84996" lon="4.71193">
        <ele>328</ele>
        <time>2012-07-22T07:42:19.000Z</time>
      </trkpt>
      <trkpt lat="46.84995" lon="4.71191">
        <ele>329</ele>
        <time>2012-07-22T07:42:22.000Z</time>
      </trkpt>
      <trkpt lat="46.84989" lon="4.7119">
        <ele>330</ele>
        <time>2012-07-22T07:42:25.000Z</time>
      </trkpt>
      <trkpt lat="46.84982" lon="4.7119">
        <ele>331</ele>
        <time>2012-07-22T07:42:27.000Z</time>
      </trkpt>
      <trkpt lat="46.84978" lon="4.71188">
        <ele>332</ele>
        <time>2012-07-22T07:42:30.000Z</time>
      </trkpt>
      <trkpt lat="46.8497" lon="4.71186">
        <ele>333</ele>
        <time>2012-07-22T07:42:35.000Z</time>
      </trkpt>
      <trkpt lat="46.84966" lon="4.71187">
        <ele>334</ele>
        <time>2012-07-22T07:42:38.000Z</time>
      </trkpt>
      <trkpt lat="46.84962" lon="4.71187">
        <ele>334</ele>
        <time>2012-07-22T07:42:40.000Z</time>
      </trkpt>
      <trkpt lat="46.84961" lon="4.71187">
        <ele>335</ele>
        <time>2012-07-22T07:42:43.000Z</time>
      </trkpt>
      <trkpt lat="46.8496" lon="4.71186">
        <ele>336</ele>
        <time>2012-07-22T07:42:46.000Z</time>
      </trkpt>
      <trkpt lat="46.84959" lon="4.71184">
        <ele>336</ele>
        <time>2012-07-22T07:42:50.000Z</time>
      </trkpt>
      <trkpt lat="46.84954" lon="4.71182">
        <ele>336</ele>
        <time>2012-07-22T07:43:00.000Z</time>
      </trkpt>
      <trkpt lat="46.8495" lon="4.7118">
        <ele>337</ele>
        <time>2012-07-22T07:43:03.000Z</time>
      </trkpt>
      <trkpt lat="46.84943" lon="4.71174">
        <ele>338</ele>
        <time>2012-07-22T07:43:10.000Z</time>
      </trkpt>
      <trkpt lat="46.84939" lon="4.71171">
        <ele>338</ele>
        <time>2012-07-22T07:43:12.000Z</time>
      </trkpt>
      <trkpt lat="46.8493" lon="4.71166">
        <ele>339</ele>
        <time>2012-07-22T07:43:14.000Z</time>
      </trkpt>
      <trkpt lat="46.84922" lon="4.71163">
        <ele>339</ele>
        <time>2012-07-22T07:43:17.000Z</time>
      </trkpt>
      <trkpt lat="46.84912" lon="4.7116">
        <ele>340</ele>
        <time>2012-07-22T07:43:20.000Z</time>
      </trkpt>
      <trkpt lat="46.84904" lon="4.71158">
        <ele>341</ele>
        <time>2012-07-22T07:43:23.000Z</time>
      </trkpt>
      <trkpt lat="46.84856" lon="4.71142">
        <ele>341</ele>
        <time>2012-07-22T07:43:31.000Z</time>
      </trkpt>
      <trkpt lat="46.84849" lon="4.71137">
        <ele>341</ele>
        <time>2012-07-22T07:43:34.000Z</time>
      </trkpt>
      <trkpt lat="46.8483" lon="4.71111">
        <ele>340</ele>
        <time>2012-07-22T07:43:38.000Z</time>
      </trkpt>
      <trkpt lat="46.84791" lon="4.7109">
        <ele>338</ele>
        <time>2012-07-22T07:43:42.000Z</time>
      </trkpt>
      <trkpt lat="46.84779" lon="4.71079">
        <ele>336</ele>
        <time>2012-07-22T07:43:44.000Z</time>
      </trkpt>
      <trkpt lat="46.84766" lon="4.7107">
        <ele>334</ele>
        <time>2012-07-22T07:43:46.000Z</time>
      </trkpt>
      <trkpt lat="46.84753" lon="4.7105">
        <ele>331</ele>
        <time>2012-07-22T07:43:48.000Z</time>
      </trkpt>
      <trkpt lat="46.84744" lon="4.71041">
        <ele>328</ele>
        <time>2012-07-22T07:43:51.000Z</time>
      </trkpt>
      <trkpt lat="46.84735" lon="4.71033">
        <ele>326</ele>
        <time>2012-07-22T07:43:53.000Z</time>
      </trkpt>
      <trkpt lat="46.84723" lon="4.71023">
        <ele>325</ele>
        <time>2012-07-22T07:43:56.000Z</time>
      </trkpt>
      <trkpt lat="46.84716" lon="4.71018">
        <ele>323</ele>
        <time>2012-07-22T07:43:58.000Z</time>
      </trkpt>
      <trkpt lat="46.84709" lon="4.71004">
        <ele>322</ele>
        <time>2012-07-22T07:44:00.000Z</time>
      </trkpt>
      <trkpt lat="46.84701" lon="4.70994">
        <ele>321</ele>
        <time>2012-07-22T07:44:02.000Z</time>
      </trkpt>
      <trkpt lat="46.84695" lon="4.70985">
        <ele>320</ele>
        <time>2012-07-22T07:44:05.000Z</time>
      </trkpt>
      <trkpt lat="46.84683" lon="4.70969">
        <ele>318</ele>
        <time>2012-07-22T07:44:08.000Z</time>
      </trkpt>
      <trkpt lat="46.84672" lon="4.70956">
        <ele>317</ele>
        <time>2012-07-22T07:44:11.000Z</time>
      </trkpt>
      <trkpt lat="46.84663" lon="4.70939">
        <ele>315</ele>
        <time>2012-07-22T07:44:14.000Z</time>
      </trkpt>
      <trkpt lat="46.84647" lon="4.70916">
        <ele>314</ele>
        <time>2012-07-22T07:44:17.000Z</time>
      </trkpt>
      <trkpt lat="46.84636" lon="4.70906">
        <ele>312</ele>
        <time>2012-07-22T07:44:20.000Z</time>
      </trkpt>
      <trkpt lat="46.84623" lon="4.709">
        <ele>312</ele>
        <time>2012-07-22T07:44:23.000Z</time>
      </trkpt>
      <trkpt lat="46.84618" lon="4.70897">
        <ele>311</ele>
        <time>2012-07-22T07:44:26.000Z</time>
      </trkpt>
      <trkpt lat="46.84613" lon="4.7089">
        <ele>311</ele>
        <time>2012-07-22T07:44:28.000Z</time>
      </trkpt>
      <trkpt lat="46.846" lon="4.7083">
        <ele>311</ele>
        <time>2012-07-22T07:44:42.000Z</time>
      </trkpt>
      <trkpt lat="46.84591" lon="4.70795">
        <ele>310</ele>
        <time>2012-07-22T07:44:48.000Z</time>
      </trkpt>
      <trkpt lat="46.84585" lon="4.70779">
        <ele>310</ele>
        <time>2012-07-22T07:44:51.000Z</time>
      </trkpt>
      <trkpt lat="46.84579" lon="4.7076">
        <ele>309</ele>
        <time>2012-07-22T07:44:53.000Z</time>
      </trkpt>
      <trkpt lat="46.84573" lon="4.70742">
        <ele>308</ele>
        <time>2012-07-22T07:44:58.000Z</time>
      </trkpt>
      <trkpt lat="46.84552" lon="4.70697">
        <ele>309</ele>
        <time>2012-07-22T07:45:09.000Z</time>
      </trkpt>
      <trkpt lat="46.84545" lon="4.70689">
        <ele>309</ele>
        <time>2012-07-22T07:45:11.000Z</time>
      </trkpt>
      <trkpt lat="46.84525" lon="4.7067">
        <ele>310</ele>
        <time>2012-07-22T07:45:16.000Z</time>
      </trkpt>
      <trkpt lat="46.84511" lon="4.7066">
        <ele>310</ele>
        <time>2012-07-22T07:45:19.000Z</time>
      </trkpt>
      <trkpt lat="46.84497" lon="4.70651">
        <ele>311</ele>
        <time>2012-07-22T07:45:22.000Z</time>
      </trkpt>
      <trkpt lat="46.84459" lon="4.70632">
        <ele>312</ele>
        <time>2012-07-22T07:45:28.000Z</time>
      </trkpt>
      <trkpt lat="46.84454" lon="4.70623">
        <ele>312</ele>
        <time>2012-07-22T07:45:30.000Z</time>
      </trkpt>
      <trkpt lat="46.84429" lon="4.706">
        <ele>313</ele>
        <time>2012-07-22T07:45:34.000Z</time>
      </trkpt>
      <trkpt lat="46.84431" lon="4.70585">
        <ele>312</ele>
        <time>2012-07-22T07:45:36.000Z</time>
      </trkpt>
      <trkpt lat="46.84441" lon="4.70564">
        <ele>312</ele>
        <time>2012-07-22T07:45:39.000Z</time>
      </trkpt>
      <trkpt lat="46.84459" lon="4.705">
        <ele>313</ele>
        <time>2012-07-22T07:45:49.000Z</time>
      </trkpt>
      <trkpt lat="46.84462" lon="4.70481">
        <ele>314</ele>
        <time>2012-07-22T07:45:54.000Z</time>
      </trkpt>
      <trkpt lat="46.84464" lon="4.70474">
        <ele>315</ele>
        <time>2012-07-22T07:45:56.000Z</time>
      </trkpt>
      <trkpt lat="46.84462" lon="4.70467">
        <ele>315</ele>
        <time>2012-07-22T07:45:59.000Z</time>
      </trkpt>
      <trkpt lat="46.84459" lon="4.70461">
        <ele>316</ele>
        <time>2012-07-22T07:46:01.000Z</time>
      </trkpt>
      <trkpt lat="46.8445" lon="4.70451">
        <ele>316</ele>
        <time>2012-07-22T07:46:04.000Z</time>
      </trkpt>
      <trkpt lat="46.8441" lon="4.70408">
        <ele>315</ele>
        <time>2012-07-22T07:46:15.000Z</time>
      </trkpt>
      <trkpt lat="46.84386" lon="4.70388">
        <ele>315</ele>
        <time>2012-07-22T07:46:23.000Z</time>
      </trkpt>
      <trkpt lat="46.84375" lon="4.70381">
        <ele>314</ele>
        <time>2012-07-22T07:46:26.000Z</time>
      </trkpt>
      <trkpt lat="46.84364" lon="4.70376">
        <ele>314</ele>
        <time>2012-07-22T07:46:29.000Z</time>
      </trkpt>
      <trkpt lat="46.8435" lon="4.70371">
        <ele>313</ele>
        <time>2012-07-22T07:46:33.000Z</time>
      </trkpt>
      <trkpt lat="46.84331" lon="4.70359">
        <ele>312</ele>
        <time>2012-07-22T07:46:39.000Z</time>
      </trkpt>
      <trkpt lat="46.8432" lon="4.7035">
        <ele>312</ele>
        <time>2012-07-22T07:46:42.000Z</time>
      </trkpt>
      <trkpt lat="46.84312" lon="4.70341">
        <ele>312</ele>
        <time>2012-07-22T07:46:44.000Z</time>
      </trkpt>
      <trkpt lat="46.84306" lon="4.70332">
        <ele>311</ele>
        <time>2012-07-22T07:46:46.000Z</time>
      </trkpt>
      <trkpt lat="46.84298" lon="4.70325">
        <ele>310</ele>
        <time>2012-07-22T07:46:48.000Z</time>
      </trkpt>
      <trkpt lat="46.84285" lon="4.70323">
        <ele>310</ele>
        <time>2012-07-22T07:46:51.000Z</time>
      </trkpt>
      <trkpt lat="46.84278" lon="4.70327">
        <ele>309</ele>
        <time>2012-07-22T07:46:53.000Z</time>
      </trkpt>
      <trkpt lat="46.84267" lon="4.70325">
        <ele>308</ele>
        <time>2012-07-22T07:46:55.000Z</time>
      </trkpt>
      <trkpt lat="46.84262" lon="4.70321">
        <ele>307</ele>
        <time>2012-07-22T07:46:58.000Z</time>
      </trkpt>
      <trkpt lat="46.84256" lon="4.70311">
        <ele>306</ele>
        <time>2012-07-22T07:47:00.000Z</time>
      </trkpt>
      <trkpt lat="46.84254" lon="4.70301">
        <ele>306</ele>
        <time>2012-07-22T07:47:02.000Z</time>
      </trkpt>
      <trkpt lat="46.8425" lon="4.70291">
        <ele>305</ele>
        <time>2012-07-22T07:47:05.000Z</time>
      </trkpt>
      <trkpt lat="46.8424" lon="4.70272">
        <ele>305</ele>
        <time>2012-07-22T07:47:08.000Z</time>
      </trkpt>
      <trkpt lat="46.8423" lon="4.70258">
        <ele>305</ele>
        <time>2012-07-22T07:47:11.000Z</time>
      </trkpt>
      <trkpt lat="46.84216" lon="4.70232">
        <ele>304</ele>
        <time>2012-07-22T07:47:16.000Z</time>
      </trkpt>
      <trkpt lat="46.84207" lon="4.7022">
        <ele>304</ele>
        <time>2012-07-22T07:47:19.000Z</time>
      </trkpt>
      <trkpt lat="46.84199" lon="4.70205">
        <ele>304</ele>
        <time>2012-07-22T07:47:22.000Z</time>
      </trkpt>
      <trkpt lat="46.84193" lon="4.70196">
        <ele>305</ele>
        <time>2012-07-22T07:47:24.000Z</time>
      </trkpt>
      <trkpt lat="46.84173" lon="4.70163">
        <ele>306</ele>
        <time>2012-07-22T07:47:32.000Z</time>
      </trkpt>
      <trkpt lat="46.84157" lon="4.70143">
        <ele>307</ele>
        <time>2012-07-22T07:47:37.000Z</time>
      </trkpt>
      <trkpt lat="46.84152" lon="4.70158">
        <ele>307</ele>
        <time>2012-07-22T07:47:40.000Z</time>
      </trkpt>
      <trkpt lat="46.84144" lon="4.70177">
        <ele>306</ele>
        <time>2012-07-22T07:47:43.000Z</time>
      </trkpt>
      <trkpt lat="46.84138" lon="4.70189">
        <ele>305</ele>
        <time>2012-07-22T07:47:45.000Z</time>
      </trkpt>
      <trkpt lat="46.84124" lon="4.70192">
        <ele>304</ele>
        <time>2012-07-22T07:47:48.000Z</time>
      </trkpt>
      <trkpt lat="46.84109" lon="4.70178">
        <ele>303</ele>
        <time>2012-07-22T07:47:51.000Z</time>
      </trkpt>
      <trkpt lat="46.84095" lon="4.70164">
        <ele>302</ele>
        <time>2012-07-22T07:47:54.000Z</time>
      </trkpt>
      <trkpt lat="46.84085" lon="4.70155">
        <ele>301</ele>
        <time>2012-07-22T07:47:56.000Z</time>
      </trkpt>
      <trkpt lat="46.84074" lon="4.70147">
        <ele>301</ele>
        <time>2012-07-22T07:47:59.000Z</time>
      </trkpt>
      <trkpt lat="46.84068" lon="4.70143">
        <ele>302</ele>
        <time>2012-07-22T07:48:01.000Z</time>
      </trkpt>
      <trkpt lat="46.84059" lon="4.70136">
        <ele>303</ele>
        <time>2012-07-22T07:48:04.000Z</time>
      </trkpt>
      <trkpt lat="46.84052" lon="4.7013">
        <ele>304</ele>
        <time>2012-07-22T07:48:07.000Z</time>
      </trkpt>
      <trkpt lat="46.84047" lon="4.70125">
        <ele>306</ele>
        <time>2012-07-22T07:48:10.000Z</time>
      </trkpt>
      <trkpt lat="46.84043" lon="4.70122">
        <ele>307</ele>
        <time>2012-07-22T07:48:12.000Z</time>
      </trkpt>
      <trkpt lat="46.84038" lon="4.70115">
        <ele>308</ele>
        <time>2012-07-22T07:48:15.000Z</time>
      </trkpt>
      <trkpt lat="46.84041" lon="4.70109">
        <ele>309</ele>
        <time>2012-07-22T07:48:17.000Z</time>
      </trkpt>
      <trkpt lat="46.84042" lon="4.70107">
        <ele>310</ele>
        <time>2012-07-22T07:48:21.000Z</time>
      </trkpt>
      <trkpt lat="46.84044" lon="4.70115">
        <ele>310</ele>
        <time>2012-07-22T07:48:26.000Z</time>
      </trkpt>
      <trkpt lat="46.84045" lon="4.70114">
        <ele>310</ele>
        <time>2012-07-22T07:48:28.000Z</time>
      </trkpt>
      <trkpt lat="46.84048" lon="4.7011">
        <ele>310</ele>
        <time>2012-07-22T07:48:31.000Z</time>
      </trkpt>
      <trkpt lat="46.84052" lon="4.70102">
        <ele>310</ele>
        <time>2012-07-22T07:48:36.000Z</time>
      </trkpt>
      <trkpt lat="46.84055" lon="4.70097">
        <ele>311</ele>
        <time>2012-07-22T07:48:41.000Z</time>
      </trkpt>
      <trkpt lat="46.84061" lon="4.70088">
        <ele>312</ele>
        <time>2012-07-22T07:48:46.000Z</time>
      </trkpt>
      <trkpt lat="46.84065" lon="4.70079">
        <ele>313</ele>
        <time>2012-07-22T07:48:54.000Z</time>
      </trkpt>
      <trkpt lat="46.84066" lon="4.70075">
        <ele>313</ele>
        <time>2012-07-22T07:48:57.000Z</time>
      </trkpt>
      <trkpt lat="46.84072" lon="4.70061">
        <ele>314</ele>
        <time>2012-07-22T07:49:04.000Z</time>
      </trkpt>
      <trkpt lat="46.84076" lon="4.7005">
        <ele>315</ele>
        <time>2012-07-22T07:49:10.000Z</time>
      </trkpt>
      <trkpt lat="46.84082" lon="4.70039">
        <ele>316</ele>
        <time>2012-07-22T07:49:17.000Z</time>
      </trkpt>
      <trkpt lat="46.84086" lon="4.70029">
        <ele>317</ele>
        <time>2012-07-22T07:49:22.000Z</time>
      </trkpt>
      <trkpt lat="46.84089" lon="4.70024">
        <ele>318</ele>
        <time>2012-07-22T07:49:24.000Z</time>
      </trkpt>
      <trkpt lat="46.84095" lon="4.70013">
        <ele>319</ele>
        <time>2012-07-22T07:49:30.000Z</time>
      </trkpt>
      <trkpt lat="46.84098" lon="4.70008">
        <ele>320</ele>
        <time>2012-07-22T07:49:33.000Z</time>
      </trkpt>
      <trkpt lat="46.84103" lon="4.69999">
        <ele>321</ele>
        <time>2012-07-22T07:49:38.000Z</time>
      </trkpt>
      <trkpt lat="46.84104" lon="4.69998">
        <ele>321</ele>
        <time>2012-07-22T07:49:40.000Z</time>
      </trkpt>
      <trkpt lat="46.84105" lon="4.69995">
        <ele>322</ele>
        <time>2012-07-22T07:49:42.000Z</time>
      </trkpt>
      <trkpt lat="46.84108" lon="4.69991">
        <ele>322</ele>
        <time>2012-07-22T07:49:44.000Z</time>
      </trkpt>
      <trkpt lat="46.84111" lon="4.69988">
        <ele>323</ele>
        <time>2012-07-22T07:49:47.000Z</time>
      </trkpt>
      <trkpt lat="46.84114" lon="4.69984">
        <ele>323</ele>
        <time>2012-07-22T07:49:51.000Z</time>
      </trkpt>
      <trkpt lat="46.84121" lon="4.69973">
        <ele>324</ele>
        <time>2012-07-22T07:49:56.000Z</time>
      </trkpt>
      <trkpt lat="46.84135" lon="4.6995">
        <ele>325</ele>
        <time>2012-07-22T07:50:04.000Z</time>
      </trkpt>
      <trkpt lat="46.84139" lon="4.69943">
        <ele>326</ele>
        <time>2012-07-22T07:50:06.000Z</time>
      </trkpt>
      <trkpt lat="46.84145" lon="4.69935">
        <ele>326</ele>
        <time>2012-07-22T07:50:12.000Z</time>
      </trkpt>
      <trkpt lat="46.84147" lon="4.69928">
        <ele>327</ele>
        <time>2012-07-22T07:50:15.000Z</time>
      </trkpt>
      <trkpt lat="46.84148" lon="4.69921">
        <ele>327</ele>
        <time>2012-07-22T07:50:18.000Z</time>
      </trkpt>
      <trkpt lat="46.84148" lon="4.69914">
        <ele>328</ele>
        <time>2012-07-22T07:50:21.000Z</time>
      </trkpt>
      <trkpt lat="46.84147" lon="4.69908">
        <ele>328</ele>
        <time>2012-07-22T07:50:23.000Z</time>
      </trkpt>
      <trkpt lat="46.84143" lon="4.69901">
        <ele>328</ele>
        <time>2012-07-22T07:50:27.000Z</time>
      </trkpt>
      <trkpt lat="46.84139" lon="4.69895">
        <ele>329</ele>
        <time>2012-07-22T07:50:30.000Z</time>
      </trkpt>
      <trkpt lat="46.84131" lon="4.69885">
        <ele>330</ele>
        <time>2012-07-22T07:50:35.000Z</time>
      </trkpt>
      <trkpt lat="46.84128" lon="4.6988">
        <ele>330</ele>
        <time>2012-07-22T07:50:38.000Z</time>
      </trkpt>
      <trkpt lat="46.84126" lon="4.69869">
        <ele>330</ele>
        <time>2012-07-22T07:50:41.000Z</time>
      </trkpt>
      <trkpt lat="46.84126" lon="4.69859">
        <ele>331</ele>
        <time>2012-07-22T07:50:43.000Z</time>
      </trkpt>
      <trkpt lat="46.84122" lon="4.69852">
        <ele>331</ele>
        <time>2012-07-22T07:50:46.000Z</time>
      </trkpt>
      <trkpt lat="46.84116" lon="4.69842">
        <ele>332</ele>
        <time>2012-07-22T07:50:49.000Z</time>
      </trkpt>
      <trkpt lat="46.84106" lon="4.69829">
        <ele>333</ele>
        <time>2012-07-22T07:50:53.000Z</time>
      </trkpt>
      <trkpt lat="46.84105" lon="4.69825">
        <ele>333</ele>
        <time>2012-07-22T07:50:56.000Z</time>
      </trkpt>
      <trkpt lat="46.84106" lon="4.69819">
        <ele>334</ele>
        <time>2012-07-22T07:50:58.000Z</time>
      </trkpt>
      <trkpt lat="46.84105" lon="4.69814">
        <ele>334</ele>
        <time>2012-07-22T07:51:01.000Z</time>
      </trkpt>
      <trkpt lat="46.84101" lon="4.69806">
        <ele>334</ele>
        <time>2012-07-22T07:51:03.000Z</time>
      </trkpt>
      <trkpt lat="46.84097" lon="4.69801">
        <ele>335</ele>
        <time>2012-07-22T07:51:06.000Z</time>
      </trkpt>
      <trkpt lat="46.84087" lon="4.69794">
        <ele>335</ele>
        <time>2012-07-22T07:51:09.000Z</time>
      </trkpt>
      <trkpt lat="46.84079" lon="4.69787">
        <ele>336</ele>
        <time>2012-07-22T07:51:14.000Z</time>
      </trkpt>
      <trkpt lat="46.84077" lon="4.69784">
        <ele>336</ele>
        <time>2012-07-22T07:51:16.000Z</time>
      </trkpt>
      <trkpt lat="46.84065" lon="4.69765">
        <ele>337</ele>
        <time>2012-07-22T07:51:24.000Z</time>
      </trkpt>
      <trkpt lat="46.84061" lon="4.69761">
        <ele>337</ele>
        <time>2012-07-22T07:51:26.000Z</time>
      </trkpt>
      <trkpt lat="46.84051" lon="4.6975">
        <ele>338</ele>
        <time>2012-07-22T07:51:34.000Z</time>
      </trkpt>
      <trkpt lat="46.8405" lon="4.69748">
        <ele>338</ele>
        <time>2012-07-22T07:51:36.000Z</time>
      </trkpt>
      <trkpt lat="46.84044" lon="4.69743">
        <ele>338</ele>
        <time>2012-07-22T07:51:39.000Z</time>
      </trkpt>
      <trkpt lat="46.84037" lon="4.69739">
        <ele>338</ele>
        <time>2012-07-22T07:51:41.000Z</time>
      </trkpt>
      <trkpt lat="46.84003" lon="4.69722">
        <ele>339</ele>
        <time>2012-07-22T07:51:52.000Z</time>
      </trkpt>
      <trkpt lat="46.83957" lon="4.69694">
        <ele>339</ele>
        <time>2012-07-22T07:52:05.000Z</time>
      </trkpt>
      <trkpt lat="46.8395" lon="4.69687">
        <ele>339</ele>
        <time>2012-07-22T07:52:08.000Z</time>
      </trkpt>
      <trkpt lat="46.83937" lon="4.69672">
        <ele>338</ele>
        <time>2012-07-22T07:52:14.000Z</time>
      </trkpt>
      <trkpt lat="46.83903" lon="4.69621">
        <ele>337</ele>
        <time>2012-07-22T07:52:31.000Z</time>
      </trkpt>
      <trkpt lat="46.83902" lon="4.69619">
        <ele>337</ele>
        <time>2012-07-22T07:52:34.000Z</time>
      </trkpt>
      <trkpt lat="46.83902" lon="4.69618">
        <ele>337</ele>
        <time>2012-07-22T07:52:38.000Z</time>
      </trkpt>
      <trkpt lat="46.839" lon="4.69616">
        <ele>336</ele>
        <time>2012-07-22T07:52:40.000Z</time>
      </trkpt>
      <trkpt lat="46.83893" lon="4.69613">
        <ele>336</ele>
        <time>2012-07-22T07:52:43.000Z</time>
      </trkpt>
      <trkpt lat="46.83885" lon="4.69614">
        <ele>336</ele>
        <time>2012-07-22T07:52:45.000Z</time>
      </trkpt>
      <trkpt lat="46.83867" lon="4.69628">
        <ele>335</ele>
        <time>2012-07-22T07:52:48.000Z</time>
      </trkpt>
      <trkpt lat="46.83855" lon="4.69635">
        <ele>334</ele>
        <time>2012-07-22T07:52:51.000Z</time>
      </trkpt>
      <trkpt lat="46.83846" lon="4.69635">
        <ele>333</ele>
        <time>2012-07-22T07:52:54.000Z</time>
      </trkpt>
      <trkpt lat="46.83841" lon="4.69632">
        <ele>332</ele>
        <time>2012-07-22T07:52:56.000Z</time>
      </trkpt>
      <trkpt lat="46.83836" lon="4.69624">
        <ele>331</ele>
        <time>2012-07-22T07:52:58.000Z</time>
      </trkpt>
      <trkpt lat="46.83833" lon="4.69614">
        <ele>330</ele>
        <time>2012-07-22T07:53:02.000Z</time>
      </trkpt>
      <trkpt lat="46.83831" lon="4.69605">
        <ele>329</ele>
        <time>2012-07-22T07:53:04.000Z</time>
      </trkpt>
      <trkpt lat="46.83836" lon="4.69591">
        <ele>328</ele>
        <time>2012-07-22T07:53:08.000Z</time>
      </trkpt>
      <trkpt lat="46.83859" lon="4.6956">
        <ele>327</ele>
        <time>2012-07-22T07:53:11.000Z</time>
      </trkpt>
      <trkpt lat="46.83886" lon="4.69526">
        <ele>328</ele>
        <time>2012-07-22T07:53:19.000Z</time>
      </trkpt>
      <trkpt lat="46.83902" lon="4.69509">
        <ele>329</ele>
        <time>2012-07-22T07:53:24.000Z</time>
      </trkpt>
      <trkpt lat="46.83912" lon="4.695">
        <ele>330</ele>
        <time>2012-07-22T07:53:27.000Z</time>
      </trkpt>
      <trkpt lat="46.83924" lon="4.69488">
        <ele>331</ele>
        <time>2012-07-22T07:53:32.000Z</time>
      </trkpt>
      <trkpt lat="46.83927" lon="4.69482">
        <ele>331</ele>
        <time>2012-07-22T07:53:35.000Z</time>
      </trkpt>
      <trkpt lat="46.83921" lon="4.69473">
        <ele>330</ele>
        <time>2012-07-22T07:53:38.000Z</time>
      </trkpt>
      <trkpt lat="46.83905" lon="4.69455">
        <ele>329</ele>
        <time>2012-07-22T07:53:41.000Z</time>
      </trkpt>
      <trkpt lat="46.83901" lon="4.69427">
        <ele>328</ele>
        <time>2012-07-22T07:53:44.000Z</time>
      </trkpt>
      <trkpt lat="46.83895" lon="4.69402">
        <ele>326</ele>
        <time>2012-07-22T07:53:47.000Z</time>
      </trkpt>
      <trkpt lat="46.83887" lon="4.69373">
        <ele>325</ele>
        <time>2012-07-22T07:53:50.000Z</time>
      </trkpt>
      <trkpt lat="46.83882" lon="4.69352">
        <ele>324</ele>
        <time>2012-07-22T07:53:52.000Z</time>
      </trkpt>
      <trkpt lat="46.83889" lon="4.6934">
        <ele>323</ele>
        <time>2012-07-22T07:53:54.000Z</time>
      </trkpt>
      <trkpt lat="46.839" lon="4.6933">
        <ele>323</ele>
        <time>2012-07-22T07:53:57.000Z</time>
      </trkpt>
      <trkpt lat="46.83934" lon="4.69297">
        <ele>322</ele>
        <time>2012-07-22T07:54:05.000Z</time>
      </trkpt>
      <trkpt lat="46.83951" lon="4.69283">
        <ele>321</ele>
        <time>2012-07-22T07:54:07.000Z</time>
      </trkpt>
      <trkpt lat="46.83962" lon="4.69277">
        <ele>320</ele>
        <time>2012-07-22T07:54:10.000Z</time>
      </trkpt>
      <trkpt lat="46.83974" lon="4.69273">
        <ele>319</ele>
        <time>2012-07-22T07:54:12.000Z</time>
      </trkpt>
      <trkpt lat="46.83986" lon="4.69268">
        <ele>318</ele>
        <time>2012-07-22T07:54:14.000Z</time>
      </trkpt>
      <trkpt lat="46.84007" lon="4.69265">
        <ele>317</ele>
        <time>2012-07-22T07:54:16.000Z</time>
      </trkpt>
      <trkpt lat="46.84022" lon="4.69259">
        <ele>315</ele>
        <time>2012-07-22T07:54:19.000Z</time>
      </trkpt>
      <trkpt lat="46.84038" lon="4.69257">
        <ele>313</ele>
        <time>2012-07-22T07:54:21.000Z</time>
      </trkpt>
      <trkpt lat="46.84056" lon="4.69257">
        <ele>312</ele>
        <time>2012-07-22T07:54:23.000Z</time>
      </trkpt>
      <trkpt lat="46.84085" lon="4.6925">
        <ele>309</ele>
        <time>2012-07-22T07:54:25.000Z</time>
      </trkpt>
      <trkpt lat="46.84103" lon="4.69244">
        <ele>307</ele>
        <time>2012-07-22T07:54:27.000Z</time>
      </trkpt>
      <trkpt lat="46.84118" lon="4.6924">
        <ele>305</ele>
        <time>2012-07-22T07:54:30.000Z</time>
      </trkpt>
      <trkpt lat="46.8414" lon="4.69237">
        <ele>303</ele>
        <time>2012-07-22T07:54:33.000Z</time>
      </trkpt>
      <trkpt lat="46.84164" lon="4.69239">
        <ele>300</ele>
        <time>2012-07-22T07:54:36.000Z</time>
      </trkpt>
      <trkpt lat="46.84185" lon="4.69252">
        <ele>298</ele>
        <time>2012-07-22T07:54:39.000Z</time>
      </trkpt>
      <trkpt lat="46.84203" lon="4.69253">
        <ele>296</ele>
        <time>2012-07-22T07:54:42.000Z</time>
      </trkpt>
      <trkpt lat="46.84218" lon="4.69255">
        <ele>295</ele>
        <time>2012-07-22T07:54:44.000Z</time>
      </trkpt>
      <trkpt lat="46.84238" lon="4.6926">
        <ele>293</ele>
        <time>2012-07-22T07:54:46.000Z</time>
      </trkpt>
      <trkpt lat="46.84259" lon="4.6927">
        <ele>292</ele>
        <time>2012-07-22T07:54:49.000Z</time>
      </trkpt>
      <trkpt lat="46.84274" lon="4.69276">
        <ele>291</ele>
        <time>2012-07-22T07:54:52.000Z</time>
      </trkpt>
      <trkpt lat="46.8429" lon="4.69275">
        <ele>290</ele>
        <time>2012-07-22T07:54:54.000Z</time>
      </trkpt>
      <trkpt lat="46.84301" lon="4.69271">
        <ele>289</ele>
        <time>2012-07-22T07:54:56.000Z</time>
      </trkpt>
      <trkpt lat="46.84306" lon="4.69267">
        <ele>289</ele>
        <time>2012-07-22T07:54:59.000Z</time>
      </trkpt>
      <trkpt lat="46.8431" lon="4.69261">
        <ele>289</ele>
        <time>2012-07-22T07:55:01.000Z</time>
      </trkpt>
      <trkpt lat="46.84317" lon="4.69243">
        <ele>289</ele>
        <time>2012-07-22T07:55:05.000Z</time>
      </trkpt>
      <trkpt lat="46.84319" lon="4.69238">
        <ele>289</ele>
        <time>2012-07-22T07:55:08.000Z</time>
      </trkpt>
      <trkpt lat="46.8432" lon="4.69235">
        <ele>289</ele>
        <time>2012-07-22T07:55:11.000Z</time>
      </trkpt>
      <trkpt lat="46.8432" lon="4.69233">
        <ele>290</ele>
        <time>2012-07-22T07:55:13.000Z</time>
      </trkpt>
      <trkpt lat="46.8432" lon="4.6923">
        <ele>290</ele>
        <time>2012-07-22T07:55:15.000Z</time>
      </trkpt>
      <trkpt lat="46.84316" lon="4.69209">
        <ele>291</ele>
        <time>2012-07-22T07:55:26.000Z</time>
      </trkpt>
      <trkpt lat="46.84316" lon="4.69203">
        <ele>291</ele>
        <time>2012-07-22T07:55:28.000Z</time>
      </trkpt>
      <trkpt lat="46.84316" lon="4.69199">
        <ele>291</ele>
        <time>2012-07-22T07:55:31.000Z</time>
      </trkpt>
      <trkpt lat="46.84317" lon="4.69196">
        <ele>292</ele>
        <time>2012-07-22T07:55:34.000Z</time>
      </trkpt>
      <trkpt lat="46.84318" lon="4.69195">
        <ele>292</ele>
        <time>2012-07-22T07:55:36.000Z</time>
      </trkpt>
      <trkpt lat="46.8432" lon="4.69189">
        <ele>292</ele>
        <time>2012-07-22T07:55:40.000Z</time>
      </trkpt>
      <trkpt lat="46.84321" lon="4.69189">
        <ele>292</ele>
        <time>2012-07-22T07:55:43.000Z</time>
      </trkpt>
      <trkpt lat="46.84322" lon="4.6919">
        <ele>292</ele>
        <time>2012-07-22T07:55:45.000Z</time>
      </trkpt>
      <trkpt lat="46.84323" lon="4.69188">
        <ele>293</ele>
        <time>2012-07-22T07:55:48.000Z</time>
      </trkpt>
      <trkpt lat="46.84323" lon="4.69186">
        <ele>293</ele>
        <time>2012-07-22T07:55:51.000Z</time>
      </trkpt>
      <trkpt lat="46.84327" lon="4.69179">
        <ele>293</ele>
        <time>2012-07-22T07:55:54.000Z</time>
      </trkpt>
      <trkpt lat="46.84332" lon="4.69173">
        <ele>293</ele>
        <time>2012-07-22T07:55:56.000Z</time>
      </trkpt>
      <trkpt lat="46.84336" lon="4.69169">
        <ele>294</ele>
        <time>2012-07-22T07:55:58.000Z</time>
      </trkpt>
      <trkpt lat="46.84339" lon="4.69167">
        <ele>294</ele>
        <time>2012-07-22T07:56:01.000Z</time>
      </trkpt>
      <trkpt lat="46.84344" lon="4.69164">
        <ele>295</ele>
        <time>2012-07-22T07:56:03.000Z</time>
      </trkpt>
      <trkpt lat="46.8435" lon="4.69159">
        <ele>296</ele>
        <time>2012-07-22T07:56:09.000Z</time>
      </trkpt>
      <trkpt lat="46.84353" lon="4.69156">
        <ele>296</ele>
        <time>2012-07-22T07:56:10.000Z</time>
      </trkpt>
      <trkpt lat="46.84357" lon="4.69151">
        <ele>297</ele>
        <time>2012-07-22T07:56:13.000Z</time>
      </trkpt>
      <trkpt lat="46.84362" lon="4.69147">
        <ele>297</ele>
        <time>2012-07-22T07:56:15.000Z</time>
      </trkpt>
      <trkpt lat="46.84365" lon="4.69146">
        <ele>297</ele>
        <time>2012-07-22T07:56:18.000Z</time>
      </trkpt>
      <trkpt lat="46.84368" lon="4.69145">
        <ele>298</ele>
        <time>2012-07-22T07:56:22.000Z</time>
      </trkpt>
      <trkpt lat="46.84369" lon="4.69141">
        <ele>298</ele>
        <time>2012-07-22T07:56:25.000Z</time>
      </trkpt>
      <trkpt lat="46.84374" lon="4.69138">
        <ele>299</ele>
        <time>2012-07-22T07:56:27.000Z</time>
      </trkpt>
      <trkpt lat="46.84383" lon="4.69132">
        <ele>300</ele>
        <time>2012-07-22T07:56:33.000Z</time>
      </trkpt>
      <trkpt lat="46.84386" lon="4.69129">
        <ele>300</ele>
        <time>2012-07-22T07:56:36.000Z</time>
      </trkpt>
      <trkpt lat="46.84388" lon="4.69126">
        <ele>301</ele>
        <time>2012-07-22T07:56:38.000Z</time>
      </trkpt>
      <trkpt lat="46.84389" lon="4.69124">
        <ele>301</ele>
        <time>2012-07-22T07:56:40.000Z</time>
      </trkpt>
      <trkpt lat="46.84391" lon="4.69122">
        <ele>302</ele>
        <time>2012-07-22T07:56:42.000Z</time>
      </trkpt>
      <trkpt lat="46.84394" lon="4.69118">
        <ele>302</ele>
        <time>2012-07-22T07:56:45.000Z</time>
      </trkpt>
      <trkpt lat="46.844" lon="4.69114">
        <ele>302</ele>
        <time>2012-07-22T07:56:48.000Z</time>
      </trkpt>
      <trkpt lat="46.84406" lon="4.69111">
        <ele>303</ele>
        <time>2012-07-22T07:56:51.000Z</time>
      </trkpt>
      <trkpt lat="46.84409" lon="4.69109">
        <ele>304</ele>
        <time>2012-07-22T07:56:53.000Z</time>
      </trkpt>
      <trkpt lat="46.84415" lon="4.69106">
        <ele>305</ele>
        <time>2012-07-22T07:56:57.000Z</time>
      </trkpt>
      <trkpt lat="46.8442" lon="4.69104">
        <ele>306</ele>
        <time>2012-07-22T07:56:59.000Z</time>
      </trkpt>
      <trkpt lat="46.84426" lon="4.69101">
        <ele>307</ele>
        <time>2012-07-22T07:57:04.000Z</time>
      </trkpt>
      <trkpt lat="46.84437" lon="4.69098">
        <ele>308</ele>
        <time>2012-07-22T07:57:10.000Z</time>
      </trkpt>
      <trkpt lat="46.84442" lon="4.69097">
        <ele>309</ele>
        <time>2012-07-22T07:57:12.000Z</time>
      </trkpt>
      <trkpt lat="46.84447" lon="4.69096">
        <ele>309</ele>
        <time>2012-07-22T07:57:15.000Z</time>
      </trkpt>
      <trkpt lat="46.84451" lon="4.69096">
        <ele>310</ele>
        <time>2012-07-22T07:57:17.000Z</time>
      </trkpt>
      <trkpt lat="46.84456" lon="4.69096">
        <ele>311</ele>
        <time>2012-07-22T07:57:19.000Z</time>
      </trkpt>
      <trkpt lat="46.84459" lon="4.69095">
        <ele>311</ele>
        <time>2012-07-22T07:57:22.000Z</time>
      </trkpt>
      <trkpt lat="46.84461" lon="4.69094">
        <ele>312</ele>
        <time>2012-07-22T07:57:24.000Z</time>
      </trkpt>
      <trkpt lat="46.84466" lon="4.69093">
        <ele>312</ele>
        <time>2012-07-22T07:57:27.000Z</time>
      </trkpt>
      <trkpt lat="46.84471" lon="4.69092">
        <ele>313</ele>
        <time>2012-07-22T07:57:30.000Z</time>
      </trkpt>
      <trkpt lat="46.84476" lon="4.69093">
        <ele>314</ele>
        <time>2012-07-22T07:57:32.000Z</time>
      </trkpt>
      <trkpt lat="46.84482" lon="4.69096">
        <ele>314</ele>
        <time>2012-07-22T07:57:34.000Z</time>
      </trkpt>
      <trkpt lat="46.84491" lon="4.691">
        <ele>315</ele>
        <time>2012-07-22T07:57:37.000Z</time>
      </trkpt>
      <trkpt lat="46.84507" lon="4.6911">
        <ele>316</ele>
        <time>2012-07-22T07:57:43.000Z</time>
      </trkpt>
      <trkpt lat="46.84519" lon="4.69116">
        <ele>317</ele>
        <time>2012-07-22T07:57:48.000Z</time>
      </trkpt>
      <trkpt lat="46.84535" lon="4.69122">
        <ele>318</ele>
        <time>2012-07-22T07:57:56.000Z</time>
      </trkpt>
      <trkpt lat="46.84541" lon="4.69121">
        <ele>318</ele>
        <time>2012-07-22T07:57:58.000Z</time>
      </trkpt>
      <trkpt lat="46.84544" lon="4.69121">
        <ele>319</ele>
        <time>2012-07-22T07:58:00.000Z</time>
      </trkpt>
      <trkpt lat="46.84547" lon="4.6912">
        <ele>319</ele>
        <time>2012-07-22T07:58:03.000Z</time>
      </trkpt>
      <trkpt lat="46.84555" lon="4.69118">
        <ele>320</ele>
        <time>2012-07-22T07:58:08.000Z</time>
      </trkpt>
      <trkpt lat="46.8456" lon="4.69115">
        <ele>320</ele>
        <time>2012-07-22T07:58:10.000Z</time>
      </trkpt>
      <trkpt lat="46.84563" lon="4.69111">
        <ele>321</ele>
        <time>2012-07-22T07:58:13.000Z</time>
      </trkpt>
      <trkpt lat="46.84567" lon="4.69107">
        <ele>321</ele>
        <time>2012-07-22T07:58:16.000Z</time>
      </trkpt>
      <trkpt lat="46.84571" lon="4.69103">
        <ele>322</ele>
        <time>2012-07-22T07:58:19.000Z</time>
      </trkpt>
      <trkpt lat="46.84576" lon="4.69099">
        <ele>323</ele>
        <time>2012-07-22T07:58:21.000Z</time>
      </trkpt>
      <trkpt lat="46.84584" lon="4.69093">
        <ele>324</ele>
        <time>2012-07-22T07:58:26.000Z</time>
      </trkpt>
      <trkpt lat="46.84587" lon="4.6909">
        <ele>325</ele>
        <time>2012-07-22T07:58:28.000Z</time>
      </trkpt>
      <trkpt lat="46.84603" lon="4.69081">
        <ele>326</ele>
        <time>2012-07-22T07:58:36.000Z</time>
      </trkpt>
      <trkpt lat="46.84611" lon="4.69075">
        <ele>326</ele>
        <time>2012-07-22T07:58:41.000Z</time>
      </trkpt>
      <trkpt lat="46.84613" lon="4.69072">
        <ele>326</ele>
        <time>2012-07-22T07:58:43.000Z</time>
      </trkpt>
      <trkpt lat="46.84618" lon="4.69069">
        <ele>326</ele>
        <time>2012-07-22T07:58:48.000Z</time>
      </trkpt>
      <trkpt lat="46.84619" lon="4.69066">
        <ele>326</ele>
        <time>2012-07-22T07:58:50.000Z</time>
      </trkpt>
      <trkpt lat="46.8462" lon="4.69062">
        <ele>327</ele>
        <time>2012-07-22T07:58:53.000Z</time>
      </trkpt>
      <trkpt lat="46.84622" lon="4.69043">
        <ele>328</ele>
        <time>2012-07-22T07:59:00.000Z</time>
      </trkpt>
      <trkpt lat="46.84621" lon="4.69038">
        <ele>328</ele>
        <time>2012-07-22T07:59:03.000Z</time>
      </trkpt>
      <trkpt lat="46.8462" lon="4.69031">
        <ele>329</ele>
        <time>2012-07-22T07:59:05.000Z</time>
      </trkpt>
      <trkpt lat="46.84618" lon="4.69021">
        <ele>330</ele>
        <time>2012-07-22T07:59:10.000Z</time>
      </trkpt>
      <trkpt lat="46.84618" lon="4.69015">
        <ele>330</ele>
        <time>2012-07-22T07:59:12.000Z</time>
      </trkpt>
      <trkpt lat="46.84617" lon="4.69006">
        <ele>331</ele>
        <time>2012-07-22T07:59:15.000Z</time>
      </trkpt>
      <trkpt lat="46.84614" lon="4.68998">
        <ele>332</ele>
        <time>2012-07-22T07:59:18.000Z</time>
      </trkpt>
      <trkpt lat="46.84608" lon="4.68983">
        <ele>333</ele>
        <time>2012-07-22T07:59:22.000Z</time>
      </trkpt>
      <trkpt lat="46.84606" lon="4.68974">
        <ele>334</ele>
        <time>2012-07-22T07:59:26.000Z</time>
      </trkpt>
      <trkpt lat="46.84605" lon="4.68968">
        <ele>335</ele>
        <time>2012-07-22T07:59:28.000Z</time>
      </trkpt>
      <trkpt lat="46.84602" lon="4.68962">
        <ele>336</ele>
        <time>2012-07-22T07:59:31.000Z</time>
      </trkpt>
      <trkpt lat="46.84599" lon="4.68955">
        <ele>337</ele>
        <time>2012-07-22T07:59:34.000Z</time>
      </trkpt>
      <trkpt lat="46.84595" lon="4.68946">
        <ele>338</ele>
        <time>2012-07-22T07:59:37.000Z</time>
      </trkpt>
      <trkpt lat="46.8459" lon="4.68934">
        <ele>339</ele>
        <time>2012-07-22T07:59:42.000Z</time>
      </trkpt>
      <trkpt lat="46.84589" lon="4.68929">
        <ele>340</ele>
        <time>2012-07-22T07:59:45.000Z</time>
      </trkpt>
      <trkpt lat="46.84591" lon="4.68926">
        <ele>340</ele>
        <time>2012-07-22T07:59:48.000Z</time>
      </trkpt>
      <trkpt lat="46.84593" lon="4.68924">
        <ele>341</ele>
        <time>2012-07-22T07:59:50.000Z</time>
      </trkpt>
      <trkpt lat="46.84595" lon="4.68923">
        <ele>341</ele>
        <time>2012-07-22T07:59:52.000Z</time>
      </trkpt>
      <trkpt lat="46.84599" lon="4.6892">
        <ele>342</ele>
        <time>2012-07-22T07:59:54.000Z</time>
      </trkpt>
      <trkpt lat="46.84605" lon="4.68913">
        <ele>342</ele>
        <time>2012-07-22T08:00:02.000Z</time>
      </trkpt>
      <trkpt lat="46.84607" lon="4.6891">
        <ele>343</ele>
        <time>2012-07-22T08:00:04.000Z</time>
      </trkpt>
      <trkpt lat="46.8461" lon="4.68903">
        <ele>344</ele>
        <time>2012-07-22T08:00:10.000Z</time>
      </trkpt>
      <trkpt lat="46.84614" lon="4.68892">
        <ele>345</ele>
        <time>2012-07-22T08:00:14.000Z</time>
      </trkpt>
      <trkpt lat="46.84616" lon="4.68888">
        <ele>346</ele>
        <time>2012-07-22T08:00:18.000Z</time>
      </trkpt>
      <trkpt lat="46.84618" lon="4.68884">
        <ele>347</ele>
        <time>2012-07-22T08:00:20.000Z</time>
      </trkpt>
      <trkpt lat="46.84621" lon="4.68876">
        <ele>348</ele>
        <time>2012-07-22T08:00:26.000Z</time>
      </trkpt>
      <trkpt lat="46.84622" lon="4.68874">
        <ele>349</ele>
        <time>2012-07-22T08:00:28.000Z</time>
      </trkpt>
      <trkpt lat="46.84624" lon="4.6887">
        <ele>349</ele>
        <time>2012-07-22T08:00:30.000Z</time>
      </trkpt>
      <trkpt lat="46.84626" lon="4.68866">
        <ele>350</ele>
        <time>2012-07-22T08:00:32.000Z</time>
      </trkpt>
      <trkpt lat="46.84627" lon="4.68863">
        <ele>350</ele>
        <time>2012-07-22T08:00:35.000Z</time>
      </trkpt>
      <trkpt lat="46.84629" lon="4.6886">
        <ele>351</ele>
        <time>2012-07-22T08:00:37.000Z</time>
      </trkpt>
      <trkpt lat="46.8463" lon="4.68858">
        <ele>352</ele>
        <time>2012-07-22T08:00:39.000Z</time>
      </trkpt>
      <trkpt lat="46.84631" lon="4.68853">
        <ele>352</ele>
        <time>2012-07-22T08:00:42.000Z</time>
      </trkpt>
      <trkpt lat="46.84634" lon="4.68851">
        <ele>353</ele>
        <time>2012-07-22T08:00:44.000Z</time>
      </trkpt>
      <trkpt lat="46.84636" lon="4.68848">
        <ele>353</ele>
        <time>2012-07-22T08:00:48.000Z</time>
      </trkpt>
      <trkpt lat="46.84636" lon="4.68845">
        <ele>354</ele>
        <time>2012-07-22T08:00:50.000Z</time>
      </trkpt>
      <trkpt lat="46.84638" lon="4.68839">
        <ele>355</ele>
        <time>2012-07-22T08:00:52.000Z</time>
      </trkpt>
      <trkpt lat="46.84641" lon="4.68833">
        <ele>356</ele>
        <time>2012-07-22T08:00:56.000Z</time>
      </trkpt>
      <trkpt lat="46.84643" lon="4.68826">
        <ele>357</ele>
        <time>2012-07-22T08:01:01.000Z</time>
      </trkpt>
      <trkpt lat="46.84644" lon="4.68821">
        <ele>358</ele>
        <time>2012-07-22T08:01:04.000Z</time>
      </trkpt>
      <trkpt lat="46.84647" lon="4.68816">
        <ele>358</ele>
        <time>2012-07-22T08:01:07.000Z</time>
      </trkpt>
      <trkpt lat="46.84648" lon="4.68813">
        <ele>359</ele>
        <time>2012-07-22T08:01:09.000Z</time>
      </trkpt>
      <trkpt lat="46.84651" lon="4.68807">
        <ele>360</ele>
        <time>2012-07-22T08:01:14.000Z</time>
      </trkpt>
      <trkpt lat="46.84653" lon="4.688">
        <ele>361</ele>
        <time>2012-07-22T08:01:19.000Z</time>
      </trkpt>
      <trkpt lat="46.84653" lon="4.68797">
        <ele>361</ele>
        <time>2012-07-22T08:01:21.000Z</time>
      </trkpt>
      <trkpt lat="46.84652" lon="4.68792">
        <ele>362</ele>
        <time>2012-07-22T08:01:23.000Z</time>
      </trkpt>
      <trkpt lat="46.84655" lon="4.68788">
        <ele>362</ele>
        <time>2012-07-22T08:01:25.000Z</time>
      </trkpt>
      <trkpt lat="46.84658" lon="4.68786">
        <ele>363</ele>
        <time>2012-07-22T08:01:28.000Z</time>
      </trkpt>
      <trkpt lat="46.84667" lon="4.6878">
        <ele>364</ele>
        <time>2012-07-22T08:01:33.000Z</time>
      </trkpt>
      <trkpt lat="46.84673" lon="4.68778">
        <ele>365</ele>
        <time>2012-07-22T08:01:38.000Z</time>
      </trkpt>
      <trkpt lat="46.84678" lon="4.68775">
        <ele>365</ele>
        <time>2012-07-22T08:01:41.000Z</time>
      </trkpt>
      <trkpt lat="46.84681" lon="4.68773">
        <ele>366</ele>
        <time>2012-07-22T08:01:43.000Z</time>
      </trkpt>
      <trkpt lat="46.84682" lon="4.68771">
        <ele>366</ele>
        <time>2012-07-22T08:01:46.000Z</time>
      </trkpt>
      <trkpt lat="46.84679" lon="4.6877">
        <ele>367</ele>
        <time>2012-07-22T08:02:02.000Z</time>
      </trkpt>
      <trkpt lat="46.84678" lon="4.68768">
        <ele>367</ele>
        <time>2012-07-22T08:02:05.000Z</time>
      </trkpt>
      <trkpt lat="46.84682" lon="4.68766">
        <ele>367</ele>
        <time>2012-07-22T08:02:19.000Z</time>
      </trkpt>
      <trkpt lat="46.84683" lon="4.68763">
        <ele>368</ele>
        <time>2012-07-22T08:02:28.000Z</time>
      </trkpt>
      <trkpt lat="46.84684" lon="4.68762">
        <ele>368</ele>
        <time>2012-07-22T08:02:30.000Z</time>
      </trkpt>
      <trkpt lat="46.84686" lon="4.68755">
        <ele>368</ele>
        <time>2012-07-22T08:02:34.000Z</time>
      </trkpt>
      <trkpt lat="46.84688" lon="4.68748">
        <ele>369</ele>
        <time>2012-07-22T08:02:38.000Z</time>
      </trkpt>
      <trkpt lat="46.84688" lon="4.68747">
        <ele>369</ele>
        <time>2012-07-22T08:02:42.000Z</time>
      </trkpt>
      <trkpt lat="46.84684" lon="4.6875">
        <ele>370</ele>
        <time>2012-07-22T08:02:46.000Z</time>
      </trkpt>
      <trkpt lat="46.84683" lon="4.68754">
        <ele>370</ele>
        <time>2012-07-22T08:02:50.000Z</time>
      </trkpt>
      <trkpt lat="46.84684" lon="4.68759">
        <ele>370</ele>
        <time>2012-07-22T08:02:52.000Z</time>
      </trkpt>
      <trkpt lat="46.84687" lon="4.68763">
        <ele>369</ele>
        <time>2012-07-22T08:02:55.000Z</time>
      </trkpt>
      <trkpt lat="46.84691" lon="4.68762">
        <ele>369</ele>
        <time>2012-07-22T08:02:58.000Z</time>
      </trkpt>
      <trkpt lat="46.84693" lon="4.68766">
        <ele>369</ele>
        <time>2012-07-22T08:03:46.000Z</time>
      </trkpt>
      <trkpt lat="46.84693" lon="4.68766">
        <ele>369</ele>
        <time>2012-07-22T08:04:06.000Z</time>
      </trkpt>
      <trkpt lat="46.84692" lon="4.68762">
        <ele>369</ele>
        <time>2012-07-22T08:04:11.000Z</time>
      </trkpt>
      <trkpt lat="46.84697" lon="4.68767">
        <ele>369</ele>
        <time>2012-07-22T08:04:14.000Z</time>
      </trkpt>
      <trkpt lat="46.84709" lon="4.68776">
        <ele>369</ele>
        <time>2012-07-22T08:04:21.000Z</time>
      </trkpt>
      <trkpt lat="46.84711" lon="4.68777">
        <ele>369</ele>
        <time>2012-07-22T08:04:23.000Z</time>
      </trkpt>
      <trkpt lat="46.84716" lon="4.68778">
        <ele>369</ele>
        <time>2012-07-22T08:04:26.000Z</time>
      </trkpt>
      <trkpt lat="46.84723" lon="4.6878">
        <ele>369</ele>
        <time>2012-07-22T08:04:32.000Z</time>
      </trkpt>
      <trkpt lat="46.84727" lon="4.68779">
        <ele>369</ele>
        <time>2012-07-22T08:04:35.000Z</time>
      </trkpt>
      <trkpt lat="46.84732" lon="4.68779">
        <ele>370</ele>
        <time>2012-07-22T08:04:38.000Z</time>
      </trkpt>
      <trkpt lat="46.84744" lon="4.68779">
        <ele>371</ele>
        <time>2012-07-22T08:04:46.000Z</time>
      </trkpt>
      <trkpt lat="46.84748" lon="4.6878">
        <ele>371</ele>
        <time>2012-07-22T08:04:49.000Z</time>
      </trkpt>
      <trkpt lat="46.84759" lon="4.6878">
        <ele>372</ele>
        <time>2012-07-22T08:04:56.000Z</time>
      </trkpt>
      <trkpt lat="46.84765" lon="4.68782">
        <ele>372</ele>
        <time>2012-07-22T08:05:01.000Z</time>
      </trkpt>
      <trkpt lat="46.84768" lon="4.68783">
        <ele>372</ele>
        <time>2012-07-22T08:05:03.000Z</time>
      </trkpt>
      <trkpt lat="46.84773" lon="4.68787">
        <ele>372</ele>
        <time>2012-07-22T08:05:08.000Z</time>
      </trkpt>
      <trkpt lat="46.84776" lon="4.6879">
        <ele>372</ele>
        <time>2012-07-22T08:05:11.000Z</time>
      </trkpt>
      <trkpt lat="46.84779" lon="4.68792">
        <ele>372</ele>
        <time>2012-07-22T08:05:14.000Z</time>
      </trkpt>
      <trkpt lat="46.84781" lon="4.68793">
        <ele>372</ele>
        <time>2012-07-22T08:05:17.000Z</time>
      </trkpt>
      <trkpt lat="46.84779" lon="4.68793">
        <ele>372</ele>
        <time>2012-07-22T08:05:24.000Z</time>
      </trkpt>
      <trkpt lat="46.84779" lon="4.68794">
        <ele>372</ele>
        <time>2012-07-22T08:05:26.000Z</time>
      </trkpt>
      <trkpt lat="46.84777" lon="4.68795">
        <ele>372</ele>
        <time>2012-07-22T08:05:29.000Z</time>
      </trkpt>
      <trkpt lat="46.84777" lon="4.68795">
        <ele>372</ele>
        <time>2012-07-22T08:05:49.000Z</time>
      </trkpt>
      <trkpt lat="46.84779" lon="4.68796">
        <ele>371</ele>
        <time>2012-07-22T08:09:18.000Z</time>
      </trkpt>
      <trkpt lat="46.8478" lon="4.68796">
        <ele>371</ele>
        <time>2012-07-22T08:09:23.000Z</time>
      </trkpt>
      <trkpt lat="46.8478" lon="4.68796">
        <ele>371</ele>
        <time>2012-07-22T08:09:43.000Z</time>
      </trkpt>
      <trkpt lat="46.84776" lon="4.68797">
        <ele>371</ele>
        <time>2012-07-22T08:09:44.000Z</time>
      </trkpt>
      <trkpt lat="46.84776" lon="4.68795">
        <ele>371</ele>
        <time>2012-07-22T08:09:48.000Z</time>
      </trkpt>
      <trkpt lat="46.84777" lon="4.6879">
        <ele>371</ele>
        <time>2012-07-22T08:09:51.000Z</time>
      </trkpt>
      <trkpt lat="46.84779" lon="4.68784">
        <ele>372</ele>
        <time>2012-07-22T08:09:54.000Z</time>
      </trkpt>
      <trkpt lat="46.84782" lon="4.68776">
        <ele>373</ele>
        <time>2012-07-22T08:09:58.000Z</time>
      </trkpt>
      <trkpt lat="46.84785" lon="4.68773">
        <ele>373</ele>
        <time>2012-07-22T08:10:00.000Z</time>
      </trkpt>
      <trkpt lat="46.84789" lon="4.6877">
        <ele>374</ele>
        <time>2012-07-22T08:10:04.000Z</time>
      </trkpt>
      <trkpt lat="46.84793" lon="4.68766">
        <ele>375</ele>
        <time>2012-07-22T08:10:07.000Z</time>
      </trkpt>
      <trkpt lat="46.84798" lon="4.6876">
        <ele>376</ele>
        <time>2012-07-22T08:10:13.000Z</time>
      </trkpt>
      <trkpt lat="46.84799" lon="4.68757">
        <ele>376</ele>
        <time>2012-07-22T08:10:16.000Z</time>
      </trkpt>
      <trkpt lat="46.84801" lon="4.68754">
        <ele>377</ele>
        <time>2012-07-22T08:10:19.000Z</time>
      </trkpt>
      <trkpt lat="46.84801" lon="4.68754">
        <ele>377</ele>
        <time>2012-07-22T08:10:39.000Z</time>
      </trkpt>
      <trkpt lat="46.848" lon="4.68752">
        <ele>377</ele>
        <time>2012-07-22T08:11:12.000Z</time>
      </trkpt>
      <trkpt lat="46.84801" lon="4.68751">
        <ele>378</ele>
        <time>2012-07-22T08:11:14.000Z</time>
      </trkpt>
      <trkpt lat="46.84802" lon="4.68746">
        <ele>378</ele>
        <time>2012-07-22T08:11:19.000Z</time>
      </trkpt>
      <trkpt lat="46.84803" lon="4.68743">
        <ele>379</ele>
        <time>2012-07-22T08:11:24.000Z</time>
      </trkpt>
      <trkpt lat="46.84803" lon="4.68741">
        <ele>379</ele>
        <time>2012-07-22T08:11:32.000Z</time>
      </trkpt>
      <trkpt lat="46.84804" lon="4.68737">
        <ele>379</ele>
        <time>2012-07-22T08:11:34.000Z</time>
      </trkpt>
      <trkpt lat="46.84805" lon="4.6873">
        <ele>379</ele>
        <time>2012-07-22T08:11:37.000Z</time>
      </trkpt>
      <trkpt lat="46.84806" lon="4.6872">
        <ele>380</ele>
        <time>2012-07-22T08:11:43.000Z</time>
      </trkpt>
      <trkpt lat="46.84808" lon="4.68713">
        <ele>380</ele>
        <time>2012-07-22T08:11:46.000Z</time>
      </trkpt>
      <trkpt lat="46.84809" lon="4.68702">
        <ele>381</ele>
        <time>2012-07-22T08:11:51.000Z</time>
      </trkpt>
      <trkpt lat="46.84808" lon="4.68696">
        <ele>381</ele>
        <time>2012-07-22T08:11:53.000Z</time>
      </trkpt>
      <trkpt lat="46.84808" lon="4.68691">
        <ele>381</ele>
        <time>2012-07-22T08:11:56.000Z</time>
      </trkpt>
      <trkpt lat="46.84808" lon="4.68684">
        <ele>382</ele>
        <time>2012-07-22T08:11:59.000Z</time>
      </trkpt>
      <trkpt lat="46.84809" lon="4.68681">
        <ele>382</ele>
        <time>2012-07-22T08:12:09.000Z</time>
      </trkpt>
      <trkpt lat="46.84809" lon="4.68675">
        <ele>382</ele>
        <time>2012-07-22T08:12:11.000Z</time>
      </trkpt>
      <trkpt lat="46.84809" lon="4.6867">
        <ele>383</ele>
        <time>2012-07-22T08:12:14.000Z</time>
      </trkpt>
      <trkpt lat="46.84811" lon="4.68654">
        <ele>383</ele>
        <time>2012-07-22T08:12:20.000Z</time>
      </trkpt>
      <trkpt lat="46.84822" lon="4.68614">
        <ele>383</ele>
        <time>2012-07-22T08:12:34.000Z</time>
      </trkpt>
      <trkpt lat="46.84828" lon="4.68612">
        <ele>383</ele>
        <time>2012-07-22T08:12:37.000Z</time>
      </trkpt>
      <trkpt lat="46.84832" lon="4.68613">
        <ele>383</ele>
        <time>2012-07-22T08:12:40.000Z</time>
      </trkpt>
      <trkpt lat="46.84838" lon="4.68615">
        <ele>383</ele>
        <time>2012-07-22T08:12:43.000Z</time>
      </trkpt>
      <trkpt lat="46.84845" lon="4.6862">
        <ele>383</ele>
        <time>2012-07-22T08:12:46.000Z</time>
      </trkpt>
      <trkpt lat="46.8485" lon="4.68622">
        <ele>383</ele>
        <time>2012-07-22T08:12:48.000Z</time>
      </trkpt>
      <trkpt lat="46.84856" lon="4.68624">
        <ele>382</ele>
        <time>2012-07-22T08:12:51.000Z</time>
      </trkpt>
      <trkpt lat="46.84862" lon="4.68628">
        <ele>382</ele>
        <time>2012-07-22T08:12:53.000Z</time>
      </trkpt>
      <trkpt lat="46.8487" lon="4.68631">
        <ele>382</ele>
        <time>2012-07-22T08:12:58.000Z</time>
      </trkpt>
      <trkpt lat="46.84878" lon="4.68635">
        <ele>382</ele>
        <time>2012-07-22T08:13:01.000Z</time>
      </trkpt>
      <trkpt lat="46.849" lon="4.6865">
        <ele>382</ele>
        <time>2012-07-22T08:13:08.000Z</time>
      </trkpt>
      <trkpt lat="46.84912" lon="4.68666">
        <ele>383</ele>
        <time>2012-07-22T08:13:10.000Z</time>
      </trkpt>
      <trkpt lat="46.84923" lon="4.68675">
        <ele>383</ele>
        <time>2012-07-22T08:13:12.000Z</time>
      </trkpt>
      <trkpt lat="46.84934" lon="4.6868">
        <ele>383</ele>
        <time>2012-07-22T08:13:14.000Z</time>
      </trkpt>
      <trkpt lat="46.84943" lon="4.68683">
        <ele>384</ele>
        <time>2012-07-22T08:13:17.000Z</time>
      </trkpt>
      <trkpt lat="46.84964" lon="4.68686">
        <ele>384</ele>
        <time>2012-07-22T08:13:22.000Z</time>
      </trkpt>
      <trkpt lat="46.84974" lon="4.68684">
        <ele>384</ele>
        <time>2012-07-22T08:13:25.000Z</time>
      </trkpt>
      <trkpt lat="46.84982" lon="4.68685">
        <ele>384</ele>
        <time>2012-07-22T08:13:27.000Z</time>
      </trkpt>
      <trkpt lat="46.84992" lon="4.68684">
        <ele>384</ele>
        <time>2012-07-22T08:13:30.000Z</time>
      </trkpt>
      <trkpt lat="46.85038" lon="4.68677">
        <ele>384</ele>
        <time>2012-07-22T08:13:43.000Z</time>
      </trkpt>
      <trkpt lat="46.8505" lon="4.68674">
        <ele>385</ele>
        <time>2012-07-22T08:13:46.000Z</time>
      </trkpt>
      <trkpt lat="46.85098" lon="4.68667">
        <ele>385</ele>
        <time>2012-07-22T08:13:54.000Z</time>
      </trkpt>
      <trkpt lat="46.85108" lon="4.6867">
        <ele>385</ele>
        <time>2012-07-22T08:13:57.000Z</time>
      </trkpt>
      <trkpt lat="46.85115" lon="4.68677">
        <ele>385</ele>
        <time>2012-07-22T08:13:59.000Z</time>
      </trkpt>
      <trkpt lat="46.85121" lon="4.68691">
        <ele>385</ele>
        <time>2012-07-22T08:14:02.000Z</time>
      </trkpt>
      <trkpt lat="46.85122" lon="4.68699">
        <ele>385</ele>
        <time>2012-07-22T08:14:04.000Z</time>
      </trkpt>
      <trkpt lat="46.85122" lon="4.68712">
        <ele>386</ele>
        <time>2012-07-22T08:14:07.000Z</time>
      </trkpt>
      <trkpt lat="46.85121" lon="4.68739">
        <ele>387</ele>
        <time>2012-07-22T08:14:13.000Z</time>
      </trkpt>
      <trkpt lat="46.85121" lon="4.68753">
        <ele>388</ele>
        <time>2012-07-22T08:14:16.000Z</time>
      </trkpt>
      <trkpt lat="46.85121" lon="4.68762">
        <ele>389</ele>
        <time>2012-07-22T08:14:18.000Z</time>
      </trkpt>
      <trkpt lat="46.85121" lon="4.68777">
        <ele>390</ele>
        <time>2012-07-22T08:14:20.000Z</time>
      </trkpt>
      <trkpt lat="46.85122" lon="4.68794">
        <ele>391</ele>
        <time>2012-07-22T08:14:23.000Z</time>
      </trkpt>
      <trkpt lat="46.85128" lon="4.68846">
        <ele>392</ele>
        <time>2012-07-22T08:14:33.000Z</time>
      </trkpt>
      <trkpt lat="46.85136" lon="4.68866">
        <ele>392</ele>
        <time>2012-07-22T08:14:41.000Z</time>
      </trkpt>
      <trkpt lat="46.8514" lon="4.68869">
        <ele>392</ele>
        <time>2012-07-22T08:14:43.000Z</time>
      </trkpt>
      <trkpt lat="46.85165" lon="4.68889">
        <ele>393</ele>
        <time>2012-07-22T08:14:52.000Z</time>
      </trkpt>
      <trkpt lat="46.85172" lon="4.68892">
        <ele>393</ele>
        <time>2012-07-22T08:14:54.000Z</time>
      </trkpt>
      <trkpt lat="46.85196" lon="4.68904">
        <ele>394</ele>
        <time>2012-07-22T08:15:02.000Z</time>
      </trkpt>
      <trkpt lat="46.85205" lon="4.6891">
        <ele>394</ele>
        <time>2012-07-22T08:15:05.000Z</time>
      </trkpt>
      <trkpt lat="46.85211" lon="4.68916">
        <ele>394</ele>
        <time>2012-07-22T08:15:07.000Z</time>
      </trkpt>
      <trkpt lat="46.8524" lon="4.68937">
        <ele>394</ele>
        <time>2012-07-22T08:15:15.000Z</time>
      </trkpt>
      <trkpt lat="46.85253" lon="4.68945">
        <ele>395</ele>
        <time>2012-07-22T08:15:19.000Z</time>
      </trkpt>
      <trkpt lat="46.85286" lon="4.68964">
        <ele>396</ele>
        <time>2012-07-22T08:15:29.000Z</time>
      </trkpt>
      <trkpt lat="46.8531" lon="4.68975">
        <ele>397</ele>
        <time>2012-07-22T08:15:37.000Z</time>
      </trkpt>
      <trkpt lat="46.85315" lon="4.68976">
        <ele>397</ele>
        <time>2012-07-22T08:15:39.000Z</time>
      </trkpt>
      <trkpt lat="46.85328" lon="4.6898">
        <ele>398</ele>
        <time>2012-07-22T08:15:44.000Z</time>
      </trkpt>
      <trkpt lat="46.85337" lon="4.68984">
        <ele>398</ele>
        <time>2012-07-22T08:15:47.000Z</time>
      </trkpt>
      <trkpt lat="46.85345" lon="4.6899">
        <ele>398</ele>
        <time>2012-07-22T08:15:50.000Z</time>
      </trkpt>
      <trkpt lat="46.85384" lon="4.69024">
        <ele>398</ele>
        <time>2012-07-22T08:16:02.000Z</time>
      </trkpt>
      <trkpt lat="46.8539" lon="4.69031">
        <ele>398</ele>
        <time>2012-07-22T08:16:04.000Z</time>
      </trkpt>
      <trkpt lat="46.85406" lon="4.6906">
        <ele>398</ele>
        <time>2012-07-22T08:16:15.000Z</time>
      </trkpt>
      <trkpt lat="46.85404" lon="4.69068">
        <ele>398</ele>
        <time>2012-07-22T08:16:17.000Z</time>
      </trkpt>
      <trkpt lat="46.85397" lon="4.69081">
        <ele>397</ele>
        <time>2012-07-22T08:16:20.000Z</time>
      </trkpt>
      <trkpt lat="46.85378" lon="4.69109">
        <ele>396</ele>
        <time>2012-07-22T08:16:26.000Z</time>
      </trkpt>
      <trkpt lat="46.85375" lon="4.6912">
        <ele>395</ele>
        <time>2012-07-22T08:16:28.000Z</time>
      </trkpt>
      <trkpt lat="46.8538" lon="4.6914">
        <ele>394</ele>
        <time>2012-07-22T08:16:31.000Z</time>
      </trkpt>
      <trkpt lat="46.85385" lon="4.69158">
        <ele>393</ele>
        <time>2012-07-22T08:16:33.000Z</time>
      </trkpt>
      <trkpt lat="46.85386" lon="4.69171">
        <ele>392</ele>
        <time>2012-07-22T08:16:36.000Z</time>
      </trkpt>
      <trkpt lat="46.85374" lon="4.69186">
        <ele>391</ele>
        <time>2012-07-22T08:16:39.000Z</time>
      </trkpt>
      <trkpt lat="46.85361" lon="4.6919">
        <ele>390</ele>
        <time>2012-07-22T08:16:42.000Z</time>
      </trkpt>
      <trkpt lat="46.85356" lon="4.69187">
        <ele>389</ele>
        <time>2012-07-22T08:16:44.000Z</time>
      </trkpt>
      <trkpt lat="46.85346" lon="4.69181">
        <ele>388</ele>
        <time>2012-07-22T08:16:47.000Z</time>
      </trkpt>
      <trkpt lat="46.85337" lon="4.69178">
        <ele>387</ele>
        <time>2012-07-22T08:16:49.000Z</time>
      </trkpt>
      <trkpt lat="46.85327" lon="4.69176">
        <ele>386</ele>
        <time>2012-07-22T08:16:51.000Z</time>
      </trkpt>
      <trkpt lat="46.8531" lon="4.6917">
        <ele>386</ele>
        <time>2012-07-22T08:16:54.000Z</time>
      </trkpt>
      <trkpt lat="46.85291" lon="4.69161">
        <ele>385</ele>
        <time>2012-07-22T08:16:57.000Z</time>
      </trkpt>
      <trkpt lat="46.85278" lon="4.69156">
        <ele>384</ele>
        <time>2012-07-22T08:16:59.000Z</time>
      </trkpt>
      <trkpt lat="46.85258" lon="4.69147">
        <ele>383</ele>
        <time>2012-07-22T08:17:02.000Z</time>
      </trkpt>
      <trkpt lat="46.85247" lon="4.69141">
        <ele>381</ele>
        <time>2012-07-22T08:17:04.000Z</time>
      </trkpt>
      <trkpt lat="46.85248" lon="4.69143">
        <ele>381</ele>
        <time>2012-07-22T08:17:06.000Z</time>
      </trkpt>
      <trkpt lat="46.8525" lon="4.69145">
        <ele>380</ele>
        <time>2012-07-22T08:17:09.000Z</time>
      </trkpt>
      <trkpt lat="46.85251" lon="4.69147">
        <ele>380</ele>
        <time>2012-07-22T08:17:15.000Z</time>
      </trkpt>
      <trkpt lat="46.85251" lon="4.69151">
        <ele>379</ele>
        <time>2012-07-22T08:17:18.000Z</time>
      </trkpt>
      <trkpt lat="46.85245" lon="4.69172">
        <ele>378</ele>
        <time>2012-07-22T08:17:22.000Z</time>
      </trkpt>
      <trkpt lat="46.85241" lon="4.69184">
        <ele>377</ele>
        <time>2012-07-22T08:17:25.000Z</time>
      </trkpt>
      <trkpt lat="46.85236" lon="4.69199">
        <ele>376</ele>
        <time>2012-07-22T08:17:27.000Z</time>
      </trkpt>
      <trkpt lat="46.85231" lon="4.69215">
        <ele>374</ele>
        <time>2012-07-22T08:17:30.000Z</time>
      </trkpt>
      <trkpt lat="46.85228" lon="4.69228">
        <ele>372</ele>
        <time>2012-07-22T08:17:33.000Z</time>
      </trkpt>
      <trkpt lat="46.85234" lon="4.69231">
        <ele>370</ele>
        <time>2012-07-22T08:17:35.000Z</time>
      </trkpt>
      <trkpt lat="46.85242" lon="4.69236">
        <ele>369</ele>
        <time>2012-07-22T08:17:37.000Z</time>
      </trkpt>
      <trkpt lat="46.85247" lon="4.69239">
        <ele>368</ele>
        <time>2012-07-22T08:17:40.000Z</time>
      </trkpt>
      <trkpt lat="46.85279" lon="4.69259">
        <ele>369</ele>
        <time>2012-07-22T08:17:51.000Z</time>
      </trkpt>
      <trkpt lat="46.85318" lon="4.6928">
        <ele>370</ele>
        <time>2012-07-22T08:18:06.000Z</time>
      </trkpt>
      <trkpt lat="46.85321" lon="4.69279">
        <ele>370</ele>
        <time>2012-07-22T08:18:08.000Z</time>
      </trkpt>
      <trkpt lat="46.85324" lon="4.69275">
        <ele>370</ele>
        <time>2012-07-22T08:18:10.000Z</time>
      </trkpt>
      <trkpt lat="46.85324" lon="4.69272">
        <ele>371</ele>
        <time>2012-07-22T08:18:13.000Z</time>
      </trkpt>
      <trkpt lat="46.85324" lon="4.69269">
        <ele>371</ele>
        <time>2012-07-22T08:18:15.000Z</time>
      </trkpt>
      <trkpt lat="46.85325" lon="4.69268">
        <ele>372</ele>
        <time>2012-07-22T08:18:20.000Z</time>
      </trkpt>
      <trkpt lat="46.85327" lon="4.69267">
        <ele>373</ele>
        <time>2012-07-22T08:18:23.000Z</time>
      </trkpt>
      <trkpt lat="46.85328" lon="4.69266">
        <ele>373</ele>
        <time>2012-07-22T08:18:26.000Z</time>
      </trkpt>
      <trkpt lat="46.8533" lon="4.69262">
        <ele>373</ele>
        <time>2012-07-22T08:18:28.000Z</time>
      </trkpt>
      <trkpt lat="46.85331" lon="4.69261">
        <ele>374</ele>
        <time>2012-07-22T08:18:31.000Z</time>
      </trkpt>
      <trkpt lat="46.85332" lon="4.69257">
        <ele>375</ele>
        <time>2012-07-22T08:18:37.000Z</time>
      </trkpt>
      <trkpt lat="46.85335" lon="4.69252">
        <ele>376</ele>
        <time>2012-07-22T08:18:42.000Z</time>
      </trkpt>
      <trkpt lat="46.85335" lon="4.6925">
        <ele>376</ele>
        <time>2012-07-22T08:18:45.000Z</time>
      </trkpt>
      <trkpt lat="46.85336" lon="4.69248">
        <ele>377</ele>
        <time>2012-07-22T08:18:48.000Z</time>
      </trkpt>
      <trkpt lat="46.85337" lon="4.69247">
        <ele>377</ele>
        <time>2012-07-22T08:18:51.000Z</time>
      </trkpt>
      <trkpt lat="46.85339" lon="4.69246">
        <ele>378</ele>
        <time>2012-07-22T08:18:53.000Z</time>
      </trkpt>
      <trkpt lat="46.8534" lon="4.69245">
        <ele>378</ele>
        <time>2012-07-22T08:18:55.000Z</time>
      </trkpt>
      <trkpt lat="46.85342" lon="4.69244">
        <ele>378</ele>
        <time>2012-07-22T08:19:00.000Z</time>
      </trkpt>
      <trkpt lat="46.85343" lon="4.69241">
        <ele>379</ele>
        <time>2012-07-22T08:19:03.000Z</time>
      </trkpt>
      <trkpt lat="46.85343" lon="4.69234">
        <ele>379</ele>
        <time>2012-07-22T08:19:12.000Z</time>
      </trkpt>
      <trkpt lat="46.85344" lon="4.69233">
        <ele>380</ele>
        <time>2012-07-22T08:19:15.000Z</time>
      </trkpt>
      <trkpt lat="46.85347" lon="4.6923">
        <ele>380</ele>
        <time>2012-07-22T08:19:20.000Z</time>
      </trkpt>
      <trkpt lat="46.85349" lon="4.69228">
        <ele>381</ele>
        <time>2012-07-22T08:19:22.000Z</time>
      </trkpt>
      <trkpt lat="46.85348" lon="4.69226">
        <ele>381</ele>
        <time>2012-07-22T08:19:25.000Z</time>
      </trkpt>
      <trkpt lat="46.85349" lon="4.69225">
        <ele>381</ele>
        <time>2012-07-22T08:19:27.000Z</time>
      </trkpt>
      <trkpt lat="46.8535" lon="4.69225">
        <ele>381</ele>
        <time>2012-07-22T08:19:31.000Z</time>
      </trkpt>
      <trkpt lat="46.8535" lon="4.69222">
        <ele>382</ele>
        <time>2012-07-22T08:19:34.000Z</time>
      </trkpt>
      <trkpt lat="46.85349" lon="4.69221">
        <ele>382</ele>
        <time>2012-07-22T08:19:36.000Z</time>
      </trkpt>
      <trkpt lat="46.85349" lon="4.6922">
        <ele>382</ele>
        <time>2012-07-22T08:19:39.000Z</time>
      </trkpt>
      <trkpt lat="46.85349" lon="4.69218">
        <ele>382</ele>
        <time>2012-07-22T08:19:42.000Z</time>
      </trkpt>
      <trkpt lat="46.85351" lon="4.69215">
        <ele>382</ele>
        <time>2012-07-22T08:19:44.000Z</time>
      </trkpt>
      <trkpt lat="46.85353" lon="4.69213">
        <ele>383</ele>
        <time>2012-07-22T08:19:47.000Z</time>
      </trkpt>
      <trkpt lat="46.85355" lon="4.69209">
        <ele>384</ele>
        <time>2012-07-22T08:19:55.000Z</time>
      </trkpt>
      <trkpt lat="46.85355" lon="4.69207">
        <ele>384</ele>
        <time>2012-07-22T08:19:57.000Z</time>
      </trkpt>
      <trkpt lat="46.85355" lon="4.69205">
        <ele>384</ele>
        <time>2012-07-22T08:20:00.000Z</time>
      </trkpt>
      <trkpt lat="46.85357" lon="4.692">
        <ele>385</ele>
        <time>2012-07-22T08:20:07.000Z</time>
      </trkpt>
      <trkpt lat="46.85358" lon="4.69199">
        <ele>385</ele>
        <time>2012-07-22T08:20:09.000Z</time>
      </trkpt>
      <trkpt lat="46.8536" lon="4.69197">
        <ele>385</ele>
        <time>2012-07-22T08:20:12.000Z</time>
      </trkpt>
      <trkpt lat="46.85362" lon="4.69194">
        <ele>386</ele>
        <time>2012-07-22T08:20:17.000Z</time>
      </trkpt>
      <trkpt lat="46.85363" lon="4.69193">
        <ele>386</ele>
        <time>2012-07-22T08:20:20.000Z</time>
      </trkpt>
      <trkpt lat="46.85365" lon="4.69193">
        <ele>386</ele>
        <time>2012-07-22T08:20:23.000Z</time>
      </trkpt>
      <trkpt lat="46.85368" lon="4.69191">
        <ele>387</ele>
        <time>2012-07-22T08:20:30.000Z</time>
      </trkpt>
      <trkpt lat="46.85372" lon="4.69189">
        <ele>387</ele>
        <time>2012-07-22T08:20:34.000Z</time>
      </trkpt>
      <trkpt lat="46.85379" lon="4.69184">
        <ele>388</ele>
        <time>2012-07-22T08:20:39.000Z</time>
      </trkpt>
      <trkpt lat="46.8538" lon="4.69181">
        <ele>388</ele>
        <time>2012-07-22T08:20:42.000Z</time>
      </trkpt>
      <trkpt lat="46.8538" lon="4.69175">
        <ele>389</ele>
        <time>2012-07-22T08:20:44.000Z</time>
      </trkpt>
      <trkpt lat="46.8538" lon="4.69168">
        <ele>389</ele>
        <time>2012-07-22T08:20:47.000Z</time>
      </trkpt>
      <trkpt lat="46.85379" lon="4.69164">
        <ele>390</ele>
        <time>2012-07-22T08:20:49.000Z</time>
      </trkpt>
      <trkpt lat="46.8538" lon="4.69161">
        <ele>390</ele>
        <time>2012-07-22T08:20:51.000Z</time>
      </trkpt>
      <trkpt lat="46.8538" lon="4.69157">
        <ele>390</ele>
        <time>2012-07-22T08:20:54.000Z</time>
      </trkpt>
      <trkpt lat="46.85379" lon="4.69153">
        <ele>391</ele>
        <time>2012-07-22T08:20:56.000Z</time>
      </trkpt>
      <trkpt lat="46.85371" lon="4.69135">
        <ele>392</ele>
        <time>2012-07-22T08:21:06.000Z</time>
      </trkpt>
      <trkpt lat="46.85369" lon="4.69131">
        <ele>392</ele>
        <time>2012-07-22T08:21:08.000Z</time>
      </trkpt>
      <trkpt lat="46.85369" lon="4.69123">
        <ele>392</ele>
        <time>2012-07-22T08:21:11.000Z</time>
      </trkpt>
      <trkpt lat="46.8537" lon="4.69116">
        <ele>392</ele>
        <time>2012-07-22T08:21:14.000Z</time>
      </trkpt>
      <trkpt lat="46.85371" lon="4.69112">
        <ele>393</ele>
        <time>2012-07-22T08:21:16.000Z</time>
      </trkpt>
      <trkpt lat="46.85376" lon="4.69099">
        <ele>394</ele>
        <time>2012-07-22T08:21:22.000Z</time>
      </trkpt>
      <trkpt lat="46.85381" lon="4.69091">
        <ele>394</ele>
        <time>2012-07-22T08:21:27.000Z</time>
      </trkpt>
      <trkpt lat="46.85383" lon="4.69088">
        <ele>395</ele>
        <time>2012-07-22T08:21:29.000Z</time>
      </trkpt>
      <trkpt lat="46.85389" lon="4.69078">
        <ele>396</ele>
        <time>2012-07-22T08:21:33.000Z</time>
      </trkpt>
      <trkpt lat="46.85398" lon="4.69057">
        <ele>397</ele>
        <time>2012-07-22T08:21:45.000Z</time>
      </trkpt>
      <trkpt lat="46.85398" lon="4.69053">
        <ele>397</ele>
        <time>2012-07-22T08:21:47.000Z</time>
      </trkpt>
      <trkpt lat="46.854" lon="4.69052">
        <ele>397</ele>
        <time>2012-07-22T08:21:56.000Z</time>
      </trkpt>
      <trkpt lat="46.85402" lon="4.69053">
        <ele>397</ele>
        <time>2012-07-22T08:21:58.000Z</time>
      </trkpt>
      <trkpt lat="46.85406" lon="4.69057">
        <ele>398</ele>
        <time>2012-07-22T08:22:01.000Z</time>
      </trkpt>
      <trkpt lat="46.85444" lon="4.69082">
        <ele>397</ele>
        <time>2012-07-22T08:22:16.000Z</time>
      </trkpt>
      <trkpt lat="46.85459" lon="4.69095">
        <ele>397</ele>
        <time>2012-07-22T08:22:21.000Z</time>
      </trkpt>
      <trkpt lat="46.85464" lon="4.691">
        <ele>397</ele>
        <time>2012-07-22T08:22:24.000Z</time>
      </trkpt>
      <trkpt lat="46.85478" lon="4.69117">
        <ele>396</ele>
        <time>2012-07-22T08:22:30.000Z</time>
      </trkpt>
      <trkpt lat="46.85491" lon="4.6913">
        <ele>396</ele>
        <time>2012-07-22T08:22:35.000Z</time>
      </trkpt>
      <trkpt lat="46.85496" lon="4.69133">
        <ele>396</ele>
        <time>2012-07-22T08:22:37.000Z</time>
      </trkpt>
      <trkpt lat="46.85501" lon="4.69135">
        <ele>395</ele>
        <time>2012-07-22T08:22:39.000Z</time>
      </trkpt>
      <trkpt lat="46.85546" lon="4.69163">
        <ele>395</ele>
        <time>2012-07-22T08:22:54.000Z</time>
      </trkpt>
      <trkpt lat="46.85553" lon="4.69165">
        <ele>395</ele>
        <time>2012-07-22T08:22:56.000Z</time>
      </trkpt>
      <trkpt lat="46.85561" lon="4.69169">
        <ele>395</ele>
        <time>2012-07-22T08:22:59.000Z</time>
      </trkpt>
      <trkpt lat="46.85567" lon="4.69175">
        <ele>395</ele>
        <time>2012-07-22T08:23:01.000Z</time>
      </trkpt>
      <trkpt lat="46.85582" lon="4.69191">
        <ele>394</ele>
        <time>2012-07-22T08:23:06.000Z</time>
      </trkpt>
      <trkpt lat="46.85588" lon="4.69195">
        <ele>394</ele>
        <time>2012-07-22T08:23:08.000Z</time>
      </trkpt>
      <trkpt lat="46.85597" lon="4.69203">
        <ele>394</ele>
        <time>2012-07-22T08:23:11.000Z</time>
      </trkpt>
      <trkpt lat="46.8562" lon="4.69222">
        <ele>393</ele>
        <time>2012-07-22T08:23:18.000Z</time>
      </trkpt>
      <trkpt lat="46.85642" lon="4.69248">
        <ele>392</ele>
        <time>2012-07-22T08:23:27.000Z</time>
      </trkpt>
      <trkpt lat="46.85654" lon="4.69267">
        <ele>391</ele>
        <time>2012-07-22T08:23:32.000Z</time>
      </trkpt>
      <trkpt lat="46.85666" lon="4.69283">
        <ele>390</ele>
        <time>2012-07-22T08:23:38.000Z</time>
      </trkpt>
      <trkpt lat="46.85668" lon="4.69285">
        <ele>390</ele>
        <time>2012-07-22T08:23:40.000Z</time>
      </trkpt>
      <trkpt lat="46.85667" lon="4.69286">
        <ele>389</ele>
        <time>2012-07-22T08:23:45.000Z</time>
      </trkpt>
      <trkpt lat="46.85667" lon="4.69292">
        <ele>389</ele>
        <time>2012-07-22T08:24:03.000Z</time>
      </trkpt>
      <trkpt lat="46.85672" lon="4.69296">
        <ele>389</ele>
        <time>2012-07-22T08:24:05.000Z</time>
      </trkpt>
      <trkpt lat="46.85677" lon="4.69298">
        <ele>388</ele>
        <time>2012-07-22T08:24:07.000Z</time>
      </trkpt>
      <trkpt lat="46.8569" lon="4.69303">
        <ele>388</ele>
        <time>2012-07-22T08:24:10.000Z</time>
      </trkpt>
      <trkpt lat="46.85707" lon="4.6931">
        <ele>387</ele>
        <time>2012-07-22T08:24:15.000Z</time>
      </trkpt>
      <trkpt lat="46.85721" lon="4.69315">
        <ele>386</ele>
        <time>2012-07-22T08:24:20.000Z</time>
      </trkpt>
      <trkpt lat="46.8573" lon="4.69321">
        <ele>386</ele>
        <time>2012-07-22T08:24:22.000Z</time>
      </trkpt>
      <trkpt lat="46.85737" lon="4.69326">
        <ele>385</ele>
        <time>2012-07-22T08:24:25.000Z</time>
      </trkpt>
      <trkpt lat="46.85743" lon="4.69328">
        <ele>385</ele>
        <time>2012-07-22T08:24:27.000Z</time>
      </trkpt>
      <trkpt lat="46.85749" lon="4.69331">
        <ele>384</ele>
        <time>2012-07-22T08:24:30.000Z</time>
      </trkpt>
      <trkpt lat="46.85754" lon="4.69335">
        <ele>384</ele>
        <time>2012-07-22T08:24:32.000Z</time>
      </trkpt>
      <trkpt lat="46.8576" lon="4.69342">
        <ele>383</ele>
        <time>2012-07-22T08:24:35.000Z</time>
      </trkpt>
      <trkpt lat="46.85764" lon="4.6935">
        <ele>383</ele>
        <time>2012-07-22T08:24:37.000Z</time>
      </trkpt>
      <trkpt lat="46.85767" lon="4.69361">
        <ele>382</ele>
        <time>2012-07-22T08:24:40.000Z</time>
      </trkpt>
      <trkpt lat="46.85772" lon="4.69372">
        <ele>382</ele>
        <time>2012-07-22T08:24:43.000Z</time>
      </trkpt>
      <trkpt lat="46.85776" lon="4.69379">
        <ele>381</ele>
        <time>2012-07-22T08:24:46.000Z</time>
      </trkpt>
      <trkpt lat="46.85779" lon="4.69381">
        <ele>380</ele>
        <time>2012-07-22T08:24:48.000Z</time>
      </trkpt>
      <trkpt lat="46.85782" lon="4.69386">
        <ele>380</ele>
        <time>2012-07-22T08:24:51.000Z</time>
      </trkpt>
      <trkpt lat="46.85784" lon="4.69392">
        <ele>379</ele>
        <time>2012-07-22T08:24:53.000Z</time>
      </trkpt>
      <trkpt lat="46.85788" lon="4.694">
        <ele>379</ele>
        <time>2012-07-22T08:24:55.000Z</time>
      </trkpt>
      <trkpt lat="46.85795" lon="4.69411">
        <ele>378</ele>
        <time>2012-07-22T08:24:58.000Z</time>
      </trkpt>
      <trkpt lat="46.85806" lon="4.6943">
        <ele>377</ele>
        <time>2012-07-22T08:25:04.000Z</time>
      </trkpt>
      <trkpt lat="46.85818" lon="4.6945">
        <ele>376</ele>
        <time>2012-07-22T08:25:07.000Z</time>
      </trkpt>
      <trkpt lat="46.85823" lon="4.69463">
        <ele>374</ele>
        <time>2012-07-22T08:25:09.000Z</time>
      </trkpt>
      <trkpt lat="46.85831" lon="4.6948">
        <ele>372</ele>
        <time>2012-07-22T08:25:12.000Z</time>
      </trkpt>
      <trkpt lat="46.85837" lon="4.69488">
        <ele>371</ele>
        <time>2012-07-22T08:25:15.000Z</time>
      </trkpt>
      <trkpt lat="46.85855" lon="4.69511">
        <ele>369</ele>
        <time>2012-07-22T08:25:19.000Z</time>
      </trkpt>
      <trkpt lat="46.85862" lon="4.69522">
        <ele>367</ele>
        <time>2012-07-22T08:25:21.000Z</time>
      </trkpt>
      <trkpt lat="46.85872" lon="4.69539">
        <ele>366</ele>
        <time>2012-07-22T08:25:24.000Z</time>
      </trkpt>
      <trkpt lat="46.85878" lon="4.69548">
        <ele>365</ele>
        <time>2012-07-22T08:25:26.000Z</time>
      </trkpt>
      <trkpt lat="46.85883" lon="4.69556">
        <ele>364</ele>
        <time>2012-07-22T08:25:28.000Z</time>
      </trkpt>
      <trkpt lat="46.85892" lon="4.69571">
        <ele>363</ele>
        <time>2012-07-22T08:25:31.000Z</time>
      </trkpt>
      <trkpt lat="46.85892" lon="4.69585">
        <ele>362</ele>
        <time>2012-07-22T08:25:34.000Z</time>
      </trkpt>
      <trkpt lat="46.85884" lon="4.69611">
        <ele>361</ele>
        <time>2012-07-22T08:25:37.000Z</time>
      </trkpt>
      <trkpt lat="46.85877" lon="4.69637">
        <ele>359</ele>
        <time>2012-07-22T08:25:40.000Z</time>
      </trkpt>
      <trkpt lat="46.85868" lon="4.69667">
        <ele>356</ele>
        <time>2012-07-22T08:25:42.000Z</time>
      </trkpt>
      <trkpt lat="46.85862" lon="4.69689">
        <ele>353</ele>
        <time>2012-07-22T08:25:46.000Z</time>
      </trkpt>
      <trkpt lat="46.85859" lon="4.697">
        <ele>350</ele>
        <time>2012-07-22T08:25:48.000Z</time>
      </trkpt>
      <trkpt lat="46.85855" lon="4.69709">
        <ele>348</ele>
        <time>2012-07-22T08:25:51.000Z</time>
      </trkpt>
      <trkpt lat="46.85855" lon="4.69712">
        <ele>346</ele>
        <time>2012-07-22T08:25:53.000Z</time>
      </trkpt>
      <trkpt lat="46.85855" lon="4.69712">
        <ele>346</ele>
        <time>2012-07-22T08:26:13.000Z</time>
      </trkpt>
      <trkpt lat="46.85855" lon="4.69715">
        <ele>345</ele>
        <time>2012-07-22T08:26:42.000Z</time>
      </trkpt>
      <trkpt lat="46.85855" lon="4.69719">
        <ele>344</ele>
        <time>2012-07-22T08:26:44.000Z</time>
      </trkpt>
      <trkpt lat="46.8585" lon="4.69733">
        <ele>343</ele>
        <time>2012-07-22T08:26:48.000Z</time>
      </trkpt>
      <trkpt lat="46.85843" lon="4.69751">
        <ele>342</ele>
        <time>2012-07-22T08:26:53.000Z</time>
      </trkpt>
      <trkpt lat="46.85841" lon="4.69764">
        <ele>341</ele>
        <time>2012-07-22T08:26:56.000Z</time>
      </trkpt>
      <trkpt lat="46.85836" lon="4.69778">
        <ele>340</ele>
        <time>2012-07-22T08:26:58.000Z</time>
      </trkpt>
      <trkpt lat="46.85833" lon="4.69786">
        <ele>339</ele>
        <time>2012-07-22T08:27:00.000Z</time>
      </trkpt>
      <trkpt lat="46.85832" lon="4.69788">
        <ele>338</ele>
        <time>2012-07-22T08:27:06.000Z</time>
      </trkpt>
      <trkpt lat="46.85832" lon="4.69785">
        <ele>338</ele>
        <time>2012-07-22T08:27:20.000Z</time>
      </trkpt>
      <trkpt lat="46.85828" lon="4.69792">
        <ele>338</ele>
        <time>2012-07-22T08:27:23.000Z</time>
      </trkpt>
      <trkpt lat="46.85817" lon="4.69806">
        <ele>337</ele>
        <time>2012-07-22T08:27:29.000Z</time>
      </trkpt>
      <trkpt lat="46.85818" lon="4.69804">
        <ele>337</ele>
        <time>2012-07-22T08:27:31.000Z</time>
      </trkpt>
      <trkpt lat="46.85816" lon="4.69808">
        <ele>337</ele>
        <time>2012-07-22T08:27:34.000Z</time>
      </trkpt>
      <trkpt lat="46.8581" lon="4.69819">
        <ele>336</ele>
        <time>2012-07-22T08:27:39.000Z</time>
      </trkpt>
      <trkpt lat="46.85801" lon="4.69843">
        <ele>335</ele>
        <time>2012-07-22T08:27:49.000Z</time>
      </trkpt>
      <trkpt lat="46.85798" lon="4.69848">
        <ele>335</ele>
        <time>2012-07-22T08:27:51.000Z</time>
      </trkpt>
      <trkpt lat="46.85795" lon="4.69852">
        <ele>335</ele>
        <time>2012-07-22T08:27:53.000Z</time>
      </trkpt>
      <trkpt lat="46.85793" lon="4.69854">
        <ele>335</ele>
        <time>2012-07-22T08:27:55.000Z</time>
      </trkpt>
      <trkpt lat="46.85791" lon="4.69857">
        <ele>335</ele>
        <time>2012-07-22T08:28:14.000Z</time>
      </trkpt>
      <trkpt lat="46.85791" lon="4.69857">
        <ele>335</ele>
        <time>2012-07-22T08:28:34.000Z</time>
      </trkpt>
      <trkpt lat="46.8579" lon="4.69857">
        <ele>334</ele>
        <time>2012-07-22T08:28:36.000Z</time>
      </trkpt>
      <trkpt lat="46.85788" lon="4.69859">
        <ele>334</ele>
        <time>2012-07-22T08:28:38.000Z</time>
      </trkpt>
      <trkpt lat="46.85788" lon="4.6986">
        <ele>334</ele>
        <time>2012-07-22T08:28:42.000Z</time>
      </trkpt>
      <trkpt lat="46.85787" lon="4.69864">
        <ele>334</ele>
        <time>2012-07-22T08:28:55.000Z</time>
      </trkpt>
      <trkpt lat="46.85785" lon="4.69866">
        <ele>334</ele>
        <time>2012-07-22T08:28:57.000Z</time>
      </trkpt>
      <trkpt lat="46.85771" lon="4.6988">
        <ele>333</ele>
        <time>2012-07-22T08:29:07.000Z</time>
      </trkpt>
      <trkpt lat="46.85767" lon="4.69885">
        <ele>333</ele>
        <time>2012-07-22T08:29:10.000Z</time>
      </trkpt>
      <trkpt lat="46.85749" lon="4.69902">
        <ele>332</ele>
        <time>2012-07-22T08:29:20.000Z</time>
      </trkpt>
      <trkpt lat="46.85745" lon="4.69904">
        <ele>332</ele>
        <time>2012-07-22T08:29:22.000Z</time>
      </trkpt>
      <trkpt lat="46.85738" lon="4.6991">
        <ele>332</ele>
        <time>2012-07-22T08:29:27.000Z</time>
      </trkpt>
      <trkpt lat="46.8573" lon="4.6992">
        <ele>332</ele>
        <time>2012-07-22T08:29:30.000Z</time>
      </trkpt>
      <trkpt lat="46.85709" lon="4.69956">
        <ele>331</ele>
        <time>2012-07-22T08:29:47.000Z</time>
      </trkpt>
      <trkpt lat="46.85708" lon="4.69957">
        <ele>331</ele>
        <time>2012-07-22T08:29:50.000Z</time>
      </trkpt>
      <trkpt lat="46.85704" lon="4.69961">
        <ele>332</ele>
        <time>2012-07-22T08:30:07.000Z</time>
      </trkpt>
      <trkpt lat="46.85703" lon="4.69962">
        <ele>332</ele>
        <time>2012-07-22T08:30:09.000Z</time>
      </trkpt>
      <trkpt lat="46.85704" lon="4.69961">
        <ele>332</ele>
        <time>2012-07-22T08:30:13.000Z</time>
      </trkpt>
      <trkpt lat="46.85706" lon="4.69961">
        <ele>332</ele>
        <time>2012-07-22T08:30:15.000Z</time>
      </trkpt>
      <trkpt lat="46.85708" lon="4.69963">
        <ele>332</ele>
        <time>2012-07-22T08:30:20.000Z</time>
      </trkpt>
      <trkpt lat="46.85709" lon="4.69967">
        <ele>332</ele>
        <time>2012-07-22T08:30:23.000Z</time>
      </trkpt>
      <trkpt lat="46.85709" lon="4.69972">
        <ele>332</ele>
        <time>2012-07-22T08:30:25.000Z</time>
      </trkpt>
      <trkpt lat="46.85709" lon="4.69982">
        <ele>331</ele>
        <time>2012-07-22T08:30:27.000Z</time>
      </trkpt>
      <trkpt lat="46.85711" lon="4.69996">
        <ele>331</ele>
        <time>2012-07-22T08:30:30.000Z</time>
      </trkpt>
      <trkpt lat="46.8571" lon="4.70011">
        <ele>331</ele>
        <time>2012-07-22T08:30:33.000Z</time>
      </trkpt>
      <trkpt lat="46.85707" lon="4.70024">
        <ele>331</ele>
        <time>2012-07-22T08:30:35.000Z</time>
      </trkpt>
      <trkpt lat="46.85667" lon="4.70078">
        <ele>330</ele>
        <time>2012-07-22T08:30:43.000Z</time>
      </trkpt>
      <trkpt lat="46.8566" lon="4.70094">
        <ele>329</ele>
        <time>2012-07-22T08:30:45.000Z</time>
      </trkpt>
      <trkpt lat="46.85649" lon="4.70122">
        <ele>328</ele>
        <time>2012-07-22T08:30:48.000Z</time>
      </trkpt>
      <trkpt lat="46.85639" lon="4.70146">
        <ele>327</ele>
        <time>2012-07-22T08:30:51.000Z</time>
      </trkpt>
      <trkpt lat="46.85623" lon="4.70166">
        <ele>325</ele>
        <time>2012-07-22T08:30:54.000Z</time>
      </trkpt>
      <trkpt lat="46.85616" lon="4.70189">
        <ele>323</ele>
        <time>2012-07-22T08:30:57.000Z</time>
      </trkpt>
      <trkpt lat="46.85612" lon="4.70223">
        <ele>321</ele>
        <time>2012-07-22T08:31:00.000Z</time>
      </trkpt>
      <trkpt lat="46.85608" lon="4.7025">
        <ele>319</ele>
        <time>2012-07-22T08:31:02.000Z</time>
      </trkpt>
      <trkpt lat="46.85603" lon="4.70266">
        <ele>316</ele>
        <time>2012-07-22T08:31:05.000Z</time>
      </trkpt>
      <trkpt lat="46.85601" lon="4.70284">
        <ele>314</ele>
        <time>2012-07-22T08:31:08.000Z</time>
      </trkpt>
      <trkpt lat="46.85601" lon="4.70291">
        <ele>312</ele>
        <time>2012-07-22T08:31:11.000Z</time>
      </trkpt>
      <trkpt lat="46.85595" lon="4.70296">
        <ele>310</ele>
        <time>2012-07-22T08:31:13.000Z</time>
      </trkpt>
      <trkpt lat="46.85593" lon="4.70295">
        <ele>309</ele>
        <time>2012-07-22T08:31:16.000Z</time>
      </trkpt>
      <trkpt lat="46.85592" lon="4.70295">
        <ele>308</ele>
        <time>2012-07-22T08:31:18.000Z</time>
      </trkpt>
      <trkpt lat="46.8559" lon="4.70291">
        <ele>308</ele>
        <time>2012-07-22T08:31:34.000Z</time>
      </trkpt>
      <trkpt lat="46.85588" lon="4.70289">
        <ele>308</ele>
        <time>2012-07-22T08:31:37.000Z</time>
      </trkpt>
      <trkpt lat="46.8559" lon="4.70285">
        <ele>308</ele>
        <time>2012-07-22T08:31:40.000Z</time>
      </trkpt>
      <trkpt lat="46.85594" lon="4.7028">
        <ele>308</ele>
        <time>2012-07-22T08:31:43.000Z</time>
      </trkpt>
      <trkpt lat="46.85596" lon="4.70279">
        <ele>309</ele>
        <time>2012-07-22T08:31:45.000Z</time>
      </trkpt>
      <trkpt lat="46.85594" lon="4.70284">
        <ele>309</ele>
        <time>2012-07-22T08:32:02.000Z</time>
      </trkpt>
      <trkpt lat="46.85595" lon="4.70287">
        <ele>309</ele>
        <time>2012-07-22T08:32:04.000Z</time>
      </trkpt>
      <trkpt lat="46.85598" lon="4.70296">
        <ele>309</ele>
        <time>2012-07-22T08:32:07.000Z</time>
      </trkpt>
      <trkpt lat="46.85604" lon="4.70306">
        <ele>309</ele>
        <time>2012-07-22T08:32:10.000Z</time>
      </trkpt>
      <trkpt lat="46.85609" lon="4.70314">
        <ele>308</ele>
        <time>2012-07-22T08:32:12.000Z</time>
      </trkpt>
      <trkpt lat="46.85619" lon="4.70339">
        <ele>308</ele>
        <time>2012-07-22T08:32:17.000Z</time>
      </trkpt>
      <trkpt lat="46.85621" lon="4.70348">
        <ele>308</ele>
        <time>2012-07-22T08:32:19.000Z</time>
      </trkpt>
      <trkpt lat="46.85622" lon="4.70355">
        <ele>307</ele>
        <time>2012-07-22T08:32:22.000Z</time>
      </trkpt>
      <trkpt lat="46.85625" lon="4.70363">
        <ele>308</ele>
        <time>2012-07-22T08:32:26.000Z</time>
      </trkpt>
      <trkpt lat="46.85625" lon="4.7036">
        <ele>308</ele>
        <time>2012-07-22T08:32:29.000Z</time>
      </trkpt>
      <trkpt lat="46.85626" lon="4.70359">
        <ele>308</ele>
        <time>2012-07-22T08:32:32.000Z</time>
      </trkpt>
      <trkpt lat="46.85628" lon="4.70361">
        <ele>308</ele>
        <time>2012-07-22T08:32:35.000Z</time>
      </trkpt>
      <trkpt lat="46.85625" lon="4.7036">
        <ele>308</ele>
        <time>2012-07-22T08:32:38.000Z</time>
      </trkpt>
      <trkpt lat="46.85622" lon="4.70358">
        <ele>308</ele>
        <time>2012-07-22T08:32:44.000Z</time>
      </trkpt>
      <trkpt lat="46.85621" lon="4.70357">
        <ele>308</ele>
        <time>2012-07-22T08:32:47.000Z</time>
      </trkpt>
      <trkpt lat="46.85622" lon="4.7036">
        <ele>308</ele>
        <time>2012-07-22T08:32:49.000Z</time>
      </trkpt>
      <trkpt lat="46.85622" lon="4.70362">
        <ele>307</ele>
        <time>2012-07-22T08:32:51.000Z</time>
      </trkpt>
      <trkpt lat="46.8562" lon="4.70369">
        <ele>307</ele>
        <time>2012-07-22T08:32:59.000Z</time>
      </trkpt>
      <trkpt lat="46.85598" lon="4.7041">
        <ele>306</ele>
        <time>2012-07-22T08:33:10.000Z</time>
      </trkpt>
      <trkpt lat="46.8559" lon="4.70419">
        <ele>305</ele>
        <time>2012-07-22T08:33:12.000Z</time>
      </trkpt>
      <trkpt lat="46.85565" lon="4.70445">
        <ele>303</ele>
        <time>2012-07-22T08:33:18.000Z</time>
      </trkpt>
      <trkpt lat="46.85556" lon="4.70457">
        <ele>302</ele>
        <time>2012-07-22T08:33:20.000Z</time>
      </trkpt>
      <trkpt lat="46.85534" lon="4.70482">
        <ele>300</ele>
        <time>2012-07-22T08:33:24.000Z</time>
      </trkpt>
      <trkpt lat="46.85526" lon="4.7049">
        <ele>299</ele>
        <time>2012-07-22T08:33:27.000Z</time>
      </trkpt>
      <trkpt lat="46.85514" lon="4.705">
        <ele>298</ele>
        <time>2012-07-22T08:33:29.000Z</time>
      </trkpt>
      <trkpt lat="46.85505" lon="4.70513">
        <ele>296</ele>
        <time>2012-07-22T08:33:33.000Z</time>
      </trkpt>
      <trkpt lat="46.855" lon="4.70531">
        <ele>294</ele>
        <time>2012-07-22T08:33:36.000Z</time>
      </trkpt>
      <trkpt lat="46.85495" lon="4.70553">
        <ele>293</ele>
        <time>2012-07-22T08:33:39.000Z</time>
      </trkpt>
      <trkpt lat="46.8549" lon="4.70578">
        <ele>292</ele>
        <time>2012-07-22T08:33:42.000Z</time>
      </trkpt>
      <trkpt lat="46.85484" lon="4.70593">
        <ele>292</ele>
        <time>2012-07-22T08:33:44.000Z</time>
      </trkpt>
      <trkpt lat="46.85472" lon="4.70615">
        <ele>291</ele>
        <time>2012-07-22T08:33:47.000Z</time>
      </trkpt>
      <trkpt lat="46.85455" lon="4.70637">
        <ele>290</ele>
        <time>2012-07-22T08:33:50.000Z</time>
      </trkpt>
      <trkpt lat="46.85435" lon="4.70657">
        <ele>288</ele>
        <time>2012-07-22T08:33:53.000Z</time>
      </trkpt>
      <trkpt lat="46.85422" lon="4.70671">
        <ele>286</ele>
        <time>2012-07-22T08:33:55.000Z</time>
      </trkpt>
      <trkpt lat="46.85408" lon="4.70684">
        <ele>284</ele>
        <time>2012-07-22T08:33:57.000Z</time>
      </trkpt>
      <trkpt lat="46.85388" lon="4.70706">
        <ele>283</ele>
        <time>2012-07-22T08:34:00.000Z</time>
      </trkpt>
      <trkpt lat="46.85371" lon="4.7072">
        <ele>282</ele>
        <time>2012-07-22T08:34:03.000Z</time>
      </trkpt>
      <trkpt lat="46.85366" lon="4.70724">
        <ele>281</ele>
        <time>2012-07-22T08:34:05.000Z</time>
      </trkpt>
      <trkpt lat="46.85363" lon="4.70726">
        <ele>281</ele>
        <time>2012-07-22T08:34:07.000Z</time>
      </trkpt>
      <trkpt lat="46.85365" lon="4.70726">
        <ele>281</ele>
        <time>2012-07-22T08:34:11.000Z</time>
      </trkpt>
      <trkpt lat="46.85366" lon="4.70725">
        <ele>281</ele>
        <time>2012-07-22T08:34:13.000Z</time>
      </trkpt>
      <trkpt lat="46.85368" lon="4.70723">
        <ele>281</ele>
        <time>2012-07-22T08:34:15.000Z</time>
      </trkpt>
      <trkpt lat="46.85374" lon="4.70722">
        <ele>281</ele>
        <time>2012-07-22T08:34:18.000Z</time>
      </trkpt>
      <trkpt lat="46.85375" lon="4.70727">
        <ele>281</ele>
        <time>2012-07-22T08:34:20.000Z</time>
      </trkpt>
      <trkpt lat="46.85368" lon="4.70732">
        <ele>281</ele>
        <time>2012-07-22T08:34:22.000Z</time>
      </trkpt>
      <trkpt lat="46.85361" lon="4.70735">
        <ele>281</ele>
        <time>2012-07-22T08:34:25.000Z</time>
      </trkpt>
      <trkpt lat="46.85343" lon="4.70742">
        <ele>280</ele>
        <time>2012-07-22T08:34:32.000Z</time>
      </trkpt>
      <trkpt lat="46.85328" lon="4.70755">
        <ele>280</ele>
        <time>2012-07-22T08:34:55.000Z</time>
      </trkpt>
      <trkpt lat="46.85331" lon="4.70764">
        <ele>280</ele>
        <time>2012-07-22T08:34:57.000Z</time>
      </trkpt>
      <trkpt lat="46.85335" lon="4.70776">
        <ele>280</ele>
        <time>2012-07-22T08:34:59.000Z</time>
      </trkpt>
      <trkpt lat="46.85354" lon="4.70849">
        <ele>280</ele>
        <time>2012-07-22T08:35:09.000Z</time>
      </trkpt>
      <trkpt lat="46.85357" lon="4.70869">
        <ele>280</ele>
        <time>2012-07-22T08:35:12.000Z</time>
      </trkpt>
      <trkpt lat="46.85362" lon="4.70905">
        <ele>279</ele>
        <time>2012-07-22T08:35:18.000Z</time>
      </trkpt>
      <trkpt lat="46.85374" lon="4.70971">
        <ele>278</ele>
        <time>2012-07-22T08:35:26.000Z</time>
      </trkpt>
      <trkpt lat="46.85378" lon="4.70988">
        <ele>277</ele>
        <time>2012-07-22T08:35:28.000Z</time>
      </trkpt>
      <trkpt lat="46.85385" lon="4.71014">
        <ele>276</ele>
        <time>2012-07-22T08:35:31.000Z</time>
      </trkpt>
      <trkpt lat="46.85399" lon="4.71058">
        <ele>275</ele>
        <time>2012-07-22T08:35:36.000Z</time>
      </trkpt>
      <trkpt lat="46.85416" lon="4.71097">
        <ele>274</ele>
        <time>2012-07-22T08:35:41.000Z</time>
      </trkpt>
      <trkpt lat="46.85423" lon="4.71124">
        <ele>274</ele>
        <time>2012-07-22T08:35:44.000Z</time>
      </trkpt>
      <trkpt lat="46.85437" lon="4.71183">
        <ele>273</ele>
        <time>2012-07-22T08:35:50.000Z</time>
      </trkpt>
      <trkpt lat="46.85448" lon="4.71235">
        <ele>272</ele>
        <time>2012-07-22T08:35:55.000Z</time>
      </trkpt>
      <trkpt lat="46.85455" lon="4.71266">
        <ele>270</ele>
        <time>2012-07-22T08:35:58.000Z</time>
      </trkpt>
      <trkpt lat="46.85463" lon="4.71301">
        <ele>269</ele>
        <time>2012-07-22T08:36:01.000Z</time>
      </trkpt>
      <trkpt lat="46.85473" lon="4.71333">
        <ele>268</ele>
        <time>2012-07-22T08:36:04.000Z</time>
      </trkpt>
      <trkpt lat="46.85486" lon="4.71366">
        <ele>266</ele>
        <time>2012-07-22T08:36:07.000Z</time>
      </trkpt>
      <trkpt lat="46.85497" lon="4.71399">
        <ele>265</ele>
        <time>2012-07-22T08:36:10.000Z</time>
      </trkpt>
      <trkpt lat="46.85519" lon="4.71406">
        <ele>264</ele>
        <time>2012-07-22T08:36:13.000Z</time>
      </trkpt>
      <trkpt lat="46.85531" lon="4.71414">
        <ele>264</ele>
        <time>2012-07-22T08:36:15.000Z</time>
      </trkpt>
      <trkpt lat="46.85544" lon="4.71431">
        <ele>264</ele>
        <time>2012-07-22T08:36:18.000Z</time>
      </trkpt>
      <trkpt lat="46.85555" lon="4.71451">
        <ele>264</ele>
        <time>2012-07-22T08:36:21.000Z</time>
      </trkpt>
      <trkpt lat="46.85566" lon="4.71468">
        <ele>265</ele>
        <time>2012-07-22T08:36:24.000Z</time>
      </trkpt>
      <trkpt lat="46.85573" lon="4.71485">
        <ele>265</ele>
        <time>2012-07-22T08:36:26.000Z</time>
      </trkpt>
      <trkpt lat="46.85576" lon="4.715">
        <ele>266</ele>
        <time>2012-07-22T08:36:29.000Z</time>
      </trkpt>
      <trkpt lat="46.85579" lon="4.71508">
        <ele>266</ele>
        <time>2012-07-22T08:36:32.000Z</time>
      </trkpt>
      <trkpt lat="46.85585" lon="4.71505">
        <ele>266</ele>
        <time>2012-07-22T08:36:34.000Z</time>
      </trkpt>
      <trkpt lat="46.85593" lon="4.71503">
        <ele>266</ele>
        <time>2012-07-22T08:36:36.000Z</time>
      </trkpt>
      <trkpt lat="46.85603" lon="4.71494">
        <ele>267</ele>
        <time>2012-07-22T08:36:38.000Z</time>
      </trkpt>
      <trkpt lat="46.85607" lon="4.71484">
        <ele>267</ele>
        <time>2012-07-22T08:36:42.000Z</time>
      </trkpt>
      <trkpt lat="46.85619" lon="4.7146">
        <ele>268</ele>
        <time>2012-07-22T08:36:50.000Z</time>
      </trkpt>
      <trkpt lat="46.85624" lon="4.71454">
        <ele>268</ele>
        <time>2012-07-22T08:36:52.000Z</time>
      </trkpt>
      <trkpt lat="46.85641" lon="4.71432">
        <ele>269</ele>
        <time>2012-07-22T08:37:00.000Z</time>
      </trkpt>
      <trkpt lat="46.85648" lon="4.71425">
        <ele>269</ele>
        <time>2012-07-22T08:37:03.000Z</time>
      </trkpt>
      <trkpt lat="46.85656" lon="4.71415">
        <ele>270</ele>
        <time>2012-07-22T08:37:07.000Z</time>
      </trkpt>
      <trkpt lat="46.85659" lon="4.71408">
        <ele>270</ele>
        <time>2012-07-22T08:37:09.000Z</time>
      </trkpt>
      <trkpt lat="46.85662" lon="4.71404">
        <ele>271</ele>
        <time>2012-07-22T08:37:12.000Z</time>
      </trkpt>
      <trkpt lat="46.85666" lon="4.714">
        <ele>271</ele>
        <time>2012-07-22T08:37:15.000Z</time>
      </trkpt>
      <trkpt lat="46.85671" lon="4.71394">
        <ele>272</ele>
        <time>2012-07-22T08:37:19.000Z</time>
      </trkpt>
      <trkpt lat="46.85681" lon="4.71385">
        <ele>273</ele>
        <time>2012-07-22T08:37:24.000Z</time>
      </trkpt>
      <trkpt lat="46.85687" lon="4.71378">
        <ele>273</ele>
        <time>2012-07-22T08:37:27.000Z</time>
      </trkpt>
      <trkpt lat="46.85691" lon="4.71373">
        <ele>274</ele>
        <time>2012-07-22T08:37:29.000Z</time>
      </trkpt>
      <trkpt lat="46.85695" lon="4.71369">
        <ele>275</ele>
        <time>2012-07-22T08:37:31.000Z</time>
      </trkpt>
      <trkpt lat="46.85701" lon="4.71361">
        <ele>276</ele>
        <time>2012-07-22T08:37:36.000Z</time>
      </trkpt>
      <trkpt lat="46.8571" lon="4.71349">
        <ele>277</ele>
        <time>2012-07-22T08:37:41.000Z</time>
      </trkpt>
      <trkpt lat="46.85713" lon="4.71344">
        <ele>278</ele>
        <time>2012-07-22T08:37:43.000Z</time>
      </trkpt>
      <trkpt lat="46.85719" lon="4.71337">
        <ele>279</ele>
        <time>2012-07-22T08:37:48.000Z</time>
      </trkpt>
      <trkpt lat="46.85723" lon="4.71332">
        <ele>279</ele>
        <time>2012-07-22T08:37:51.000Z</time>
      </trkpt>
      <trkpt lat="46.85728" lon="4.71327">
        <ele>280</ele>
        <time>2012-07-22T08:37:54.000Z</time>
      </trkpt>
      <trkpt lat="46.85735" lon="4.71319">
        <ele>281</ele>
        <time>2012-07-22T08:37:59.000Z</time>
      </trkpt>
      <trkpt lat="46.85743" lon="4.71308">
        <ele>282</ele>
        <time>2012-07-22T08:38:05.000Z</time>
      </trkpt>
      <trkpt lat="46.85745" lon="4.71303">
        <ele>282</ele>
        <time>2012-07-22T08:38:07.000Z</time>
      </trkpt>
      <trkpt lat="46.85748" lon="4.71299">
        <ele>283</ele>
        <time>2012-07-22T08:38:09.000Z</time>
      </trkpt>
      <trkpt lat="46.85753" lon="4.71284">
        <ele>284</ele>
        <time>2012-07-22T08:38:15.000Z</time>
      </trkpt>
      <trkpt lat="46.85758" lon="4.71269">
        <ele>285</ele>
        <time>2012-07-22T08:38:22.000Z</time>
      </trkpt>
      <trkpt lat="46.85766" lon="4.71254">
        <ele>286</ele>
        <time>2012-07-22T08:38:30.000Z</time>
      </trkpt>
      <trkpt lat="46.85769" lon="4.71251">
        <ele>286</ele>
        <time>2012-07-22T08:38:32.000Z</time>
      </trkpt>
      <trkpt lat="46.85774" lon="4.71248">
        <ele>287</ele>
        <time>2012-07-22T08:38:35.000Z</time>
      </trkpt>
      <trkpt lat="46.85796" lon="4.71235">
        <ele>288</ele>
        <time>2012-07-22T08:38:43.000Z</time>
      </trkpt>
      <trkpt lat="46.85806" lon="4.71231">
        <ele>288</ele>
        <time>2012-07-22T08:38:46.000Z</time>
      </trkpt>
      <trkpt lat="46.85812" lon="4.71228">
        <ele>289</ele>
        <time>2012-07-22T08:38:48.000Z</time>
      </trkpt>
      <trkpt lat="46.85821" lon="4.71222">
        <ele>289</ele>
        <time>2012-07-22T08:38:51.000Z</time>
      </trkpt>
      <trkpt lat="46.85828" lon="4.71219">
        <ele>290</ele>
        <time>2012-07-22T08:38:53.000Z</time>
      </trkpt>
      <trkpt lat="46.85845" lon="4.71212">
        <ele>291</ele>
        <time>2012-07-22T08:38:59.000Z</time>
      </trkpt>
      <trkpt lat="46.85851" lon="4.71209">
        <ele>292</ele>
        <time>2012-07-22T08:39:02.000Z</time>
      </trkpt>
      <trkpt lat="46.85856" lon="4.71209">
        <ele>292</ele>
        <time>2012-07-22T08:39:04.000Z</time>
      </trkpt>
      <trkpt lat="46.85861" lon="4.71213">
        <ele>293</ele>
        <time>2012-07-22T08:39:07.000Z</time>
      </trkpt>
      <trkpt lat="46.85868" lon="4.71221">
        <ele>293</ele>
        <time>2012-07-22T08:39:10.000Z</time>
      </trkpt>
      <trkpt lat="46.85879" lon="4.71233">
        <ele>294</ele>
        <time>2012-07-22T08:39:15.000Z</time>
      </trkpt>
      <trkpt lat="46.85917" lon="4.71284">
        <ele>295</ele>
        <time>2012-07-22T08:39:27.000Z</time>
      </trkpt>
      <trkpt lat="46.85916" lon="4.71296">
        <ele>295</ele>
        <time>2012-07-22T08:39:29.000Z</time>
      </trkpt>
      <trkpt lat="46.85912" lon="4.71311">
        <ele>295</ele>
        <time>2012-07-22T08:39:32.000Z</time>
      </trkpt>
      <trkpt lat="46.85909" lon="4.7134">
        <ele>295</ele>
        <time>2012-07-22T08:39:38.000Z</time>
      </trkpt>
      <trkpt lat="46.85907" lon="4.71352">
        <ele>294</ele>
        <time>2012-07-22T08:39:41.000Z</time>
      </trkpt>
      <trkpt lat="46.85907" lon="4.71363">
        <ele>294</ele>
        <time>2012-07-22T08:39:44.000Z</time>
      </trkpt>
      <trkpt lat="46.85909" lon="4.71374">
        <ele>294</ele>
        <time>2012-07-22T08:39:47.000Z</time>
      </trkpt>
      <trkpt lat="46.85919" lon="4.71398">
        <ele>294</ele>
        <time>2012-07-22T08:39:55.000Z</time>
      </trkpt>
      <trkpt lat="46.85925" lon="4.71402">
        <ele>295</ele>
        <time>2012-07-22T08:39:58.000Z</time>
      </trkpt>
      <trkpt lat="46.85929" lon="4.71404">
        <ele>295</ele>
        <time>2012-07-22T08:40:00.000Z</time>
      </trkpt>
      <trkpt lat="46.85936" lon="4.71404">
        <ele>296</ele>
        <time>2012-07-22T08:40:03.000Z</time>
      </trkpt>
      <trkpt lat="46.85942" lon="4.71402">
        <ele>297</ele>
        <time>2012-07-22T08:40:06.000Z</time>
      </trkpt>
      <trkpt lat="46.85946" lon="4.71402">
        <ele>298</ele>
        <time>2012-07-22T08:40:08.000Z</time>
      </trkpt>
      <trkpt lat="46.85952" lon="4.71399">
        <ele>299</ele>
        <time>2012-07-22T08:40:10.000Z</time>
      </trkpt>
      <trkpt lat="46.85958" lon="4.71396">
        <ele>300</ele>
        <time>2012-07-22T08:40:15.000Z</time>
      </trkpt>
      <trkpt lat="46.85961" lon="4.71395">
        <ele>301</ele>
        <time>2012-07-22T08:40:17.000Z</time>
      </trkpt>
      <trkpt lat="46.85971" lon="4.71392">
        <ele>302</ele>
        <time>2012-07-22T08:40:23.000Z</time>
      </trkpt>
      <trkpt lat="46.85978" lon="4.71388">
        <ele>303</ele>
        <time>2012-07-22T08:40:28.000Z</time>
      </trkpt>
      <trkpt lat="46.85982" lon="4.71388">
        <ele>304</ele>
        <time>2012-07-22T08:40:30.000Z</time>
      </trkpt>
      <trkpt lat="46.85985" lon="4.71388">
        <ele>304</ele>
        <time>2012-07-22T08:40:33.000Z</time>
      </trkpt>
      <trkpt lat="46.85989" lon="4.71385">
        <ele>305</ele>
        <time>2012-07-22T08:40:35.000Z</time>
      </trkpt>
      <trkpt lat="46.85996" lon="4.71381">
        <ele>306</ele>
        <time>2012-07-22T08:40:38.000Z</time>
      </trkpt>
      <trkpt lat="46.86" lon="4.71379">
        <ele>306</ele>
        <time>2012-07-22T08:40:40.000Z</time>
      </trkpt>
      <trkpt lat="46.86006" lon="4.71378">
        <ele>307</ele>
        <time>2012-07-22T08:40:43.000Z</time>
      </trkpt>
      <trkpt lat="46.8601" lon="4.71377">
        <ele>308</ele>
        <time>2012-07-22T08:40:45.000Z</time>
      </trkpt>
      <trkpt lat="46.86013" lon="4.71377">
        <ele>308</ele>
        <time>2012-07-22T08:40:47.000Z</time>
      </trkpt>
      <trkpt lat="46.86019" lon="4.71376">
        <ele>309</ele>
        <time>2012-07-22T08:40:50.000Z</time>
      </trkpt>
      <trkpt lat="46.86026" lon="4.71374">
        <ele>310</ele>
        <time>2012-07-22T08:40:53.000Z</time>
      </trkpt>
      <trkpt lat="46.86035" lon="4.71374">
        <ele>311</ele>
        <time>2012-07-22T08:40:57.000Z</time>
      </trkpt>
      <trkpt lat="46.86042" lon="4.71372">
        <ele>312</ele>
        <time>2012-07-22T08:41:01.000Z</time>
      </trkpt>
      <trkpt lat="46.86052" lon="4.71371">
        <ele>313</ele>
        <time>2012-07-22T08:41:06.000Z</time>
      </trkpt>
      <trkpt lat="46.86056" lon="4.71373">
        <ele>313</ele>
        <time>2012-07-22T08:41:08.000Z</time>
      </trkpt>
      <trkpt lat="46.86061" lon="4.71375">
        <ele>314</ele>
        <time>2012-07-22T08:41:11.000Z</time>
      </trkpt>
      <trkpt lat="46.86069" lon="4.7138">
        <ele>315</ele>
        <time>2012-07-22T08:41:17.000Z</time>
      </trkpt>
      <trkpt lat="46.86071" lon="4.71381">
        <ele>315</ele>
        <time>2012-07-22T08:41:19.000Z</time>
      </trkpt>
      <trkpt lat="46.86079" lon="4.71383">
        <ele>316</ele>
        <time>2012-07-22T08:41:24.000Z</time>
      </trkpt>
      <trkpt lat="46.86084" lon="4.71384">
        <ele>316</ele>
        <time>2012-07-22T08:41:27.000Z</time>
      </trkpt>
      <trkpt lat="46.86091" lon="4.71386">
        <ele>317</ele>
        <time>2012-07-22T08:41:30.000Z</time>
      </trkpt>
      <trkpt lat="46.86095" lon="4.71388">
        <ele>317</ele>
        <time>2012-07-22T08:41:32.000Z</time>
      </trkpt>
      <trkpt lat="46.86099" lon="4.71392">
        <ele>318</ele>
        <time>2012-07-22T08:41:34.000Z</time>
      </trkpt>
      <trkpt lat="46.86099" lon="4.7139">
        <ele>318</ele>
        <time>2012-07-22T08:41:42.000Z</time>
      </trkpt>
      <trkpt lat="46.86102" lon="4.71392">
        <ele>318</ele>
        <time>2012-07-22T08:41:44.000Z</time>
      </trkpt>
      <trkpt lat="46.86103" lon="4.71392">
        <ele>319</ele>
        <time>2012-07-22T08:41:47.000Z</time>
      </trkpt>
      <trkpt lat="46.86106" lon="4.71395">
        <ele>319</ele>
        <time>2012-07-22T08:41:49.000Z</time>
      </trkpt>
      <trkpt lat="46.86108" lon="4.71397">
        <ele>319</ele>
        <time>2012-07-22T08:41:52.000Z</time>
      </trkpt>
      <trkpt lat="46.86113" lon="4.71401">
        <ele>320</ele>
        <time>2012-07-22T08:41:56.000Z</time>
      </trkpt>
      <trkpt lat="46.86126" lon="4.71414">
        <ele>321</ele>
        <time>2012-07-22T08:42:07.000Z</time>
      </trkpt>
      <trkpt lat="46.86129" lon="4.71416">
        <ele>321</ele>
        <time>2012-07-22T08:42:09.000Z</time>
      </trkpt>
      <trkpt lat="46.86133" lon="4.71421">
        <ele>322</ele>
        <time>2012-07-22T08:42:12.000Z</time>
      </trkpt>
      <trkpt lat="46.86145" lon="4.71433">
        <ele>322</ele>
        <time>2012-07-22T08:42:19.000Z</time>
      </trkpt>
      <trkpt lat="46.86148" lon="4.71436">
        <ele>323</ele>
        <time>2012-07-22T08:42:21.000Z</time>
      </trkpt>
      <trkpt lat="46.86163" lon="4.7145">
        <ele>324</ele>
        <time>2012-07-22T08:42:29.000Z</time>
      </trkpt>
      <trkpt lat="46.86176" lon="4.71464">
        <ele>325</ele>
        <time>2012-07-22T08:42:36.000Z</time>
      </trkpt>
      <trkpt lat="46.8619" lon="4.71475">
        <ele>325</ele>
        <time>2012-07-22T08:42:44.000Z</time>
      </trkpt>
      <trkpt lat="46.86195" lon="4.71479">
        <ele>326</ele>
        <time>2012-07-22T08:42:47.000Z</time>
      </trkpt>
      <trkpt lat="46.8621" lon="4.7149">
        <ele>327</ele>
        <time>2012-07-22T08:42:55.000Z</time>
      </trkpt>
      <trkpt lat="46.86221" lon="4.71498">
        <ele>328</ele>
        <time>2012-07-22T08:43:02.000Z</time>
      </trkpt>
      <trkpt lat="46.8623" lon="4.71504">
        <ele>328</ele>
        <time>2012-07-22T08:43:58.000Z</time>
      </trkpt>
      <trkpt lat="46.8623" lon="4.71504">
        <ele>328</ele>
        <time>2012-07-22T08:44:19.000Z</time>
      </trkpt>
      <trkpt lat="46.8623" lon="4.71502">
        <ele>329</ele>
        <time>2012-07-22T08:45:07.000Z</time>
      </trkpt>
      <trkpt lat="46.86232" lon="4.71503">
        <ele>329</ele>
        <time>2012-07-22T08:45:09.000Z</time>
      </trkpt>
      <trkpt lat="46.86235" lon="4.71505">
        <ele>329</ele>
        <time>2012-07-22T08:45:11.000Z</time>
      </trkpt>
      <trkpt lat="46.86251" lon="4.71516">
        <ele>330</ele>
        <time>2012-07-22T08:45:19.000Z</time>
      </trkpt>
      <trkpt lat="46.86283" lon="4.71536">
        <ele>331</ele>
        <time>2012-07-22T08:45:36.000Z</time>
      </trkpt>
      <trkpt lat="46.86299" lon="4.71543">
        <ele>331</ele>
        <time>2012-07-22T08:45:41.000Z</time>
      </trkpt>
      <trkpt lat="46.86317" lon="4.71551">
        <ele>332</ele>
        <time>2012-07-22T08:45:49.000Z</time>
      </trkpt>
      <trkpt lat="46.86326" lon="4.71556">
        <ele>332</ele>
        <time>2012-07-22T08:45:52.000Z</time>
      </trkpt>
      <trkpt lat="46.86344" lon="4.71568">
        <ele>333</ele>
        <time>2012-07-22T08:45:58.000Z</time>
      </trkpt>
      <trkpt lat="46.86376" lon="4.71588">
        <ele>334</ele>
        <time>2012-07-22T08:46:09.000Z</time>
      </trkpt>
      <trkpt lat="46.864" lon="4.71602">
        <ele>335</ele>
        <time>2012-07-22T08:46:16.000Z</time>
      </trkpt>
      <trkpt lat="46.86418" lon="4.71612">
        <ele>336</ele>
        <time>2012-07-22T08:46:23.000Z</time>
      </trkpt>
      <trkpt lat="46.86438" lon="4.71625">
        <ele>337</ele>
        <time>2012-07-22T08:46:30.000Z</time>
      </trkpt>
      <trkpt lat="46.86458" lon="4.71636">
        <ele>338</ele>
        <time>2012-07-22T08:46:37.000Z</time>
      </trkpt>
      <trkpt lat="46.86473" lon="4.71645">
        <ele>339</ele>
        <time>2012-07-22T08:46:43.000Z</time>
      </trkpt>
      <trkpt lat="46.86501" lon="4.71661">
        <ele>340</ele>
        <time>2012-07-22T08:46:53.000Z</time>
      </trkpt>
      <trkpt lat="46.8652" lon="4.71672">
        <ele>341</ele>
        <time>2012-07-22T08:47:00.000Z</time>
      </trkpt>
      <trkpt lat="46.86558" lon="4.71692">
        <ele>342</ele>
        <time>2012-07-22T08:47:13.000Z</time>
      </trkpt>
      <trkpt lat="46.86567" lon="4.71699">
        <ele>342</ele>
        <time>2012-07-22T08:47:16.000Z</time>
      </trkpt>
      <trkpt lat="46.86609" lon="4.71724">
        <ele>343</ele>
        <time>2012-07-22T08:47:28.000Z</time>
      </trkpt>
      <trkpt lat="46.86636" lon="4.71741">
        <ele>344</ele>
        <time>2012-07-22T08:47:37.000Z</time>
      </trkpt>
      <trkpt lat="46.86641" lon="4.71743">
        <ele>344</ele>
        <time>2012-07-22T08:47:39.000Z</time>
      </trkpt>
      <trkpt lat="46.86655" lon="4.71747">
        <ele>345</ele>
        <time>2012-07-22T08:47:44.000Z</time>
      </trkpt>
      <trkpt lat="46.86679" lon="4.71757">
        <ele>346</ele>
        <time>2012-07-22T08:47:53.000Z</time>
      </trkpt>
      <trkpt lat="46.86715" lon="4.71775">
        <ele>347</ele>
        <time>2012-07-22T08:48:06.000Z</time>
      </trkpt>
      <trkpt lat="46.86747" lon="4.71791">
        <ele>348</ele>
        <time>2012-07-22T08:48:19.000Z</time>
      </trkpt>
      <trkpt lat="46.86784" lon="4.71809">
        <ele>349</ele>
        <time>2012-07-22T08:48:32.000Z</time>
      </trkpt>
      <trkpt lat="46.86814" lon="4.71822">
        <ele>350</ele>
        <time>2012-07-22T08:48:40.000Z</time>
      </trkpt>
      <trkpt lat="46.8683" lon="4.71827">
        <ele>351</ele>
        <time>2012-07-22T08:48:43.000Z</time>
      </trkpt>
      <trkpt lat="46.86839" lon="4.71831">
        <ele>351</ele>
        <time>2012-07-22T08:48:45.000Z</time>
      </trkpt>
      <trkpt lat="46.86859" lon="4.71841">
        <ele>352</ele>
        <time>2012-07-22T08:48:49.000Z</time>
      </trkpt>
      <trkpt lat="46.86873" lon="4.71844">
        <ele>352</ele>
        <time>2012-07-22T08:48:52.000Z</time>
      </trkpt>
      <trkpt lat="46.86884" lon="4.71849">
        <ele>352</ele>
        <time>2012-07-22T08:48:55.000Z</time>
      </trkpt>
      <trkpt lat="46.8689" lon="4.71853">
        <ele>352</ele>
        <time>2012-07-22T08:48:58.000Z</time>
      </trkpt>
      <trkpt lat="46.86893" lon="4.71855">
        <ele>352</ele>
        <time>2012-07-22T08:49:00.000Z</time>
      </trkpt>
      <trkpt lat="46.86908" lon="4.71862">
        <ele>352</ele>
        <time>2012-07-22T08:49:41.000Z</time>
      </trkpt>
      <trkpt lat="46.86943" lon="4.71877">
        <ele>351</ele>
        <time>2012-07-22T08:49:51.000Z</time>
      </trkpt>
      <trkpt lat="46.86969" lon="4.71887">
        <ele>350</ele>
        <time>2012-07-22T08:49:55.000Z</time>
      </trkpt>
      <trkpt lat="46.8698" lon="4.7189">
        <ele>349</ele>
        <time>2012-07-22T08:49:58.000Z</time>
      </trkpt>
      <trkpt lat="46.86992" lon="4.71894">
        <ele>348</ele>
        <time>2012-07-22T08:50:00.000Z</time>
      </trkpt>
      <trkpt lat="46.87009" lon="4.719">
        <ele>347</ele>
        <time>2012-07-22T08:50:02.000Z</time>
      </trkpt>
      <trkpt lat="46.87038" lon="4.71914">
        <ele>346</ele>
        <time>2012-07-22T08:50:08.000Z</time>
      </trkpt>
      <trkpt lat="46.87054" lon="4.71921">
        <ele>345</ele>
        <time>2012-07-22T08:50:10.000Z</time>
      </trkpt>
      <trkpt lat="46.87073" lon="4.7193">
        <ele>344</ele>
        <time>2012-07-22T08:50:15.000Z</time>
      </trkpt>
      <trkpt lat="46.87084" lon="4.71938">
        <ele>344</ele>
        <time>2012-07-22T08:50:17.000Z</time>
      </trkpt>
      <trkpt lat="46.87091" lon="4.71954">
        <ele>344</ele>
        <time>2012-07-22T08:50:20.000Z</time>
      </trkpt>
      <trkpt lat="46.87095" lon="4.71967">
        <ele>343</ele>
        <time>2012-07-22T08:50:22.000Z</time>
      </trkpt>
      <trkpt lat="46.87114" lon="4.72">
        <ele>342</ele>
        <time>2012-07-22T08:50:28.000Z</time>
      </trkpt>
      <trkpt lat="46.87127" lon="4.72016">
        <ele>341</ele>
        <time>2012-07-22T08:50:31.000Z</time>
      </trkpt>
      <trkpt lat="46.87153" lon="4.72047">
        <ele>340</ele>
        <time>2012-07-22T08:50:36.000Z</time>
      </trkpt>
      <trkpt lat="46.87168" lon="4.72068">
        <ele>339</ele>
        <time>2012-07-22T08:50:38.000Z</time>
      </trkpt>
      <trkpt lat="46.87179" lon="4.72081">
        <ele>338</ele>
        <time>2012-07-22T08:50:41.000Z</time>
      </trkpt>
      <trkpt lat="46.87193" lon="4.72101">
        <ele>336</ele>
        <time>2012-07-22T08:50:43.000Z</time>
      </trkpt>
      <trkpt lat="46.87202" lon="4.72113">
        <ele>335</ele>
        <time>2012-07-22T08:50:46.000Z</time>
      </trkpt>
      <trkpt lat="46.87225" lon="4.72148">
        <ele>334</ele>
        <time>2012-07-22T08:50:50.000Z</time>
      </trkpt>
      <trkpt lat="46.87234" lon="4.72168">
        <ele>333</ele>
        <time>2012-07-22T08:50:54.000Z</time>
      </trkpt>
      <trkpt lat="46.87237" lon="4.72182">
        <ele>333</ele>
        <time>2012-07-22T08:50:56.000Z</time>
      </trkpt>
      <trkpt lat="46.87234" lon="4.72202">
        <ele>332</ele>
        <time>2012-07-22T08:50:58.000Z</time>
      </trkpt>
      <trkpt lat="46.87228" lon="4.72217">
        <ele>331</ele>
        <time>2012-07-22T08:51:01.000Z</time>
      </trkpt>
      <trkpt lat="46.87225" lon="4.72234">
        <ele>331</ele>
        <time>2012-07-22T08:51:03.000Z</time>
      </trkpt>
      <trkpt lat="46.87218" lon="4.7226">
        <ele>330</ele>
        <time>2012-07-22T08:51:05.000Z</time>
      </trkpt>
      <trkpt lat="46.87207" lon="4.72297">
        <ele>329</ele>
        <time>2012-07-22T08:51:11.000Z</time>
      </trkpt>
      <trkpt lat="46.87211" lon="4.72305">
        <ele>329</ele>
        <time>2012-07-22T08:51:13.000Z</time>
      </trkpt>
      <trkpt lat="46.87221" lon="4.72316">
        <ele>329</ele>
        <time>2012-07-22T08:51:16.000Z</time>
      </trkpt>
      <trkpt lat="46.87228" lon="4.72335">
        <ele>328</ele>
        <time>2012-07-22T08:51:18.000Z</time>
      </trkpt>
      <trkpt lat="46.87239" lon="4.72361">
        <ele>327</ele>
        <time>2012-07-22T08:51:23.000Z</time>
      </trkpt>
      <trkpt lat="46.87247" lon="4.72381">
        <ele>326</ele>
        <time>2012-07-22T08:51:28.000Z</time>
      </trkpt>
      <trkpt lat="46.87248" lon="4.72391">
        <ele>326</ele>
        <time>2012-07-22T08:51:30.000Z</time>
      </trkpt>
      <trkpt lat="46.87252" lon="4.72414">
        <ele>326</ele>
        <time>2012-07-22T08:51:40.000Z</time>
      </trkpt>
      <trkpt lat="46.87253" lon="4.72415">
        <ele>326</ele>
        <time>2012-07-22T08:51:42.000Z</time>
      </trkpt>
      <trkpt lat="46.87253" lon="4.72412">
        <ele>326</ele>
        <time>2012-07-22T08:51:45.000Z</time>
      </trkpt>
      <trkpt lat="46.87255" lon="4.72416">
        <ele>326</ele>
        <time>2012-07-22T08:51:47.000Z</time>
      </trkpt>
      <trkpt lat="46.87259" lon="4.72422">
        <ele>327</ele>
        <time>2012-07-22T08:51:52.000Z</time>
      </trkpt>
      <trkpt lat="46.8726" lon="4.72424">
        <ele>327</ele>
        <time>2012-07-22T08:51:54.000Z</time>
      </trkpt>
      <trkpt lat="46.87264" lon="4.72427">
        <ele>328</ele>
        <time>2012-07-22T08:51:59.000Z</time>
      </trkpt>
      <trkpt lat="46.87266" lon="4.72427">
        <ele>328</ele>
        <time>2012-07-22T08:52:02.000Z</time>
      </trkpt>
      <trkpt lat="46.87267" lon="4.72427">
        <ele>328</ele>
        <time>2012-07-22T08:52:04.000Z</time>
      </trkpt>
      <trkpt lat="46.87268" lon="4.7243">
        <ele>329</ele>
        <time>2012-07-22T08:52:07.000Z</time>
      </trkpt>
      <trkpt lat="46.8727" lon="4.7243">
        <ele>329</ele>
        <time>2012-07-22T08:52:09.000Z</time>
      </trkpt>
      <trkpt lat="46.87272" lon="4.72431">
        <ele>329</ele>
        <time>2012-07-22T08:52:11.000Z</time>
      </trkpt>
      <trkpt lat="46.87276" lon="4.72433">
        <ele>329</ele>
        <time>2012-07-22T08:52:14.000Z</time>
      </trkpt>
      <trkpt lat="46.87279" lon="4.72436">
        <ele>330</ele>
        <time>2012-07-22T08:52:17.000Z</time>
      </trkpt>
      <trkpt lat="46.87281" lon="4.72436">
        <ele>330</ele>
        <time>2012-07-22T08:52:20.000Z</time>
      </trkpt>
      <trkpt lat="46.87284" lon="4.72436">
        <ele>331</ele>
        <time>2012-07-22T08:52:23.000Z</time>
      </trkpt>
      <trkpt lat="46.87289" lon="4.72436">
        <ele>332</ele>
        <time>2012-07-22T08:52:28.000Z</time>
      </trkpt>
      <trkpt lat="46.87287" lon="4.72436">
        <ele>332</ele>
        <time>2012-07-22T08:52:31.000Z</time>
      </trkpt>
      <trkpt lat="46.87286" lon="4.72434">
        <ele>332</ele>
        <time>2012-07-22T08:52:33.000Z</time>
      </trkpt>
      <trkpt lat="46.87287" lon="4.72436">
        <ele>332</ele>
        <time>2012-07-22T08:52:41.000Z</time>
      </trkpt>
      <trkpt lat="46.87289" lon="4.72437">
        <ele>332</ele>
        <time>2012-07-22T08:52:43.000Z</time>
      </trkpt>
      <trkpt lat="46.873" lon="4.72444">
        <ele>333</ele>
        <time>2012-07-22T08:52:51.000Z</time>
      </trkpt>
      <trkpt lat="46.87305" lon="4.72447">
        <ele>334</ele>
        <time>2012-07-22T08:52:54.000Z</time>
      </trkpt>
      <trkpt lat="46.87313" lon="4.7245">
        <ele>335</ele>
        <time>2012-07-22T08:52:59.000Z</time>
      </trkpt>
      <trkpt lat="46.87315" lon="4.72452">
        <ele>336</ele>
        <time>2012-07-22T08:53:01.000Z</time>
      </trkpt>
      <trkpt lat="46.87321" lon="4.72455">
        <ele>337</ele>
        <time>2012-07-22T08:53:06.000Z</time>
      </trkpt>
      <trkpt lat="46.87323" lon="4.72456">
        <ele>337</ele>
        <time>2012-07-22T08:53:08.000Z</time>
      </trkpt>
      <trkpt lat="46.87326" lon="4.72457">
        <ele>338</ele>
        <time>2012-07-22T08:53:11.000Z</time>
      </trkpt>
      <trkpt lat="46.8733" lon="4.72461">
        <ele>338</ele>
        <time>2012-07-22T08:53:14.000Z</time>
      </trkpt>
      <trkpt lat="46.87333" lon="4.72464">
        <ele>339</ele>
        <time>2012-07-22T08:53:16.000Z</time>
      </trkpt>
      <trkpt lat="46.87337" lon="4.72466">
        <ele>340</ele>
        <time>2012-07-22T08:53:19.000Z</time>
      </trkpt>
      <trkpt lat="46.87342" lon="4.72468">
        <ele>341</ele>
        <time>2012-07-22T08:53:23.000Z</time>
      </trkpt>
      <trkpt lat="46.87346" lon="4.72471">
        <ele>341</ele>
        <time>2012-07-22T08:53:26.000Z</time>
      </trkpt>
      <trkpt lat="46.87349" lon="4.72473">
        <ele>342</ele>
        <time>2012-07-22T08:53:28.000Z</time>
      </trkpt>
      <trkpt lat="46.87354" lon="4.72484">
        <ele>342</ele>
        <time>2012-07-22T08:53:34.000Z</time>
      </trkpt>
      <trkpt lat="46.87354" lon="4.72491">
        <ele>343</ele>
        <time>2012-07-22T08:53:36.000Z</time>
      </trkpt>
      <trkpt lat="46.87354" lon="4.725">
        <ele>344</ele>
        <time>2012-07-22T08:53:41.000Z</time>
      </trkpt>
      <trkpt lat="46.87355" lon="4.72506">
        <ele>344</ele>
        <time>2012-07-22T08:53:44.000Z</time>
      </trkpt>
      <trkpt lat="46.87359" lon="4.72511">
        <ele>344</ele>
        <time>2012-07-22T08:53:47.000Z</time>
      </trkpt>
      <trkpt lat="46.87365" lon="4.72516">
        <ele>345</ele>
        <time>2012-07-22T08:53:49.000Z</time>
      </trkpt>
      <trkpt lat="46.87378" lon="4.72523">
        <ele>345</ele>
        <time>2012-07-22T08:53:55.000Z</time>
      </trkpt>
      <trkpt lat="46.87388" lon="4.72529">
        <ele>346</ele>
        <time>2012-07-22T08:54:00.000Z</time>
      </trkpt>
      <trkpt lat="46.87405" lon="4.72538">
        <ele>347</ele>
        <time>2012-07-22T08:54:08.000Z</time>
      </trkpt>
      <trkpt lat="46.87409" lon="4.72542">
        <ele>347</ele>
        <time>2012-07-22T08:54:11.000Z</time>
      </trkpt>
      <trkpt lat="46.87412" lon="4.72547">
        <ele>347</ele>
        <time>2012-07-22T08:54:14.000Z</time>
      </trkpt>
      <trkpt lat="46.87414" lon="4.72549">
        <ele>348</ele>
        <time>2012-07-22T08:54:16.000Z</time>
      </trkpt>
      <trkpt lat="46.87418" lon="4.7255">
        <ele>348</ele>
        <time>2012-07-22T08:54:19.000Z</time>
      </trkpt>
      <trkpt lat="46.87423" lon="4.72552">
        <ele>348</ele>
        <time>2012-07-22T08:54:22.000Z</time>
      </trkpt>
      <trkpt lat="46.87427" lon="4.72554">
        <ele>349</ele>
        <time>2012-07-22T08:54:24.000Z</time>
      </trkpt>
      <trkpt lat="46.87433" lon="4.72557">
        <ele>349</ele>
        <time>2012-07-22T08:54:27.000Z</time>
      </trkpt>
      <trkpt lat="46.8744" lon="4.72559">
        <ele>350</ele>
        <time>2012-07-22T08:54:30.000Z</time>
      </trkpt>
      <trkpt lat="46.87444" lon="4.7256">
        <ele>351</ele>
        <time>2012-07-22T08:54:32.000Z</time>
      </trkpt>
      <trkpt lat="46.87451" lon="4.72563">
        <ele>351</ele>
        <time>2012-07-22T08:54:35.000Z</time>
      </trkpt>
      <trkpt lat="46.87455" lon="4.72566">
        <ele>352</ele>
        <time>2012-07-22T08:54:37.000Z</time>
      </trkpt>
      <trkpt lat="46.87462" lon="4.7257">
        <ele>353</ele>
        <time>2012-07-22T08:54:39.000Z</time>
      </trkpt>
      <trkpt lat="46.8747" lon="4.72575">
        <ele>354</ele>
        <time>2012-07-22T08:54:44.000Z</time>
      </trkpt>
      <trkpt lat="46.87476" lon="4.72577">
        <ele>354</ele>
        <time>2012-07-22T08:54:47.000Z</time>
      </trkpt>
      <trkpt lat="46.87479" lon="4.72578">
        <ele>355</ele>
        <time>2012-07-22T08:54:49.000Z</time>
      </trkpt>
      <trkpt lat="46.87493" lon="4.72585">
        <ele>356</ele>
        <time>2012-07-22T08:54:58.000Z</time>
      </trkpt>
      <trkpt lat="46.87507" lon="4.72593">
        <ele>357</ele>
        <time>2012-07-22T08:55:06.000Z</time>
      </trkpt>
      <trkpt lat="46.8751" lon="4.72594">
        <ele>357</ele>
        <time>2012-07-22T08:55:09.000Z</time>
      </trkpt>
      <trkpt lat="46.87517" lon="4.72598">
        <ele>358</ele>
        <time>2012-07-22T08:55:14.000Z</time>
      </trkpt>
      <trkpt lat="46.87519" lon="4.726">
        <ele>358</ele>
        <time>2012-07-22T08:57:33.000Z</time>
      </trkpt>
      <trkpt lat="46.8752" lon="4.72599">
        <ele>358</ele>
        <time>2012-07-22T08:57:48.000Z</time>
      </trkpt>
      <trkpt lat="46.87521" lon="4.726">
        <ele>359</ele>
        <time>2012-07-22T08:57:50.000Z</time>
      </trkpt>
      <trkpt lat="46.87523" lon="4.72603">
        <ele>359</ele>
        <time>2012-07-22T08:57:52.000Z</time>
      </trkpt>
      <trkpt lat="46.87523" lon="4.72605">
        <ele>359</ele>
        <time>2012-07-22T08:57:55.000Z</time>
      </trkpt>
      <trkpt lat="46.87523" lon="4.72607">
        <ele>359</ele>
        <time>2012-07-22T08:58:02.000Z</time>
      </trkpt>
      <trkpt lat="46.87521" lon="4.72614">
        <ele>358</ele>
        <time>2012-07-22T08:58:06.000Z</time>
      </trkpt>
      <trkpt lat="46.87523" lon="4.72618">
        <ele>358</ele>
        <time>2012-07-22T08:58:09.000Z</time>
      </trkpt>
      <trkpt lat="46.87527" lon="4.72621">
        <ele>358</ele>
        <time>2012-07-22T08:58:11.000Z</time>
      </trkpt>
      <trkpt lat="46.87532" lon="4.72621">
        <ele>358</ele>
        <time>2012-07-22T08:58:14.000Z</time>
      </trkpt>
      <trkpt lat="46.87543" lon="4.72625">
        <ele>358</ele>
        <time>2012-07-22T08:58:18.000Z</time>
      </trkpt>
      <trkpt lat="46.8755" lon="4.72626">
        <ele>359</ele>
        <time>2012-07-22T08:58:21.000Z</time>
      </trkpt>
      <trkpt lat="46.87554" lon="4.72626">
        <ele>359</ele>
        <time>2012-07-22T08:58:23.000Z</time>
      </trkpt>
      <trkpt lat="46.8756" lon="4.7263">
        <ele>360</ele>
        <time>2012-07-22T08:58:25.000Z</time>
      </trkpt>
      <trkpt lat="46.87576" lon="4.72639">
        <ele>361</ele>
        <time>2012-07-22T08:58:33.000Z</time>
      </trkpt>
      <trkpt lat="46.8758" lon="4.7264">
        <ele>361</ele>
        <time>2012-07-22T08:58:35.000Z</time>
      </trkpt>
      <trkpt lat="46.87593" lon="4.72642">
        <ele>361</ele>
        <time>2012-07-22T08:58:40.000Z</time>
      </trkpt>
      <trkpt lat="46.87596" lon="4.7264">
        <ele>361</ele>
        <time>2012-07-22T08:58:43.000Z</time>
      </trkpt>
      <trkpt lat="46.87598" lon="4.72639">
        <ele>362</ele>
        <time>2012-07-22T08:58:45.000Z</time>
      </trkpt>
      <trkpt lat="46.87602" lon="4.7264">
        <ele>362</ele>
        <time>2012-07-22T08:58:47.000Z</time>
      </trkpt>
      <trkpt lat="46.87631" lon="4.72645">
        <ele>363</ele>
        <time>2012-07-22T08:58:58.000Z</time>
      </trkpt>
      <trkpt lat="46.87637" lon="4.72649">
        <ele>363</ele>
        <time>2012-07-22T08:59:00.000Z</time>
      </trkpt>
      <trkpt lat="46.87655" lon="4.72656">
        <ele>362</ele>
        <time>2012-07-22T08:59:09.000Z</time>
      </trkpt>
      <trkpt lat="46.87691" lon="4.72674">
        <ele>361</ele>
        <time>2012-07-22T08:59:23.000Z</time>
      </trkpt>
      <trkpt lat="46.87697" lon="4.72683">
        <ele>360</ele>
        <time>2012-07-22T08:59:26.000Z</time>
      </trkpt>
      <trkpt lat="46.87701" lon="4.72687">
        <ele>360</ele>
        <time>2012-07-22T08:59:28.000Z</time>
      </trkpt>
      <trkpt lat="46.87709" lon="4.72689">
        <ele>359</ele>
        <time>2012-07-22T08:59:31.000Z</time>
      </trkpt>
      <trkpt lat="46.87714" lon="4.7269">
        <ele>358</ele>
        <time>2012-07-22T08:59:33.000Z</time>
      </trkpt>
      <trkpt lat="46.87726" lon="4.72696">
        <ele>358</ele>
        <time>2012-07-22T08:59:38.000Z</time>
      </trkpt>
      <trkpt lat="46.87738" lon="4.72704">
        <ele>358</ele>
        <time>2012-07-22T08:59:41.000Z</time>
      </trkpt>
      <trkpt lat="46.87746" lon="4.72706">
        <ele>357</ele>
        <time>2012-07-22T08:59:43.000Z</time>
      </trkpt>
      <trkpt lat="46.87756" lon="4.72708">
        <ele>357</ele>
        <time>2012-07-22T08:59:46.000Z</time>
      </trkpt>
      <trkpt lat="46.87765" lon="4.72711">
        <ele>357</ele>
        <time>2012-07-22T08:59:49.000Z</time>
      </trkpt>
      <trkpt lat="46.8779" lon="4.72723">
        <ele>357</ele>
        <time>2012-07-22T08:59:58.000Z</time>
      </trkpt>
      <trkpt lat="46.87793" lon="4.72726">
        <ele>357</ele>
        <time>2012-07-22T09:00:00.000Z</time>
      </trkpt>
      <trkpt lat="46.87796" lon="4.72732">
        <ele>357</ele>
        <time>2012-07-22T09:00:03.000Z</time>
      </trkpt>
      <trkpt lat="46.87799" lon="4.72736">
        <ele>356</ele>
        <time>2012-07-22T09:00:05.000Z</time>
      </trkpt>
      <trkpt lat="46.87822" lon="4.72762">
        <ele>355</ele>
        <time>2012-07-22T09:00:12.000Z</time>
      </trkpt>
      <trkpt lat="46.87829" lon="4.72775">
        <ele>354</ele>
        <time>2012-07-22T09:00:15.000Z</time>
      </trkpt>
      <trkpt lat="46.87831" lon="4.7278">
        <ele>354</ele>
        <time>2012-07-22T09:00:17.000Z</time>
      </trkpt>
      <trkpt lat="46.87835" lon="4.72789">
        <ele>353</ele>
        <time>2012-07-22T09:00:20.000Z</time>
      </trkpt>
      <trkpt lat="46.8784" lon="4.72804">
        <ele>352</ele>
        <time>2012-07-22T09:00:23.000Z</time>
      </trkpt>
      <trkpt lat="46.87844" lon="4.7282">
        <ele>351</ele>
        <time>2012-07-22T09:00:25.000Z</time>
      </trkpt>
      <trkpt lat="46.8785" lon="4.72829">
        <ele>351</ele>
        <time>2012-07-22T09:00:28.000Z</time>
      </trkpt>
      <trkpt lat="46.87858" lon="4.7284">
        <ele>350</ele>
        <time>2012-07-22T09:00:31.000Z</time>
      </trkpt>
      <trkpt lat="46.87864" lon="4.72851">
        <ele>349</ele>
        <time>2012-07-22T09:00:33.000Z</time>
      </trkpt>
      <trkpt lat="46.87877" lon="4.72865">
        <ele>348</ele>
        <time>2012-07-22T09:00:36.000Z</time>
      </trkpt>
      <trkpt lat="46.87889" lon="4.72871">
        <ele>347</ele>
        <time>2012-07-22T09:00:39.000Z</time>
      </trkpt>
      <trkpt lat="46.87896" lon="4.72873">
        <ele>347</ele>
        <time>2012-07-22T09:00:41.000Z</time>
      </trkpt>
      <trkpt lat="46.87914" lon="4.72877">
        <ele>348</ele>
        <time>2012-07-22T09:00:48.000Z</time>
      </trkpt>
      <trkpt lat="46.87922" lon="4.72879">
        <ele>349</ele>
        <time>2012-07-22T09:00:55.000Z</time>
      </trkpt>
      <trkpt lat="46.87952" lon="4.72881">
        <ele>350</ele>
        <time>2012-07-22T09:01:08.000Z</time>
      </trkpt>
      <trkpt lat="46.87966" lon="4.72887">
        <ele>350</ele>
        <time>2012-07-22T09:01:14.000Z</time>
      </trkpt>
      <trkpt lat="46.87971" lon="4.72893">
        <ele>350</ele>
        <time>2012-07-22T09:01:16.000Z</time>
      </trkpt>
      <trkpt lat="46.87978" lon="4.72898">
        <ele>350</ele>
        <time>2012-07-22T09:01:19.000Z</time>
      </trkpt>
      <trkpt lat="46.87983" lon="4.72901">
        <ele>350</ele>
        <time>2012-07-22T09:01:21.000Z</time>
      </trkpt>
      <trkpt lat="46.87997" lon="4.72912">
        <ele>350</ele>
        <time>2012-07-22T09:01:27.000Z</time>
      </trkpt>
      <trkpt lat="46.88005" lon="4.72912">
        <ele>350</ele>
        <time>2012-07-22T09:01:30.000Z</time>
      </trkpt>
      <trkpt lat="46.88009" lon="4.72908">
        <ele>350</ele>
        <time>2012-07-22T09:01:32.000Z</time>
      </trkpt>
      <trkpt lat="46.88012" lon="4.72901">
        <ele>351</ele>
        <time>2012-07-22T09:01:35.000Z</time>
      </trkpt>
      <trkpt lat="46.88017" lon="4.729">
        <ele>351</ele>
        <time>2012-07-22T09:01:37.000Z</time>
      </trkpt>
      <trkpt lat="46.88026" lon="4.72901">
        <ele>351</ele>
        <time>2012-07-22T09:01:39.000Z</time>
      </trkpt>
      <trkpt lat="46.88033" lon="4.72906">
        <ele>352</ele>
        <time>2012-07-22T09:01:42.000Z</time>
      </trkpt>
      <trkpt lat="46.88063" lon="4.72953">
        <ele>351</ele>
        <time>2012-07-22T09:01:47.000Z</time>
      </trkpt>
      <trkpt lat="46.88076" lon="4.72974">
        <ele>350</ele>
        <time>2012-07-22T09:01:50.000Z</time>
      </trkpt>
      <trkpt lat="46.88083" lon="4.72987">
        <ele>349</ele>
        <time>2012-07-22T09:01:53.000Z</time>
      </trkpt>
      <trkpt lat="46.88093" lon="4.73002">
        <ele>348</ele>
        <time>2012-07-22T09:01:56.000Z</time>
      </trkpt>
      <trkpt lat="46.88101" lon="4.73014">
        <ele>347</ele>
        <time>2012-07-22T09:01:59.000Z</time>
      </trkpt>
      <trkpt lat="46.88108" lon="4.73028">
        <ele>346</ele>
        <time>2012-07-22T09:02:01.000Z</time>
      </trkpt>
      <trkpt lat="46.88121" lon="4.73054">
        <ele>345</ele>
        <time>2012-07-22T09:02:06.000Z</time>
      </trkpt>
      <trkpt lat="46.88136" lon="4.73082">
        <ele>344</ele>
        <time>2012-07-22T09:02:11.000Z</time>
      </trkpt>
      <trkpt lat="46.88144" lon="4.73096">
        <ele>343</ele>
        <time>2012-07-22T09:02:15.000Z</time>
      </trkpt>
      <trkpt lat="46.88148" lon="4.73106">
        <ele>343</ele>
        <time>2012-07-22T09:02:17.000Z</time>
      </trkpt>
      <trkpt lat="46.88155" lon="4.73122">
        <ele>342</ele>
        <time>2012-07-22T09:02:19.000Z</time>
      </trkpt>
      <trkpt lat="46.8816" lon="4.73134">
        <ele>341</ele>
        <time>2012-07-22T09:02:22.000Z</time>
      </trkpt>
      <trkpt lat="46.88164" lon="4.73145">
        <ele>340</ele>
        <time>2012-07-22T09:02:24.000Z</time>
      </trkpt>
      <trkpt lat="46.88176" lon="4.73193">
        <ele>338</ele>
        <time>2012-07-22T09:02:30.000Z</time>
      </trkpt>
      <trkpt lat="46.88177" lon="4.7322">
        <ele>337</ele>
        <time>2012-07-22T09:02:32.000Z</time>
      </trkpt>
      <trkpt lat="46.88179" lon="4.73238">
        <ele>335</ele>
        <time>2012-07-22T09:02:34.000Z</time>
      </trkpt>
      <trkpt lat="46.88183" lon="4.73254">
        <ele>333</ele>
        <time>2012-07-22T09:02:37.000Z</time>
      </trkpt>
      <trkpt lat="46.88192" lon="4.73281">
        <ele>331</ele>
        <time>2012-07-22T09:02:40.000Z</time>
      </trkpt>
      <trkpt lat="46.882" lon="4.73304">
        <ele>330</ele>
        <time>2012-07-22T09:02:43.000Z</time>
      </trkpt>
      <trkpt lat="46.88212" lon="4.73319">
        <ele>329</ele>
        <time>2012-07-22T09:02:46.000Z</time>
      </trkpt>
      <trkpt lat="46.88219" lon="4.73331">
        <ele>328</ele>
        <time>2012-07-22T09:02:48.000Z</time>
      </trkpt>
      <trkpt lat="46.88227" lon="4.73349">
        <ele>327</ele>
        <time>2012-07-22T09:02:50.000Z</time>
      </trkpt>
      <trkpt lat="46.88232" lon="4.7336">
        <ele>326</ele>
        <time>2012-07-22T09:02:53.000Z</time>
      </trkpt>
      <trkpt lat="46.88237" lon="4.73371">
        <ele>325</ele>
        <time>2012-07-22T09:02:55.000Z</time>
      </trkpt>
      <trkpt lat="46.88242" lon="4.73382">
        <ele>324</ele>
        <time>2012-07-22T09:02:57.000Z</time>
      </trkpt>
      <trkpt lat="46.8825" lon="4.73401">
        <ele>322</ele>
        <time>2012-07-22T09:02:59.000Z</time>
      </trkpt>
      <trkpt lat="46.88255" lon="4.73413">
        <ele>321</ele>
        <time>2012-07-22T09:03:01.000Z</time>
      </trkpt>
      <trkpt lat="46.88262" lon="4.73427">
        <ele>320</ele>
        <time>2012-07-22T09:03:03.000Z</time>
      </trkpt>
      <trkpt lat="46.88271" lon="4.73448">
        <ele>319</ele>
        <time>2012-07-22T09:03:06.000Z</time>
      </trkpt>
      <trkpt lat="46.88277" lon="4.73465">
        <ele>318</ele>
        <time>2012-07-22T09:03:09.000Z</time>
      </trkpt>
      <trkpt lat="46.88281" lon="4.73476">
        <ele>316</ele>
        <time>2012-07-22T09:03:12.000Z</time>
      </trkpt>
      <trkpt lat="46.88286" lon="4.73494">
        <ele>315</ele>
        <time>2012-07-22T09:03:15.000Z</time>
      </trkpt>
      <trkpt lat="46.88288" lon="4.73512">
        <ele>314</ele>
        <time>2012-07-22T09:03:18.000Z</time>
      </trkpt>
      <trkpt lat="46.88288" lon="4.73524">
        <ele>312</ele>
        <time>2012-07-22T09:03:20.000Z</time>
      </trkpt>
      <trkpt lat="46.88289" lon="4.73544">
        <ele>311</ele>
        <time>2012-07-22T09:03:23.000Z</time>
      </trkpt>
      <trkpt lat="46.88289" lon="4.73565">
        <ele>308</ele>
        <time>2012-07-22T09:03:25.000Z</time>
      </trkpt>
      <trkpt lat="46.8829" lon="4.7358">
        <ele>306</ele>
        <time>2012-07-22T09:03:27.000Z</time>
      </trkpt>
      <trkpt lat="46.88296" lon="4.73594">
        <ele>304</ele>
        <time>2012-07-22T09:03:30.000Z</time>
      </trkpt>
      <trkpt lat="46.88304" lon="4.73616">
        <ele>303</ele>
        <time>2012-07-22T09:03:32.000Z</time>
      </trkpt>
      <trkpt lat="46.88308" lon="4.73631">
        <ele>301</ele>
        <time>2012-07-22T09:03:35.000Z</time>
      </trkpt>
      <trkpt lat="46.8831" lon="4.73644">
        <ele>300</ele>
        <time>2012-07-22T09:03:37.000Z</time>
      </trkpt>
      <trkpt lat="46.88316" lon="4.73665">
        <ele>299</ele>
        <time>2012-07-22T09:03:40.000Z</time>
      </trkpt>
      <trkpt lat="46.88323" lon="4.73691">
        <ele>297</ele>
        <time>2012-07-22T09:03:43.000Z</time>
      </trkpt>
      <trkpt lat="46.8833" lon="4.73718">
        <ele>295</ele>
        <time>2012-07-22T09:03:46.000Z</time>
      </trkpt>
      <trkpt lat="46.88334" lon="4.73734">
        <ele>294</ele>
        <time>2012-07-22T09:03:48.000Z</time>
      </trkpt>
      <trkpt lat="46.88336" lon="4.73751">
        <ele>292</ele>
        <time>2012-07-22T09:03:50.000Z</time>
      </trkpt>
      <trkpt lat="46.88337" lon="4.73775">
        <ele>290</ele>
        <time>2012-07-22T09:03:53.000Z</time>
      </trkpt>
      <trkpt lat="46.88338" lon="4.73783">
        <ele>288</ele>
        <time>2012-07-22T09:03:55.000Z</time>
      </trkpt>
      <trkpt lat="46.88339" lon="4.73789">
        <ele>286</ele>
        <time>2012-07-22T09:03:58.000Z</time>
      </trkpt>
      <trkpt lat="46.88338" lon="4.73792">
        <ele>285</ele>
        <time>2012-07-22T09:04:15.000Z</time>
      </trkpt>
      <trkpt lat="46.88337" lon="4.73796">
        <ele>284</ele>
        <time>2012-07-22T09:04:18.000Z</time>
      </trkpt>
      <trkpt lat="46.88334" lon="4.738">
        <ele>283</ele>
        <time>2012-07-22T09:04:20.000Z</time>
      </trkpt>
      <trkpt lat="46.88327" lon="4.73798">
        <ele>283</ele>
        <time>2012-07-22T09:04:23.000Z</time>
      </trkpt>
      <trkpt lat="46.88317" lon="4.7379">
        <ele>282</ele>
        <time>2012-07-22T09:04:26.000Z</time>
      </trkpt>
      <trkpt lat="46.88301" lon="4.73783">
        <ele>281</ele>
        <time>2012-07-22T09:04:31.000Z</time>
      </trkpt>
      <trkpt lat="46.88294" lon="4.73785">
        <ele>280</ele>
        <time>2012-07-22T09:04:33.000Z</time>
      </trkpt>
      <trkpt lat="46.88277" lon="4.73789">
        <ele>279</ele>
        <time>2012-07-22T09:04:36.000Z</time>
      </trkpt>
      <trkpt lat="46.88263" lon="4.73788">
        <ele>277</ele>
        <time>2012-07-22T09:04:39.000Z</time>
      </trkpt>
      <trkpt lat="46.88253" lon="4.73785">
        <ele>276</ele>
        <time>2012-07-22T09:04:41.000Z</time>
      </trkpt>
      <trkpt lat="46.88243" lon="4.73783">
        <ele>274</ele>
        <time>2012-07-22T09:04:43.000Z</time>
      </trkpt>
      <trkpt lat="46.88232" lon="4.7378">
        <ele>272</ele>
        <time>2012-07-22T09:04:45.000Z</time>
      </trkpt>
      <trkpt lat="46.88218" lon="4.73767">
        <ele>271</ele>
        <time>2012-07-22T09:04:48.000Z</time>
      </trkpt>
      <trkpt lat="46.88208" lon="4.73759">
        <ele>270</ele>
        <time>2012-07-22T09:04:51.000Z</time>
      </trkpt>
      <trkpt lat="46.88199" lon="4.73757">
        <ele>269</ele>
        <time>2012-07-22T09:04:53.000Z</time>
      </trkpt>
      <trkpt lat="46.88187" lon="4.7376">
        <ele>268</ele>
        <time>2012-07-22T09:04:55.000Z</time>
      </trkpt>
      <trkpt lat="46.88168" lon="4.73762">
        <ele>267</ele>
        <time>2012-07-22T09:04:58.000Z</time>
      </trkpt>
      <trkpt lat="46.88155" lon="4.73759">
        <ele>266</ele>
        <time>2012-07-22T09:05:00.000Z</time>
      </trkpt>
      <trkpt lat="46.88138" lon="4.7376">
        <ele>264</ele>
        <time>2012-07-22T09:05:03.000Z</time>
      </trkpt>
      <trkpt lat="46.88123" lon="4.73769">
        <ele>262</ele>
        <time>2012-07-22T09:05:06.000Z</time>
      </trkpt>
      <trkpt lat="46.88113" lon="4.73776">
        <ele>260</ele>
        <time>2012-07-22T09:05:08.000Z</time>
      </trkpt>
      <trkpt lat="46.88098" lon="4.73785">
        <ele>259</ele>
        <time>2012-07-22T09:05:11.000Z</time>
      </trkpt>
      <trkpt lat="46.88092" lon="4.73795">
        <ele>257</ele>
        <time>2012-07-22T09:05:13.000Z</time>
      </trkpt>
      <trkpt lat="46.88089" lon="4.73808">
        <ele>255</ele>
        <time>2012-07-22T09:05:15.000Z</time>
      </trkpt>
      <trkpt lat="46.88088" lon="4.7382">
        <ele>254</ele>
        <time>2012-07-22T09:05:17.000Z</time>
      </trkpt>
      <trkpt lat="46.88088" lon="4.73835">
        <ele>252</ele>
        <time>2012-07-22T09:05:20.000Z</time>
      </trkpt>
      <trkpt lat="46.88088" lon="4.73846">
        <ele>251</ele>
        <time>2012-07-22T09:05:23.000Z</time>
      </trkpt>
      <trkpt lat="46.88084" lon="4.7385">
        <ele>250</ele>
        <time>2012-07-22T09:05:25.000Z</time>
      </trkpt>
      <trkpt lat="46.88076" lon="4.73845">
        <ele>249</ele>
        <time>2012-07-22T09:05:27.000Z</time>
      </trkpt>
      <trkpt lat="46.88062" lon="4.73839">
        <ele>248</ele>
        <time>2012-07-22T09:05:30.000Z</time>
      </trkpt>
      <trkpt lat="46.88043" lon="4.73833">
        <ele>247</ele>
        <time>2012-07-22T09:05:33.000Z</time>
      </trkpt>
      <trkpt lat="46.88027" lon="4.73831">
        <ele>246</ele>
        <time>2012-07-22T09:05:36.000Z</time>
      </trkpt>
      <trkpt lat="46.88015" lon="4.7383">
        <ele>245</ele>
        <time>2012-07-22T09:05:39.000Z</time>
      </trkpt>
      <trkpt lat="46.88" lon="4.73825">
        <ele>243</ele>
        <time>2012-07-22T09:05:42.000Z</time>
      </trkpt>
      <trkpt lat="46.87992" lon="4.73817">
        <ele>242</ele>
        <time>2012-07-22T09:05:44.000Z</time>
      </trkpt>
      <trkpt lat="46.87981" lon="4.73804">
        <ele>241</ele>
        <time>2012-07-22T09:05:47.000Z</time>
      </trkpt>
      <trkpt lat="46.87965" lon="4.73778">
        <ele>241</ele>
        <time>2012-07-22T09:05:52.000Z</time>
      </trkpt>
      <trkpt lat="46.87951" lon="4.73763">
        <ele>240</ele>
        <time>2012-07-22T09:05:55.000Z</time>
      </trkpt>
      <trkpt lat="46.87939" lon="4.73744">
        <ele>240</ele>
        <time>2012-07-22T09:05:59.000Z</time>
      </trkpt>
      <trkpt lat="46.87931" lon="4.73723">
        <ele>240</ele>
        <time>2012-07-22T09:06:02.000Z</time>
      </trkpt>
      <trkpt lat="46.87913" lon="4.73683">
        <ele>239</ele>
        <time>2012-07-22T09:06:08.000Z</time>
      </trkpt>
      <trkpt lat="46.87891" lon="4.7367">
        <ele>239</ele>
        <time>2012-07-22T09:06:11.000Z</time>
      </trkpt>
      <trkpt lat="46.87874" lon="4.73665">
        <ele>238</ele>
        <time>2012-07-22T09:06:13.000Z</time>
      </trkpt>
      <trkpt lat="46.8785" lon="4.73665">
        <ele>237</ele>
        <time>2012-07-22T09:06:16.000Z</time>
      </trkpt>
      <trkpt lat="46.87825" lon="4.73667">
        <ele>236</ele>
        <time>2012-07-22T09:06:18.000Z</time>
      </trkpt>
      <trkpt lat="46.87809" lon="4.73671">
        <ele>234</ele>
        <time>2012-07-22T09:06:20.000Z</time>
      </trkpt>
      <trkpt lat="46.87793" lon="4.73675">
        <ele>233</ele>
        <time>2012-07-22T09:06:23.000Z</time>
      </trkpt>
      <trkpt lat="46.87775" lon="4.7368">
        <ele>231</ele>
        <time>2012-07-22T09:06:25.000Z</time>
      </trkpt>
      <trkpt lat="46.87757" lon="4.73682">
        <ele>230</ele>
        <time>2012-07-22T09:06:27.000Z</time>
      </trkpt>
      <trkpt lat="46.87743" lon="4.73682">
        <ele>230</ele>
        <time>2012-07-22T09:06:29.000Z</time>
      </trkpt>
      <trkpt lat="46.87727" lon="4.73683">
        <ele>229</ele>
        <time>2012-07-22T09:06:32.000Z</time>
      </trkpt>
      <trkpt lat="46.87719" lon="4.73685">
        <ele>229</ele>
        <time>2012-07-22T09:06:34.000Z</time>
      </trkpt>
      <trkpt lat="46.87707" lon="4.73702">
        <ele>228</ele>
        <time>2012-07-22T09:06:37.000Z</time>
      </trkpt>
      <trkpt lat="46.87677" lon="4.73745">
        <ele>227</ele>
        <time>2012-07-22T09:06:43.000Z</time>
      </trkpt>
      <trkpt lat="46.87656" lon="4.73788">
        <ele>226</ele>
        <time>2012-07-22T09:06:48.000Z</time>
      </trkpt>
      <trkpt lat="46.87637" lon="4.73829">
        <ele>225</ele>
        <time>2012-07-22T09:06:53.000Z</time>
      </trkpt>
      <trkpt lat="46.87603" lon="4.73884">
        <ele>225</ele>
        <time>2012-07-22T09:07:01.000Z</time>
      </trkpt>
      <trkpt lat="46.87598" lon="4.73903">
        <ele>225</ele>
        <time>2012-07-22T09:07:05.000Z</time>
      </trkpt>
      <trkpt lat="46.87591" lon="4.73919">
        <ele>225</ele>
        <time>2012-07-22T09:07:08.000Z</time>
      </trkpt>
      <trkpt lat="46.87591" lon="4.73935">
        <ele>225</ele>
        <time>2012-07-22T09:07:11.000Z</time>
      </trkpt>
      <trkpt lat="46.87582" lon="4.73952">
        <ele>225</ele>
        <time>2012-07-22T09:07:14.000Z</time>
      </trkpt>
      <trkpt lat="46.87574" lon="4.73965">
        <ele>224</ele>
        <time>2012-07-22T09:07:19.000Z</time>
      </trkpt>
      <trkpt lat="46.87567" lon="4.73961">
        <ele>224</ele>
        <time>2012-07-22T09:07:22.000Z</time>
      </trkpt>
      <trkpt lat="46.87562" lon="4.73957">
        <ele>224</ele>
        <time>2012-07-22T09:07:24.000Z</time>
      </trkpt>
      <trkpt lat="46.87526" lon="4.73936">
        <ele>224</ele>
        <time>2012-07-22T09:07:38.000Z</time>
      </trkpt>
      <trkpt lat="46.87517" lon="4.73949">
        <ele>224</ele>
        <time>2012-07-22T09:07:41.000Z</time>
      </trkpt>
      <trkpt lat="46.87508" lon="4.73959">
        <ele>224</ele>
        <time>2012-07-22T09:07:44.000Z</time>
      </trkpt>
      <trkpt lat="46.87497" lon="4.7397">
        <ele>224</ele>
        <time>2012-07-22T09:07:47.000Z</time>
      </trkpt>
      <trkpt lat="46.87479" lon="4.73993">
        <ele>224</ele>
        <time>2012-07-22T09:07:53.000Z</time>
      </trkpt>
      <trkpt lat="46.87474" lon="4.74015">
        <ele>224</ele>
        <time>2012-07-22T09:07:56.000Z</time>
      </trkpt>
      <trkpt lat="46.8747" lon="4.74037">
        <ele>225</ele>
        <time>2012-07-22T09:07:59.000Z</time>
      </trkpt>
      <trkpt lat="46.87466" lon="4.74074">
        <ele>226</ele>
        <time>2012-07-22T09:08:04.000Z</time>
      </trkpt>
      <trkpt lat="46.87459" lon="4.74137">
        <ele>225</ele>
        <time>2012-07-22T09:08:14.000Z</time>
      </trkpt>
      <trkpt lat="46.87454" lon="4.74155">
        <ele>225</ele>
        <time>2012-07-22T09:08:17.000Z</time>
      </trkpt>
      <trkpt lat="46.8744" lon="4.74189">
        <ele>225</ele>
        <time>2012-07-22T09:08:24.000Z</time>
      </trkpt>
      <trkpt lat="46.87433" lon="4.74202">
        <ele>225</ele>
        <time>2012-07-22T09:08:27.000Z</time>
      </trkpt>
      <trkpt lat="46.87405" lon="4.74258">
        <ele>225</ele>
        <time>2012-07-22T09:08:38.000Z</time>
      </trkpt>
      <trkpt lat="46.874" lon="4.7427">
        <ele>225</ele>
        <time>2012-07-22T09:08:40.000Z</time>
      </trkpt>
      <trkpt lat="46.87378" lon="4.74336">
        <ele>226</ele>
        <time>2012-07-22T09:08:51.000Z</time>
      </trkpt>
      <trkpt lat="46.87375" lon="4.7435">
        <ele>226</ele>
        <time>2012-07-22T09:08:54.000Z</time>
      </trkpt>
      <trkpt lat="46.87368" lon="4.74374">
        <ele>227</ele>
        <time>2012-07-22T09:09:01.000Z</time>
      </trkpt>
      <trkpt lat="46.87363" lon="4.74384">
        <ele>227</ele>
        <time>2012-07-22T09:09:04.000Z</time>
      </trkpt>
      <trkpt lat="46.87358" lon="4.74402">
        <ele>227</ele>
        <time>2012-07-22T09:09:07.000Z</time>
      </trkpt>
      <trkpt lat="46.87355" lon="4.74415">
        <ele>228</ele>
        <time>2012-07-22T09:09:09.000Z</time>
      </trkpt>
      <trkpt lat="46.8735" lon="4.74445">
        <ele>229</ele>
        <time>2012-07-22T09:09:14.000Z</time>
      </trkpt>
      <trkpt lat="46.87337" lon="4.74508">
        <ele>229</ele>
        <time>2012-07-22T09:09:24.000Z</time>
      </trkpt>
      <trkpt lat="46.87328" lon="4.74575">
        <ele>229</ele>
        <time>2012-07-22T09:09:34.000Z</time>
      </trkpt>
      <trkpt lat="46.87321" lon="4.74641">
        <ele>230</ele>
        <time>2012-07-22T09:09:43.000Z</time>
      </trkpt>
      <trkpt lat="46.87309" lon="4.74713">
        <ele>231</ele>
        <time>2012-07-22T09:09:56.000Z</time>
      </trkpt>
      <trkpt lat="46.873" lon="4.74747">
        <ele>230</ele>
        <time>2012-07-22T09:10:01.000Z</time>
      </trkpt>
      <trkpt lat="46.87281" lon="4.74818">
        <ele>230</ele>
        <time>2012-07-22T09:10:14.000Z</time>
      </trkpt>
      <trkpt lat="46.87276" lon="4.74832">
        <ele>229</ele>
        <time>2012-07-22T09:10:16.000Z</time>
      </trkpt>
      <trkpt lat="46.87265" lon="4.74867">
        <ele>228</ele>
        <time>2012-07-22T09:10:21.000Z</time>
      </trkpt>
      <trkpt lat="46.87243" lon="4.74932">
        <ele>227</ele>
        <time>2012-07-22T09:10:30.000Z</time>
      </trkpt>
      <trkpt lat="46.87233" lon="4.74963">
        <ele>226</ele>
        <time>2012-07-22T09:10:35.000Z</time>
      </trkpt>
      <trkpt lat="46.87227" lon="4.74973">
        <ele>226</ele>
        <time>2012-07-22T09:10:37.000Z</time>
      </trkpt>
      <trkpt lat="46.87219" lon="4.74975">
        <ele>225</ele>
        <time>2012-07-22T09:10:39.000Z</time>
      </trkpt>
      <trkpt lat="46.87214" lon="4.74972">
        <ele>225</ele>
        <time>2012-07-22T09:10:41.000Z</time>
      </trkpt>
      <trkpt lat="46.8721" lon="4.74971">
        <ele>224</ele>
        <time>2012-07-22T09:10:48.000Z</time>
      </trkpt>
      <trkpt lat="46.87209" lon="4.74973">
        <ele>224</ele>
        <time>2012-07-22T09:10:51.000Z</time>
      </trkpt>
      <trkpt lat="46.87207" lon="4.74971">
        <ele>224</ele>
        <time>2012-07-22T09:11:08.000Z</time>
      </trkpt>
      <trkpt lat="46.87202" lon="4.74968">
        <ele>224</ele>
        <time>2012-07-22T09:11:11.000Z</time>
      </trkpt>
      <trkpt lat="46.87197" lon="4.74966">
        <ele>224</ele>
        <time>2012-07-22T09:11:13.000Z</time>
      </trkpt>
      <trkpt lat="46.8719" lon="4.74965">
        <ele>224</ele>
        <time>2012-07-22T09:11:16.000Z</time>
      </trkpt>
      <trkpt lat="46.87165" lon="4.74957">
        <ele>224</ele>
        <time>2012-07-22T09:11:48.000Z</time>
      </trkpt>
      <trkpt lat="46.87118" lon="4.74943">
        <ele>224</ele>
        <time>2012-07-22T09:12:01.000Z</time>
      </trkpt>
      <trkpt lat="46.87104" lon="4.74941">
        <ele>224</ele>
        <time>2012-07-22T09:12:04.000Z</time>
      </trkpt>
      <trkpt lat="46.87067" lon="4.7493">
        <ele>224</ele>
        <time>2012-07-22T09:12:12.000Z</time>
      </trkpt>
      <trkpt lat="46.87053" lon="4.74926">
        <ele>223</ele>
        <time>2012-07-22T09:12:15.000Z</time>
      </trkpt>
      <trkpt lat="46.87004" lon="4.74915">
        <ele>223</ele>
        <time>2012-07-22T09:12:25.000Z</time>
      </trkpt>
      <trkpt lat="46.86991" lon="4.74912">
        <ele>222</ele>
        <time>2012-07-22T09:12:28.000Z</time>
      </trkpt>
      <trkpt lat="46.86935" lon="4.74899">
        <ele>222</ele>
        <time>2012-07-22T09:12:39.000Z</time>
      </trkpt>
      <trkpt lat="46.86884" lon="4.74885">
        <ele>221</ele>
        <time>2012-07-22T09:12:48.000Z</time>
      </trkpt>
      <trkpt lat="46.86833" lon="4.7487">
        <ele>221</ele>
        <time>2012-07-22T09:12:57.000Z</time>
      </trkpt>
      <trkpt lat="46.86774" lon="4.74859">
        <ele>221</ele>
        <time>2012-07-22T09:13:06.000Z</time>
      </trkpt>
      <trkpt lat="46.86761" lon="4.74855">
        <ele>221</ele>
        <time>2012-07-22T09:13:08.000Z</time>
      </trkpt>
      <trkpt lat="46.86718" lon="4.74845">
        <ele>220</ele>
        <time>2012-07-22T09:13:14.000Z</time>
      </trkpt>
      <trkpt lat="46.86666" lon="4.7483">
        <ele>220</ele>
        <time>2012-07-22T09:13:21.000Z</time>
      </trkpt>
      <trkpt lat="46.86648" lon="4.74824">
        <ele>219</ele>
        <time>2012-07-22T09:13:24.000Z</time>
      </trkpt>
      <trkpt lat="46.86613" lon="4.74815">
        <ele>218</ele>
        <time>2012-07-22T09:13:31.000Z</time>
      </trkpt>
      <trkpt lat="46.86606" lon="4.7482">
        <ele>218</ele>
        <time>2012-07-22T09:13:33.000Z</time>
      </trkpt>
      <trkpt lat="46.86601" lon="4.74835">
        <ele>218</ele>
        <time>2012-07-22T09:13:35.000Z</time>
      </trkpt>
      <trkpt lat="46.86599" lon="4.74847">
        <ele>217</ele>
        <time>2012-07-22T09:13:38.000Z</time>
      </trkpt>
      <trkpt lat="46.86591" lon="4.74889">
        <ele>216</ele>
        <time>2012-07-22T09:13:43.000Z</time>
      </trkpt>
      <trkpt lat="46.8658" lon="4.74936">
        <ele>215</ele>
        <time>2012-07-22T09:13:50.000Z</time>
      </trkpt>
      <trkpt lat="46.86562" lon="4.75005">
        <ele>215</ele>
        <time>2012-07-22T09:13:57.000Z</time>
      </trkpt>
      <trkpt lat="46.86554" lon="4.7504">
        <ele>214</ele>
        <time>2012-07-22T09:14:02.000Z</time>
      </trkpt>
      <trkpt lat="46.86539" lon="4.75097">
        <ele>213</ele>
        <time>2012-07-22T09:14:08.000Z</time>
      </trkpt>
      <trkpt lat="46.86524" lon="4.7518">
        <ele>213</ele>
        <time>2012-07-22T09:14:18.000Z</time>
      </trkpt>
      <trkpt lat="46.86522" lon="4.75194">
        <ele>212</ele>
        <time>2012-07-22T09:14:21.000Z</time>
      </trkpt>
      <trkpt lat="46.86521" lon="4.75209">
        <ele>212</ele>
        <time>2012-07-22T09:14:23.000Z</time>
      </trkpt>
      <trkpt lat="46.86515" lon="4.75242">
        <ele>212</ele>
        <time>2012-07-22T09:14:33.000Z</time>
      </trkpt>
      <trkpt lat="46.86512" lon="4.75274">
        <ele>211</ele>
        <time>2012-07-22T09:14:38.000Z</time>
      </trkpt>
      <trkpt lat="46.86509" lon="4.75343">
        <ele>211</ele>
        <time>2012-07-22T09:14:45.000Z</time>
      </trkpt>
      <trkpt lat="46.86508" lon="4.75362">
        <ele>210</ele>
        <time>2012-07-22T09:14:48.000Z</time>
      </trkpt>
      <trkpt lat="46.86502" lon="4.7544">
        <ele>209</ele>
        <time>2012-07-22T09:14:56.000Z</time>
      </trkpt>
      <trkpt lat="46.86499" lon="4.75523">
        <ele>208</ele>
        <time>2012-07-22T09:15:04.000Z</time>
      </trkpt>
      <trkpt lat="46.86492" lon="4.75625">
        <ele>207</ele>
        <time>2012-07-22T09:15:11.000Z</time>
      </trkpt>
      <trkpt lat="46.86475" lon="4.75722">
        <ele>206</ele>
        <time>2012-07-22T09:15:18.000Z</time>
      </trkpt>
      <trkpt lat="46.86457" lon="4.75808">
        <ele>206</ele>
        <time>2012-07-22T09:15:24.000Z</time>
      </trkpt>
      <trkpt lat="46.86451" lon="4.75834">
        <ele>205</ele>
        <time>2012-07-22T09:15:26.000Z</time>
      </trkpt>
      <trkpt lat="46.86426" lon="4.75923">
        <ele>206</ele>
        <time>2012-07-22T09:15:34.000Z</time>
      </trkpt>
      <trkpt lat="46.86413" lon="4.75948">
        <ele>206</ele>
        <time>2012-07-22T09:15:37.000Z</time>
      </trkpt>
      <trkpt lat="46.86407" lon="4.75956">
        <ele>206</ele>
        <time>2012-07-22T09:15:39.000Z</time>
      </trkpt>
      <trkpt lat="46.86372" lon="4.75997">
        <ele>205</ele>
        <time>2012-07-22T09:15:49.000Z</time>
      </trkpt>
      <trkpt lat="46.86334" lon="4.76043">
        <ele>204</ele>
        <time>2012-07-22T09:15:59.000Z</time>
      </trkpt>
      <trkpt lat="46.86305" lon="4.7607">
        <ele>204</ele>
        <time>2012-07-22T09:16:04.000Z</time>
      </trkpt>
      <trkpt lat="46.86288" lon="4.76074">
        <ele>204</ele>
        <time>2012-07-22T09:16:08.000Z</time>
      </trkpt>
      <trkpt lat="46.86271" lon="4.76071">
        <ele>204</ele>
        <time>2012-07-22T09:16:10.000Z</time>
      </trkpt>
      <trkpt lat="46.86263" lon="4.76072">
        <ele>204</ele>
        <time>2012-07-22T09:16:13.000Z</time>
      </trkpt>
      <trkpt lat="46.86249" lon="4.76069">
        <ele>204</ele>
        <time>2012-07-22T09:16:15.000Z</time>
      </trkpt>
      <trkpt lat="46.86237" lon="4.76068">
        <ele>204</ele>
        <time>2012-07-22T09:16:19.000Z</time>
      </trkpt>
      <trkpt lat="46.86187" lon="4.76061">
        <ele>205</ele>
        <time>2012-07-22T09:16:28.000Z</time>
      </trkpt>
      <trkpt lat="46.86175" lon="4.76057">
        <ele>205</ele>
        <time>2012-07-22T09:16:30.000Z</time>
      </trkpt>
      <trkpt lat="46.8616" lon="4.76049">
        <ele>205</ele>
        <time>2012-07-22T09:16:32.000Z</time>
      </trkpt>
      <trkpt lat="46.86118" lon="4.76025">
        <ele>205</ele>
        <time>2012-07-22T09:16:38.000Z</time>
      </trkpt>
      <trkpt lat="46.86082" lon="4.76006">
        <ele>206</ele>
        <time>2012-07-22T09:16:42.000Z</time>
      </trkpt>
      <trkpt lat="46.86035" lon="4.75975">
        <ele>205</ele>
        <time>2012-07-22T09:16:50.000Z</time>
      </trkpt>
      <trkpt lat="46.86018" lon="4.75975">
        <ele>205</ele>
        <time>2012-07-22T09:16:52.000Z</time>
      </trkpt>
      <trkpt lat="46.86006" lon="4.75986">
        <ele>205</ele>
        <time>2012-07-22T09:16:54.000Z</time>
      </trkpt>
      <trkpt lat="46.85995" lon="4.76002">
        <ele>205</ele>
        <time>2012-07-22T09:16:57.000Z</time>
      </trkpt>
      <trkpt lat="46.85985" lon="4.76019">
        <ele>204</ele>
        <time>2012-07-22T09:16:59.000Z</time>
      </trkpt>
      <trkpt lat="46.85975" lon="4.76049">
        <ele>204</ele>
        <time>2012-07-22T09:17:02.000Z</time>
      </trkpt>
      <trkpt lat="46.85963" lon="4.76109">
        <ele>204</ele>
        <time>2012-07-22T09:17:08.000Z</time>
      </trkpt>
      <trkpt lat="46.85961" lon="4.76127">
        <ele>203</ele>
        <time>2012-07-22T09:17:10.000Z</time>
      </trkpt>
      <trkpt lat="46.85957" lon="4.76157">
        <ele>204</ele>
        <time>2012-07-22T09:17:12.000Z</time>
      </trkpt>
      <trkpt lat="46.85944" lon="4.76202">
        <ele>204</ele>
        <time>2012-07-22T09:17:18.000Z</time>
      </trkpt>
      <trkpt lat="46.85932" lon="4.76212">
        <ele>204</ele>
        <time>2012-07-22T09:17:20.000Z</time>
      </trkpt>
      <trkpt lat="46.8591" lon="4.76216">
        <ele>204</ele>
        <time>2012-07-22T09:17:22.000Z</time>
      </trkpt>
      <trkpt lat="46.8588" lon="4.76244">
        <ele>204</ele>
        <time>2012-07-22T09:17:28.000Z</time>
      </trkpt>
      <trkpt lat="46.85872" lon="4.76268">
        <ele>204</ele>
        <time>2012-07-22T09:17:30.000Z</time>
      </trkpt>
      <trkpt lat="46.85854" lon="4.76333">
        <ele>204</ele>
        <time>2012-07-22T09:17:35.000Z</time>
      </trkpt>
      <trkpt lat="46.85852" lon="4.76353">
        <ele>203</ele>
        <time>2012-07-22T09:17:37.000Z</time>
      </trkpt>
      <trkpt lat="46.85838" lon="4.7638">
        <ele>203</ele>
        <time>2012-07-22T09:17:40.000Z</time>
      </trkpt>
      <trkpt lat="46.8583" lon="4.7641">
        <ele>203</ele>
        <time>2012-07-22T09:17:43.000Z</time>
      </trkpt>
      <trkpt lat="46.85822" lon="4.76439">
        <ele>202</ele>
        <time>2012-07-22T09:17:45.000Z</time>
      </trkpt>
      <trkpt lat="46.85807" lon="4.76487">
        <ele>201</ele>
        <time>2012-07-22T09:17:51.000Z</time>
      </trkpt>
      <trkpt lat="46.85788" lon="4.76556">
        <ele>201</ele>
        <time>2012-07-22T09:18:00.000Z</time>
      </trkpt>
      <trkpt lat="46.85782" lon="4.76564">
        <ele>201</ele>
        <time>2012-07-22T09:18:06.000Z</time>
      </trkpt>
      <trkpt lat="46.85783" lon="4.76563">
        <ele>201</ele>
        <time>2012-07-22T09:18:11.000Z</time>
      </trkpt>
      <trkpt lat="46.85782" lon="4.76567">
        <ele>201</ele>
        <time>2012-07-22T09:18:13.000Z</time>
      </trkpt>
      <trkpt lat="46.85767" lon="4.76614">
        <ele>200</ele>
        <time>2012-07-22T09:18:22.000Z</time>
      </trkpt>
      <trkpt lat="46.85744" lon="4.7668">
        <ele>199</ele>
        <time>2012-07-22T09:18:29.000Z</time>
      </trkpt>
      <trkpt lat="46.85732" lon="4.76715">
        <ele>198</ele>
        <time>2012-07-22T09:18:34.000Z</time>
      </trkpt>
      <trkpt lat="46.857" lon="4.76787">
        <ele>198</ele>
        <time>2012-07-22T09:18:41.000Z</time>
      </trkpt>
      <trkpt lat="46.85688" lon="4.76807">
        <ele>198</ele>
        <time>2012-07-22T09:18:43.000Z</time>
      </trkpt>
      <trkpt lat="46.85666" lon="4.76837">
        <ele>198</ele>
        <time>2012-07-22T09:18:46.000Z</time>
      </trkpt>
      <trkpt lat="46.85653" lon="4.76858">
        <ele>198</ele>
        <time>2012-07-22T09:18:48.000Z</time>
      </trkpt>
      <trkpt lat="46.8564" lon="4.76896">
        <ele>198</ele>
        <time>2012-07-22T09:18:51.000Z</time>
      </trkpt>
      <trkpt lat="46.85637" lon="4.76936">
        <ele>198</ele>
        <time>2012-07-22T09:18:54.000Z</time>
      </trkpt>
      <trkpt lat="46.85626" lon="4.76993">
        <ele>198</ele>
        <time>2012-07-22T09:18:59.000Z</time>
      </trkpt>
      <trkpt lat="46.85612" lon="4.77031">
        <ele>198</ele>
        <time>2012-07-22T09:19:04.000Z</time>
      </trkpt>
      <trkpt lat="46.85598" lon="4.7703">
        <ele>199</ele>
        <time>2012-07-22T09:19:07.000Z</time>
      </trkpt>
      <trkpt lat="46.8559" lon="4.77024">
        <ele>199</ele>
        <time>2012-07-22T09:19:09.000Z</time>
      </trkpt>
      <trkpt lat="46.8557" lon="4.77011">
        <ele>200</ele>
        <time>2012-07-22T09:19:13.000Z</time>
      </trkpt>
      <trkpt lat="46.85527" lon="4.76985">
        <ele>201</ele>
        <time>2012-07-22T09:19:21.000Z</time>
      </trkpt>
      <trkpt lat="46.85505" lon="4.76967">
        <ele>201</ele>
        <time>2012-07-22T09:19:26.000Z</time>
      </trkpt>
      <trkpt lat="46.85458" lon="4.76939">
        <ele>201</ele>
        <time>2012-07-22T09:19:35.000Z</time>
      </trkpt>
      <trkpt lat="46.85447" lon="4.76942">
        <ele>201</ele>
        <time>2012-07-22T09:19:38.000Z</time>
      </trkpt>
      <trkpt lat="46.85392" lon="4.76957">
        <ele>201</ele>
        <time>2012-07-22T09:19:47.000Z</time>
      </trkpt>
      <trkpt lat="46.85333" lon="4.76974">
        <ele>201</ele>
        <time>2012-07-22T09:19:55.000Z</time>
      </trkpt>
      <trkpt lat="46.85304" lon="4.76985">
        <ele>200</ele>
        <time>2012-07-22T09:19:59.000Z</time>
      </trkpt>
      <trkpt lat="46.85263" lon="4.76992">
        <ele>200</ele>
        <time>2012-07-22T09:20:04.000Z</time>
      </trkpt>
      <trkpt lat="46.85239" lon="4.76981">
        <ele>199</ele>
        <time>2012-07-22T09:20:06.000Z</time>
      </trkpt>
      <trkpt lat="46.85223" lon="4.76977">
        <ele>199</ele>
        <time>2012-07-22T09:20:09.000Z</time>
      </trkpt>
      <trkpt lat="46.85207" lon="4.76986">
        <ele>198</ele>
        <time>2012-07-22T09:20:11.000Z</time>
      </trkpt>
      <trkpt lat="46.85189" lon="4.7701">
        <ele>198</ele>
        <time>2012-07-22T09:20:13.000Z</time>
      </trkpt>
      <trkpt lat="46.85165" lon="4.77036">
        <ele>197</ele>
        <time>2012-07-22T09:20:18.000Z</time>
      </trkpt>
      <trkpt lat="46.85155" lon="4.7705">
        <ele>197</ele>
        <time>2012-07-22T09:20:20.000Z</time>
      </trkpt>
      <trkpt lat="46.85145" lon="4.77071">
        <ele>197</ele>
        <time>2012-07-22T09:20:22.000Z</time>
      </trkpt>
      <trkpt lat="46.85138" lon="4.77079">
        <ele>197</ele>
        <time>2012-07-22T09:20:25.000Z</time>
      </trkpt>
      <trkpt lat="46.85133" lon="4.77089">
        <ele>196</ele>
        <time>2012-07-22T09:20:30.000Z</time>
      </trkpt>
      <trkpt lat="46.85144" lon="4.77102">
        <ele>196</ele>
        <time>2012-07-22T09:20:33.000Z</time>
      </trkpt>
      <trkpt lat="46.85152" lon="4.77095">
        <ele>196</ele>
        <time>2012-07-22T09:20:36.000Z</time>
      </trkpt>
      <trkpt lat="46.85154" lon="4.77081">
        <ele>196</ele>
        <time>2012-07-22T09:20:39.000Z</time>
      </trkpt>
      <trkpt lat="46.85148" lon="4.77076">
        <ele>197</ele>
        <time>2012-07-22T09:20:41.000Z</time>
      </trkpt>
      <trkpt lat="46.85138" lon="4.77098">
        <ele>197</ele>
        <time>2012-07-22T09:20:44.000Z</time>
      </trkpt>
      <trkpt lat="46.8515" lon="4.77102">
        <ele>197</ele>
        <time>2012-07-22T09:20:46.000Z</time>
      </trkpt>
      <trkpt lat="46.85151" lon="4.77089">
        <ele>197</ele>
        <time>2012-07-22T09:20:49.000Z</time>
      </trkpt>
      <trkpt lat="46.85144" lon="4.7708">
        <ele>197</ele>
        <time>2012-07-22T09:20:51.000Z</time>
      </trkpt>
      <trkpt lat="46.85134" lon="4.77082">
        <ele>196</ele>
        <time>2012-07-22T09:20:53.000Z</time>
      </trkpt>
      <trkpt lat="46.85106" lon="4.7708">
        <ele>196</ele>
        <time>2012-07-22T09:20:59.000Z</time>
      </trkpt>
      <trkpt lat="46.85082" lon="4.77068">
        <ele>196</ele>
        <time>2012-07-22T09:21:04.000Z</time>
      </trkpt>
      <trkpt lat="46.85064" lon="4.77064">
        <ele>195</ele>
        <time>2012-07-22T09:21:07.000Z</time>
      </trkpt>
      <trkpt lat="46.85048" lon="4.77058">
        <ele>195</ele>
        <time>2012-07-22T09:21:10.000Z</time>
      </trkpt>
      <trkpt lat="46.85034" lon="4.77048">
        <ele>195</ele>
        <time>2012-07-22T09:21:13.000Z</time>
      </trkpt>
      <trkpt lat="46.85022" lon="4.77045">
        <ele>194</ele>
        <time>2012-07-22T09:21:15.000Z</time>
      </trkpt>
      <trkpt lat="46.84976" lon="4.77033">
        <ele>194</ele>
        <time>2012-07-22T09:21:23.000Z</time>
      </trkpt>
      <trkpt lat="46.84964" lon="4.77033">
        <ele>194</ele>
        <time>2012-07-22T09:21:25.000Z</time>
      </trkpt>
      <trkpt lat="46.84954" lon="4.77022">
        <ele>194</ele>
        <time>2012-07-22T09:21:28.000Z</time>
      </trkpt>
      <trkpt lat="46.84951" lon="4.77032">
        <ele>194</ele>
        <time>2012-07-22T09:21:31.000Z</time>
      </trkpt>
      <trkpt lat="46.84948" lon="4.77036">
        <ele>194</ele>
        <time>2012-07-22T09:21:35.000Z</time>
      </trkpt>
      <trkpt lat="46.84949" lon="4.77038">
        <ele>194</ele>
        <time>2012-07-22T09:21:38.000Z</time>
      </trkpt>
      <trkpt lat="46.8495" lon="4.77037">
        <ele>194</ele>
        <time>2012-07-22T09:21:42.000Z</time>
      </trkpt>
      <trkpt lat="46.8495" lon="4.77037">
        <ele>194</ele>
        <time>2012-07-22T09:22:02.000Z</time>
      </trkpt>
      <trkpt lat="46.84947" lon="4.77038">
        <ele>194</ele>
        <time>2012-07-22T09:22:16.000Z</time>
      </trkpt>
      <trkpt lat="46.84947" lon="4.7704">
        <ele>194</ele>
        <time>2012-07-22T09:22:24.000Z</time>
      </trkpt>
      <trkpt lat="46.84947" lon="4.7704">
        <ele>194</ele>
        <time>2012-07-22T09:22:55.000Z</time>
      </trkpt>
    </trkseg>
  </trk>
</gpx>